[[{"header":{"parameterUnit":"m.s-1","parameterCategory":1,"la1":30.6,"la2":29.2853,"lo1":-89.7004,"lo2":-87.6739,"dy":0.0162,"dx":0.0183,"nx":112,"ny":82,"refTime":"2023-09-30T12:00:00:Z","depth":0,"parameterNumber":2,"parameterNumberName":"U-component_of_WINDS"},"data":[0.0,0.0,0.0,0.0,0.0,0.0,0.0,0.0,0.0,0.0,0.0,0.0,0.0,0.0,0.0,0.0,0.0,0.0,0.0,0.0,0.0,0.0,0.0,0.0,0.0,0.0,0.0,0.0,0.0,0.0,0.0,0.0,0.0,0.0,0.0,0.0,0.0,0.0,0.0,0.0,0.0,0.0,0.0,0.0,0.0,0.0,0.0,0.0,0.0,0.0,0.0,0.0,0.0,0.0,0.0,0.0,0.0,0.0,0.0,0.0,0.0,0.0,0.0,0.0,0.0,0.0,0.0,0.0,0.0,0.0,0.0,0.0,0.0,0.0,0.0,0.0,0.0,0.0,0.0,0.0,0.0,0.0,0.0,0.0,0.0,0.0,0.0,0.0,0.0,0.0,0.9303,0.9725,0.9438,0.9373,0.9819,0.9265,0.9125,0.9668,0.0,0.0,0.0,0.0,0.0,0.0,0.0,0.0,0.0,0.0,0.0,0.0,0.0,0.0,0.0,0.0,0.0,0.0,0.0,0.0,0.0,0.0,0.0,0.0,0.0,0.0,0.0,0.0,0.0,0.0,0.0,0.0,0.0,0.0,0.0,0.0,0.0,0.0,0.0,0.0,0.0,0.0,0.0,0.0,0.0,0.0,0.0,0.0,0.0,0.0,0.0,0.0,0.0,0.0,0.0,0.0,0.0,0.0,0.0,0.0,0.0,0.0,0.0,0.0,0.0,0.0,0.0,0.0,0.0,0.0,0.0,0.0,0.0,0.0,0.0,0.0,0.0,0.0,0.0,0.0,0.0,0.0,0.0,0.0,0.0,0.0,0.0,0.0,0.0,0.0,0.0,0.0,0.0,0.0,0.0,0.0,0.0,0.0,0.0,0.0,0.0,0.0,0.0,0.0,0.9739,0.9644,0.9371,0.9323,0.9615,0.9185,0.94,1.0531,0.0,0.0,0.0,0.0,0.0,0.0,0.0,0.0,0.0,0.0,0.0,0.0,0.0,0.0,0.0,0.0,0.0,0.0,0.0,0.0,0.0,0.0,0.0,0.0,0.0,0.0,0.0,0.0,0.0,0.0,0.0,0.0,0.0,0.0,0.0,0.0,0.0,0.0,0.0,0.0,0.0,0.0,0.0,0.0,0.0,0.0,0.0,0.0,0.0,0.0,0.0,0.0,0.0,0.0,0.0,0.0,0.0,0.0,0.0,0.0,0.0,0.0,0.0,0.0,0.0,0.0,0.0,0.0,0.0,0.0,0.0,0.0,0.0,0.0,0.0,0.0,0.0,0.0,0.0,0.0,0.0,0.0,0.0,0.0,0.0,0.0,0.0,0.0,0.0,0.0,0.0,0.0,0.0,0.0,0.0,0.0,0.0,0.0,0.0,0.0,0.0,0.0,0.0,1.0357,1.019,0.9659,0.9583,0.9593,0.9601,0.9266,0.9488,1.0466,1.0053,0.0,0.0,0.0,0.0,0.0,0.0,0.0,0.0,0.0,0.0,0.0,0.0,0.0,0.0,0.0,0.0,0.0,0.0,0.0,0.0,0.0,0.0,0.0,0.0,0.0,0.0,0.0,0.0,0.0,0.0,0.0,0.0,0.0,0.0,0.0,0.0,0.0,0.0,0.0,0.0,0.0,0.0,0.0,0.0,0.0,0.0,0.0,0.0,0.0,0.0,0.0,0.0,0.0,0.0,0.0,0.0,0.0,0.0,0.0,0.0,0.0,0.0,0.0,0.0,0.0,0.0,0.0,0.0,0.0,0.0,0.0,0.0,0.0,0.0,0.0,0.0,0.0,0.0,0.0,0.0,0.0,0.0,0.0,0.0,0.0,0.0,0.0,0.0,0.0,0.0,0.0,0.0,0.0,0.0,0.0,0.0,0.0,0.0,0.0,0.0,0.0,0.0,1.037,1.0389,0.9815,0.9906,0.9938,0.9784,0.9518,0.9699,1.0443,1.0295,0.0,0.0,0.0,0.0,0.0,0.0,0.0,0.0,0.0,0.0,0.0,0.0,0.0,0.0,0.0,0.0,0.0,0.0,0.0,0.0,0.0,0.0,0.0,0.0,0.0,0.0,0.0,0.0,0.0,0.0,0.0,0.0,0.0,0.0,0.0,0.0,0.0,0.0,0.0,0.0,0.0,0.0,0.0,0.0,0.0,0.0,0.0,0.0,0.0,0.0,0.0,0.0,0.0,0.0,0.0,0.0,0.0,0.0,0.0,0.0,0.0,0.0,0.0,0.0,0.0,0.0,0.0,0.0,0.0,0.0,0.0,0.0,0.0,0.0,0.0,0.0,0.0,0.0,0.0,0.0,0.0,0.0,0.0,0.0,0.0,0.0,0.0,0.0,0.0,0.0,0.0,0.0,0.0,0.0,0.0,0.0,0.0,0.0,0.0,0.0,0.0,0.0,1.0249,1.0044,1.0233,1.0261,1.0261,1.025,1.0013,1.0181,1.0983,1.0852,0.0,0.0,0.0,0.0,0.0,0.0,0.0,0.0,0.0,0.0,0.0,0.0,0.0,0.0,0.0,0.0,0.0,0.0,0.0,0.0,0.0,0.0,0.0,0.0,0.0,0.0,0.0,0.0,0.0,0.0,0.0,0.0,0.0,0.0,0.0,0.0,0.0,0.0,0.0,0.0,0.0,0.0,0.0,0.0,0.0,0.0,0.0,0.0,0.0,0.0,0.0,0.0,0.0,0.0,0.0,0.0,0.0,0.0,0.0,0.0,0.0,0.0,0.0,0.0,0.0,0.0,0.0,0.0,0.0,0.0,0.0,0.0,0.0,0.0,0.0,0.0,0.0,0.0,0.0,0.0,0.0,0.0,0.0,0.0,0.0,0.0,0.0,0.0,0.0,0.0,0.0,0.0,0.0,0.0,0.0,0.0,0.0,0.0,0.0,0.0,0.0,0.0,1.052,1.0217,0.9546,0.9557,0.9616,0.9616,0.9281,0.9609,1.0839,0.0,0.0,0.0,0.0,0.0,0.0,0.0,0.0,0.0,0.0,0.0,0.0,0.0,0.0,0.0,0.0,0.0,0.0,0.0,0.0,0.0,0.0,0.0,0.0,0.0,0.0,0.0,0.0,0.0,0.0,0.0,0.0,0.0,0.0,0.0,0.0,0.0,0.0,0.0,0.0,0.0,0.0,0.0,0.0,0.0,0.0,0.0,0.0,0.0,0.0,0.0,0.0,0.0,0.0,0.0,0.0,0.0,0.0,0.0,0.0,0.0,0.0,0.0,0.0,0.0,0.0,0.0,0.0,0.0,0.0,0.0,0.0,0.0,0.0,0.0,0.0,0.0,0.0,0.0,0.0,0.0,0.0,0.0,0.0,0.0,0.0,0.0,0.0,0.0,0.0,0.0,0.0,0.0,0.0,0.0,0.0,0.0,0.0,0.0,0.0,0.0,0.0,1.0787,1.0415,0.9972,0.9265,0.9275,0.9319,0.9319,0.9077,0.9419,1.0566,0.0,0.0,0.0,0.0,0.0,0.0,0.0,0.0,0.0,0.0,0.0,0.0,0.0,0.0,0.0,0.0,0.0,0.0,0.0,0.0,0.0,0.0,0.0,0.0,0.0,0.0,0.0,0.0,0.0,0.0,0.0,0.0,0.0,0.0,0.0,0.0,0.0,0.0,0.0,0.0,0.0,0.0,0.0,0.0,0.0,0.0,0.0,0.0,0.0,0.0,0.0,0.0,0.0,0.0,0.0,0.0,0.0,0.0,0.0,0.0,0.0,0.0,0.0,0.0,0.0,0.0,0.0,0.0,0.0,0.0,0.0,0.0,0.0,0.0,0.0,0.0,0.0,0.0,0.0,0.0,0.0,0.0,0.0,0.0,0.0,0.0,0.0,0.0,0.0,0.0,0.0,0.0,0.0,0.0,0.0,0.0,0.0,0.0,0.0,0.0,0.0,0.0,1.1082,0.988,0.9145,0.9538,0.9585,0.9585,0.9585,0.9585,0.9784,0.0,0.0,0.0,0.0,0.0,0.0,0.0,0.0,0.0,0.0,0.0,0.0,0.0,0.0,0.0,0.0,0.0,0.0,0.0,0.0,0.0,0.0,0.0,0.0,0.0,0.0,0.0,0.0,0.0,0.0,0.0,0.0,0.0,0.0,0.0,0.0,0.0,0.0,0.0,0.0,0.0,0.0,0.0,0.0,0.0,0.0,0.0,0.0,0.0,0.0,0.0,0.0,0.0,0.0,0.0,0.0,0.0,0.0,0.0,0.0,0.0,0.0,0.0,0.0,0.0,0.0,0.0,0.0,0.0,0.0,0.0,0.0,0.0,0.0,0.0,0.0,0.0,0.0,0.0,0.0,0.0,0.0,0.0,0.0,0.0,0.0,0.0,0.0,0.0,0.0,0.0,0.0,0.0,0.0,0.0,0.0,0.0,0.0,0.0,0.0,0.0,0.0,0.0,1.0756,0.9938,0.9236,0.8742,0.8815,0.89,0.89,0.8773,0.908,1.002,0.0,0.0,0.0,0.0,0.0,0.0,0.0,0.0,0.0,0.0,0.0,0.0,0.0,0.0,0.0,0.0,0.0,0.0,0.0,0.0,0.0,0.0,0.0,0.0,0.0,0.0,0.0,0.0,0.0,0.0,0.0,0.0,0.0,0.0,0.0,0.0,0.0,0.0,0.0,0.0,0.0,0.0,0.0,0.0,0.0,0.0,0.0,0.0,0.0,0.0,0.0,0.0,0.0,0.0,0.0,0.0,0.0,0.0,0.0,0.0,0.0,0.0,0.0,0.0,0.0,0.0,0.0,0.0,0.0,0.0,0.0,0.0,0.0,0.0,0.0,0.0,0.0,0.0,0.0,0.0,0.0,0.0,0.0,0.0,0.0,0.0,0.0,0.0,0.0,0.0,0.0,0.0,0.0,0.0,0.0,0.0,0.0,0.0,0.0,0.0,0.0,0.0,1.0754,0.9751,0.8913,0.8454,0.8525,0.859,0.859,0.8484,0.8763,0.9587,0.0,0.0,0.0,0.0,0.0,0.0,0.0,0.0,0.0,0.0,0.0,0.0,0.0,0.0,0.0,0.0,0.0,0.0,0.0,0.0,0.0,0.0,0.0,0.0,0.0,0.0,0.0,0.0,0.0,0.0,0.0,0.0,0.0,0.0,0.0,0.0,0.0,0.0,0.0,0.0,0.0,0.0,0.0,0.0,0.0,0.0,0.0,0.0,0.0,0.0,0.0,0.0,0.0,0.0,0.0,0.0,0.0,0.0,0.0,0.0,0.0,0.0,0.0,0.0,0.0,0.0,0.0,0.0,0.0,0.0,0.0,0.0,0.0,0.0,0.0,0.0,0.0,0.0,0.0,0.0,0.0,0.0,0.0,0.0,0.0,0.0,0.0,0.0,0.0,0.0,0.0,0.0,0.0,0.0,0.0,0.0,0.0,0.0,0.0,0.0,0.0,0.0,1.095,0.9456,0.8446,0.8596,0.859,0.859,0.859,0.859,0.8751,0.9071,0.0,0.0,0.0,0.0,0.0,0.0,0.0,0.0,0.0,0.0,0.0,0.0,0.0,0.0,0.0,0.0,0.0,0.0,0.0,0.0,0.0,0.0,0.0,0.0,0.0,0.0,0.0,0.0,0.0,0.0,0.0,0.0,0.0,0.0,0.0,0.0,0.0,0.0,0.0,0.0,0.0,0.0,0.0,0.0,0.0,0.0,0.0,0.0,0.0,0.0,0.0,0.0,0.0,0.0,0.0,0.0,0.0,0.0,0.0,0.0,0.44,0.5986,0.0,0.0,0.0,0.0,0.0,0.0,0.0,0.0,0.0,0.0,0.0,0.0,0.0,0.0,0.0,0.0,0.0,0.0,0.0,0.0,0.0,0.0,0.0,0.0,0.0,0.0,0.0,0.0,0.0,0.0,0.0,0.0,0.0,0.0,0.0,0.0,0.0,0.0,0.0,0.0,1.0656,0.9723,0.8956,0.8626,0.859,0.859,0.859,0.859,0.8751,0.9071,0.9163,0.0,0.0,0.0,0.0,0.0,0.0,0.0,0.0,0.0,0.0,0.0,0.0,0.0,0.0,0.0,0.0,0.0,0.0,0.0,0.0,0.0,0.0,0.0,0.0,0.0,0.0,0.0,0.0,0.0,0.0,0.0,0.0,0.0,0.0,0.0,0.0,0.0,0.0,0.0,0.0,0.0,0.0,0.0,0.0,0.0,0.0,0.0,0.0,0.0,0.0,0.0,0.0,0.0,0.0,0.0,0.0,0.0,0.0,0.0,0.2931,0.4256,0.0,0.0,0.0,0.0,0.0,0.0,0.0,0.0,0.0,0.0,0.0,0.0,0.0,0.0,0.0,0.0,0.0,0.0,0.0,0.0,0.0,0.0,0.0,0.0,0.0,0.0,0.0,0.0,0.0,0.0,0.0,0.0,0.0,0.0,0.0,0.0,0.0,0.0,0.0,0.0,1.0084,0.9408,0.8867,0.8634,0.859,0.859,0.859,0.859,0.8683,0.8857,0.9018,0.0,0.0,0.0,0.0,0.0,0.0,0.0,0.0,0.0,0.0,0.0,0.0,0.0,0.0,0.0,0.0,0.0,0.0,0.0,0.0,0.0,0.0,0.0,0.0,0.0,0.0,0.0,0.0,0.0,0.0,0.0,0.0,0.0,0.0,0.0,0.0,0.0,0.0,0.0,0.0,0.0,0.0,0.0,0.0,0.0,0.0,0.0,0.0,0.0,0.0,0.0,0.0,0.0,-0.0523,-0.0601,-0.0692,-0.0244,-0.0167,-0.0348,0.0515,0.1703,0.3061,0.3338,0.0,0.0,0.0,0.0,0.0,0.0,0.0,0.0,0.0,0.0,0.0,0.0,0.0,0.0,0.0,0.0,0.0,0.0,0.0,0.0,0.0,0.0,0.7301,0.7924,0.7874,0.797,0.9044,0.0,0.0,0.0,0.0,0.0,0.0,0.0,0.0,0.0,0.0,0.0,0.9439,0.8806,0.848,0.8658,0.868,0.868,0.868,0.868,0.8672,0.8639,0.8892,0.9131,0.0,0.0,0.0,0.0,0.0,0.0,0.0,0.0,0.0,0.0,0.0,0.0,0.0,0.0,0.0,0.0,0.0,0.0,0.0,0.0,0.0,0.0,0.0,0.0,0.0,0.0,0.0,0.0,0.0,0.0,0.0,0.0,0.0258,-0.1198,0.0,0.0,0.0,0.0,0.0,0.0,0.0,0.0,0.0,0.0,0.0,0.0,0.0,-0.0238,-0.0344,-0.2182,-0.3359,-0.3865,-0.5243,-0.5894,-0.5871,-0.4968,-0.4485,-0.4282,-0.295,0.0,0.1204,0.1871,0.0,0.0,0.0,0.0,0.0,0.0,0.0,0.0,0.0,0.0,0.0,0.0,0.0,0.0,0.0,0.0,0.0,0.0,0.0,0.0,0.0,0.0,0.4142,0.4015,0.3783,0.3869,0.4949,0.7286,0.9012,0.85,0.8343,0.8627,0.0,0.0,0.0,0.0,0.0,0.0,0.8838,0.8166,0.7995,0.893,0.9031,0.9031,0.9031,0.9031,0.8958,0.8773,0.8806,0.9029,0.9463,1.0008,0.0,0.0,0.0,0.0,0.0,0.0,0.0,0.0,0.0,0.0,0.0,0.0,0.0,0.0,0.0,0.0,0.0,0.0,0.0,0.0,0.0,0.0,0.0,0.0,0.0,0.0,0.0,0.0,0.0,-0.0445,-0.2253,-0.3179,-0.31,-0.226,0.0,0.0,0.0,0.0,0.0,0.0,0.0,0.0,0.0,-0.1161,-0.2425,-0.3163,-0.3279,-0.5225,-0.6309,-0.6484,-0.7075,-0.7411,-0.7508,-0.679,-0.642,-0.6293,-0.5294,-0.3993,-0.249,-0.1288,0.0397,0.2316,0.0,0.0,0.0,0.0,0.586,0.5585,0.4763,0.3977,0.3318,0.3197,0.0,0.0,0.0,0.0,0.0,0.0,0.0,0.5227,0.4852,0.4279,0.3678,0.3119,0.2996,0.3072,0.3231,0.4485,0.5758,0.6408,0.6715,0.7108,0.788,0.7796,0.0,0.0,0.0,0.7154,0.7014,0.6764,0.7014,0.8076,0.8193,0.8457,0.9049,0.9096,0.9064,0.8982,0.8974,0.9061,0.9262,1.002,1.0512,0.0,0.0,0.0,0.0,0.0,0.0,0.0,0.0,0.0,0.0,0.0,0.0,0.0,0.0,0.0,0.0,0.0,0.0,0.0,0.0,0.0,0.0,0.0,0.0,0.0,0.0,0.0,0.0,-0.2836,-0.4827,-0.5496,-0.597,-0.5379,0.0,0.0,0.0,0.0,0.0,0.0,-0.432,-0.3818,-0.3667,-0.4043,-0.5477,-0.6275,-0.6279,-0.7702,-0.833,-0.8128,-0.7977,-0.7983,-0.8128,-0.7775,-0.7617,-0.7573,-0.7086,-0.6518,-0.5791,-0.3915,-0.173,0.0432,0.0492,0.1765,0.3546,0.3423,0.3574,0.3722,0.3013,0.2376,0.1897,0.1751,0.1958,0.2365,0.2828,0.0,0.0,0.0,0.0,0.3916,0.3591,0.3196,0.2701,0.2038,0.1831,0.1736,0.1574,0.1788,0.2553,0.4354,0.4949,0.5377,0.6048,0.6032,0.0,0.6251,0.6163,0.5953,0.5601,0.5595,0.6016,0.7097,0.7454,0.7961,0.8752,0.9068,0.921,0.9193,0.9185,0.9145,0.9096,0.9763,1.0081,0.9979,0.0,0.0,0.0,0.0,0.0,0.0,0.0,0.0,0.0,0.0,0.0,0.0,0.0,0.0,0.0,0.0,0.0,0.0,0.0,0.0,0.0,0.0,0.0,0.0,0.0,0.0,0.0,0.0,0.0,-0.8853,-1.1278,0.0,0.0,0.0,0.0,-0.7007,-0.704,-0.7797,-0.9263,-0.8414,-0.8407,-0.9568,-0.981,-0.9698,-0.9187,-0.928,-0.906,-0.8485,-0.8459,-0.8459,-0.8485,-0.8459,-0.8432,-0.8432,-0.8406,-0.8223,-0.7746,-0.4926,-0.3255,-0.2342,-0.0841,-0.0045,0.0225,0.0083,0.0765,0.1591,0.0548,0.0609,0.1166,0.114,0.1756,0.2706,0.3856,0.4383,0.0,0.0,0.3609,0.278,0.2321,0.102,-0.0246,-0.0551,-0.1384,-0.1869,-0.0926,-0.0424,0.051,0.2701,0.3132,0.3486,0.4515,0.0,0.4811,0.5124,0.4913,0.4867,0.5349,0.5089,0.5268,0.633,0.7378,0.7997,0.8047,0.9,0.9527,0.9404,0.9388,0.929,0.9104,0.9143,0.9569,1.0445,1.0384,0.0,0.0,0.0,0.0,0.0,0.0,0.0,0.0,0.0,0.0,0.0,0.0,0.0,0.0,0.0,0.0,0.0,0.0,0.0,0.0,0.0,0.0,0.0,0.0,0.0,0.0,0.0,0.0,-1.109,-1.2257,0.0,-1.2015,-1.1732,-1.1277,-1.06,-1.1546,-1.2415,-1.2962,-1.2303,-1.1846,-1.1671,-1.1545,-1.1089,-1.0232,-1.0412,-1.0097,-0.934,-0.934,-0.9123,-0.875,-0.875,-0.875,-0.875,-0.875,-0.8696,-0.8513,-0.7038,-0.5956,-0.5158,-0.4772,-0.4004,-0.3162,-0.3199,-0.2855,-0.2416,-0.2957,-0.221,-0.0896,-0.0128,0.0203,0.035,0.0616,0.1134,0.1535,0.1081,0.0847,0.071,0.0532,-0.0103,-0.083,-0.1279,-0.1542,-0.1702,-0.1685,-0.1434,-0.0826,0.0491,0.1344,0.22,0.3362,0.3243,0.3475,0.4953,0.4724,0.4471,0.4669,0.4567,0.488,0.5966,0.6277,0.697,0.8393,0.8702,0.9141,0.9876,0.9926,0.982,0.9616,0.9608,0.9665,0.9781,0.9759,0.942,0.0,0.0,0.0,0.0,0.0,0.0,0.0,0.0,0.0,0.0,0.0,0.0,0.0,0.0,0.0,0.0,0.0,0.0,0.0,0.0,0.0,0.0,0.0,0.0,0.0,-0.7557,-1.0543,-1.2932,-1.3987,-1.4475,-1.435,-1.4206,-1.4004,-1.3774,-1.4993,-1.5739,-1.5736,-1.5248,-1.4665,-1.403,-1.3841,-1.3318,-1.2459,-1.2625,-1.2128,-1.0942,-1.0942,-1.0504,-0.97,-0.97,-0.9335,-0.8729,-0.9174,-0.9028,-0.8457,-0.846,-0.816,-0.7642,-0.7267,-0.6516,-0.5725,-0.5804,-0.5435,-0.488,-0.4691,-0.3581,-0.2126,-0.1411,-0.1039,-0.0932,-0.1118,-0.0773,-0.04,-0.08,-0.0746,-0.056,-0.056,-0.088,-0.1253,-0.1624,-0.1704,-0.1813,-0.2174,-0.1683,-0.1174,-0.1244,-0.0236,0.112,0.2716,0.2669,0.3047,0.498,0.4892,0.4629,0.4656,0.4531,0.4706,0.543,0.5593,0.6236,0.7685,0.8144,0.8758,0.9768,0.9901,0.9993,1.0071,0.9872,0.9653,0.9445,0.9188,0.8652,0.7844,0.0,0.0,0.0,0.0,0.0,0.0,0.0,0.0,0.0,0.0,0.0,0.0,0.0,0.0,0.0,0.0,0.0,0.0,0.0,0.0,0.0,0.0,0.0,-0.6266,-1.069,-1.409,-1.4513,-1.6787,-1.7775,-1.63,-1.7491,-1.7881,-1.6626,-1.7252,-1.7702,-1.7699,-1.7082,-1.6718,-1.669,-1.669,-1.637,-1.5771,-1.5867,-1.5024,-1.3278,-1.325,-1.2575,-1.1425,-1.1339,-1.0261,-0.8521,-0.9795,-0.9319,-0.7782,-0.9096,-0.9693,-0.9629,-0.8001,-0.7367,-0.7393,-0.7663,-0.6938,-0.5655,-0.4484,-0.3374,-0.2502,-0.2715,-0.1973,-0.1042,-0.1042,-0.1015,-0.0962,-0.0988,-0.0962,-0.0908,-0.0908,-0.1308,-0.1707,-0.1707,-0.2107,-0.2493,-0.2564,-0.1294,-0.0644,-0.234,-0.1529,0.0184,0.2492,0.2906,0.3488,0.5096,0.5249,0.0,0.5391,0.4993,0.4725,0.4725,0.5417,0.5898,0.5912,0.7289,0.8417,0.9019,0.9298,0.9709,1.0286,0.9784,0.9493,0.9519,0.881,0.8642,0.9067,0.0,0.0,0.0,0.0,0.0,0.0,0.0,0.0,0.0,0.0,0.0,0.0,0.0,0.0,0.0,0.0,0.0,0.0,0.0,0.0,0.0,-1.0809,-1.2982,-1.2258,-1.3538,-1.5368,-1.7633,-1.8781,-1.9379,-1.9342,-1.9761,-1.998,-1.9813,-1.9646,-1.9625,-1.9847,-1.6837,-1.4839,-1.4217,-1.3996,-1.3525,-1.2729,-1.5278,-1.6074,-1.5136,-1.4272,-1.3903,-1.3978,-1.2126,-1.1499,-1.1831,-1.1278,-1.0478,-0.9595,-1.0211,-1.024,-0.9824,-0.9313,-0.9002,-0.8839,-0.8893,-0.8702,-0.7941,-0.4878,-0.4951,-0.6187,-0.4762,-0.4244,-0.4189,-0.4385,-0.3391,-0.2291,-0.2732,-0.2044,-0.119,-0.119,-0.1493,-0.177,-0.177,-0.1882,-0.1994,-0.2003,-0.1664,-0.1469,-0.1959,-0.1726,-0.1103,-0.0027,0.1062,0.2228,0.3542,0.4659,0.5353,0.5405,0.5295,0.5203,0.5203,0.5485,0.5904,0.6421,0.6969,0.7556,0.827,0.837,0.8345,0.8157,0.8835,0.9455,0.9983,0.9481,0.8961,0.0,0.0,0.0,0.0,0.0,0.0,0.0,0.0,0.0,0.0,0.0,0.0,0.0,0.0,0.0,0.0,0.0,0.0,0.0,0.0,0.0,0.0,-1.399,-1.695,-1.7601,-1.7499,-1.7989,-1.976,-2.0184,-2.0419,-2.0628,-2.0771,-2.0891,-2.0946,-2.0891,-2.086,-2.0896,-1.8859,-1.6839,-1.4995,-1.6114,-1.5841,-1.395,-1.7338,-1.8625,-1.7745,-1.69,-1.642,-1.6235,-1.4574,-1.3519,-1.2934,-1.2765,-1.1637,-1.0004,-1.0782,-1.0862,-1.0451,0.0,0.0,0.0,0.0,-0.9189,-0.8865,-0.664,-0.6638,-0.7421,-0.6223,-0.5639,-0.5417,-0.5584,-0.416,-0.2571,-0.2908,-0.1754,-0.05,-0.084,-0.1088,-0.1334,-0.1707,-0.1795,-0.1795,-0.1795,-0.1254,-0.0972,-0.1651,-0.1226,0.0,-0.1204,-0.0055,0.1393,0.2792,0.4172,0.5054,0.509,0.5375,0.5568,0.5568,0.553,0.5679,0.6126,0.6389,0.0,0.0,0.0,0.6866,0.6229,0.6878,0.0,0.0,0.0,0.7891,0.8102,0.7859,0.0,0.0,0.8058,0.7625,0.0,0.0,0.0,0.0,0.0,0.0,0.0,0.0,0.0,0.0,0.0,0.0,0.0,0.0,0.0,0.0,-1.6465,-1.924,-2.1853,-2.166,-2.1221,-2.116,-2.129,-2.1236,-2.0964,-2.1285,-2.137,-2.114,-2.1637,-2.1846,-2.1621,-2.1685,0.0,0.0,0.0,-2.0388,-1.7382,-2.0637,-2.1719,-2.0516,-2.0066,-1.9337,-1.8357,-1.7606,-1.5807,-1.3274,-1.4193,-1.2785,-0.9997,-1.1219,-1.159,-1.1269,-1.0173,-0.9709,-0.961,-0.8952,-0.8822,-0.896,-0.8719,0.0,0.0,-0.7293,-0.6621,-0.5806,-0.5806,-0.4383,-0.2766,-0.2766,-0.1383,-0.0027,-0.0614,-0.0776,-0.0963,-0.1593,-0.1739,-0.1739,-0.1739,-0.0609,-0.0027,-0.1509,-0.0609,-0.0055,-0.1538,-0.0601,0.085,0.2348,0.35,0.4285,0.4542,0.5157,0.5621,0.5754,0.5552,0.0,0.5326,0.5628,0.6038,0.6593,0.6001,0.5349,0.4689,0.4607,0.4836,0.5384,0.5414,0.6154,0.7651,0.7793,0.8232,0.8902,0.7528,0.7084,0.0,0.0,0.0,0.0,0.0,0.0,0.0,0.0,0.0,0.0,0.0,0.0,0.0,0.0,0.0,-1.8282,-2.0489,-2.2297,-2.2981,-2.3185,-2.2963,-2.2226,-2.2625,-2.2824,-2.2523,-2.3315,-2.3824,-2.3768,-2.3937,-2.3988,-2.3936,-2.1087,-1.9141,-1.8537,-1.9122,-1.8884,-1.7723,-2.1167,-2.2572,-2.1809,-2.0733,0.0,-2.126,-1.8046,-1.6769,-1.7005,-1.5166,-1.3582,-1.2361,-1.2891,-1.2616,-1.1779,-1.0894,-1.04,-0.9968,-0.8225,-0.8408,-0.9223,-0.761,-0.7692,-0.8546,-0.8546,-0.8408,-0.8208,-0.8208,-0.726,0.0,-0.6144,-0.521,-0.4006,-0.3185,-0.279,-0.2398,-0.1597,-0.1402,-0.1402,-0.1402,-0.1343,-0.1424,-0.1738,-0.1538,-0.1424,-0.1738,-0.0753,0.0194,0.0525,0.153,0.2634,0.374,0.4024,0.4498,0.5541,0.5447,0.5197,0.4861,0.4707,0.4557,0.4357,0.3696,0.3709,0.4515,0.4078,0.4287,0.5297,0.5479,0.5923,0.6674,0.6864,0.7235,0.7829,0.8477,0.8808,0.0,0.0,0.0,0.0,0.0,0.0,0.0,0.0,0.0,0.0,0.0,-1.4283,-1.5191,0.0,-1.7915,-1.9802,-2.1094,-2.2448,-2.3977,-2.4254,-2.3947,-2.302,-2.3519,-2.3876,-2.3736,-2.4342,-2.4742,-2.4742,-2.4778,-2.4812,-2.486,-2.3003,-2.1197,-1.9555,-2.11,-2.1008,-1.9018,-2.2376,-2.3794,-2.314,-2.234,-2.2116,-2.2343,-2.0237,-1.9277,-1.9125,-1.7134,-1.5649,-1.4662,-1.4125,-1.3456,-1.2724,-1.2299,-1.1606,-1.0661,-0.9495,-0.9531,-1.0016,-0.8874,-0.8967,-0.9582,-0.944,-0.9335,-0.9182,-0.8881,-0.7617,-0.6223,-0.6056,-0.4851,-0.3617,-0.3402,-0.3251,-0.299,-0.2349,-0.2214,-0.2074,-0.1654,-0.1683,-0.1795,-0.1795,-0.1795,-0.1795,-0.1795,-0.129,-0.0897,-0.0897,0.0085,0.1077,0.1758,0.2645,0.3458,0.4096,0.4357,0.4432,0.4206,0.4088,0.3704,0.3029,0.2529,0.2324,0.2498,0.2058,0.235,0.3521,0.3635,0.4139,0.4987,0.5152,0.5383,0.5675,0.6311,0.6872,0.0,0.0,0.0,0.0,0.0,0.0,0.0,-1.5157,-1.6187,-1.606,-1.6353,-1.675,-1.7162,-1.7515,-1.8548,-2.1003,-2.1548,-2.2452,-2.4725,-2.5061,-2.4729,-2.38,-2.4255,-2.4682,-2.4692,-2.5069,-2.5269,-2.5269,-2.5365,-2.5429,-2.5488,-2.5474,-2.4273,-2.1601,-2.4115,-2.4146,-2.1361,-2.3978,-2.4949,-2.4286,-2.4024,-2.3612,-2.3078,-2.2462,-2.1619,-2.0557,-1.8705,-1.7202,-1.5971,-1.4786,-1.4057,-1.3661,-1.3661,-1.2936,-1.1837,-1.1354,-1.1102,-1.0991,-1.0585,-1.0388,-1.0243,-0.9903,-0.9695,-0.9475,-0.897,-0.7601,-0.6107,-0.5859,-0.4599,-0.3457,-0.3877,-0.3956,-0.3782,-0.3281,-0.3115,-0.2856,-0.1906,-0.1767,-0.1795,-0.1795,-0.1912,-0.2001,-0.2001,-0.2118,-0.2148,-0.203,-0.1186,-0.051,-0.0398,0.0893,0.1979,0.2504,0.2916,0.3238,0.3359,0.3299,0.2941,0.2197,0.1782,0.1218,0.0535,0.0178,0.0446,0.1425,0.1455,0.2047,0.3292,0.3392,0.3623,0.3924,0.3974,0.4431,-1.249,-1.048,-0.992,-1.1809,-1.3917,-1.5586,0.0,-1.8523,-2.0693,-1.9594,-2.0827,-2.2309,-2.2958,-2.3375,-2.3844,-2.4465,-2.4854,-2.5012,-2.4851,-2.5527,-2.5715,-2.4845,-2.5082,-2.5326,-2.5377,-2.5965,-2.6333,-2.6333,-2.6658,-2.688,-2.6883,-2.6883,-2.6698,-2.6329,-2.6672,-2.6399,-2.5463,-2.5804,-2.5656,-2.498,-2.4949,-2.4902,-2.4763,-2.2941,-2.204,-2.1714,-1.834,-1.6065,-1.4773,-1.4455,-1.4267,-1.4217,-1.4217,-1.4107,-1.385,-1.2846,-1.2222,-1.1791,-1.1203,-1.0691,-1.0214,-0.9642,-0.9425,-0.9412,-0.9354,-0.9138,-0.8945,-0.8923,-0.873,-0.8343,-0.7343,-0.6794,-0.5945,-0.3856,-0.3223,-0.277,-0.1598,-0.1598,-0.1795,-0.1795,-0.227,-0.2692,-0.2692,-0.3246,-0.3434,-0.2784,-0.2611,-0.2353,-0.1757,-0.1572,-0.0549,0.183,0.162,0.1532,0.215,0.1904,0.1689,0.1597,0.0983,0.0614,0.0492,0.0184,0.0061,0.0184,0.0215,0.0859,0.2178,0.2181,0.2948,0.4328,0.4334,0.4239,-1.4333,-1.4313,-1.4955,-1.6279,-1.8274,-1.9957,-2.0148,-2.1532,-2.269,-2.2361,-2.2962,-2.374,-2.4251,-2.3537,-2.3451,-2.5317,-2.4503,-2.4204,-2.5955,-2.6242,-2.6282,-2.6394,-2.5355,-2.4523,-2.4243,-2.5805,-2.63,-2.5048,-2.6294,-2.7103,-2.7103,-2.7103,-2.7103,-2.7103,-2.7103,-2.6982,-2.6662,-2.6662,-2.6358,-2.5686,-2.5686,-2.5472,-2.5072,-2.4224,-2.3387,-2.2472,-1.9997,-1.803,-1.6498,-1.5443,-1.4801,-1.4465,-1.4465,-1.4389,-1.4217,-1.3456,-1.3029,-1.2798,-1.2226,-1.1895,-1.1621,-1.1177,-1.0967,-1.086,-1.0501,-1.0317,-1.0221,-1.004,-0.9975,-0.986,-0.9361,-0.9083,-0.8565,-0.7065,-0.6651,-0.6103,-0.4309,-0.4026,-0.3914,-0.3169,-0.3246,-0.3434,-0.3434,-0.3688,-0.3913,-0.4015,-0.3712,-0.3389,-0.3112,-0.2736,-0.1948,-0.0491,0.0123,0.0524,0.0802,0.1235,0.1513,0.1513,0.0864,0.0494,0.0494,0.037,0.0278,0.0278,0.0494,0.0864,0.1419,0.1419,0.1758,0.2435,0.2435,0.2354,-1.6049,-1.6946,-1.8005,-1.9569,-2.1174,-2.2559,-2.3244,-2.3584,-2.3838,-2.414,-2.4324,-2.4531,-2.4922,-2.3907,-2.3678,-2.5818,-2.4686,-2.4329,-2.6632,-2.6803,-2.6619,-2.6468,-2.5093,-2.3567,-2.2003,-2.456,-2.5857,-2.4787,-2.6208,-2.7103,-2.7103,-2.7103,-2.7103,-2.7103,-2.7103,-2.7103,-2.7103,-2.7103,-2.6861,-2.6388,-2.6388,-2.6114,-2.5656,-2.5472,-2.4502,-2.2908,-2.1344,-1.9732,-1.8148,-1.6386,-1.5375,-1.4971,-1.4746,-1.4587,-1.4395,-1.397,-1.3766,-1.3631,-1.2995,-1.2773,-1.2703,-1.2251,-1.203,-1.187,-1.1446,-1.1232,-1.1107,-1.0837,-1.0778,-1.0778,-1.0778,-1.074,-1.0469,-0.9525,-0.9252,-0.8675,-0.673,-0.6264,-0.5831,-0.4548,-0.4362,-0.4349,-0.3965,-0.4038,-0.4336,-0.4814,-0.4474,-0.4231,-0.4439,-0.3697,-0.2978,-0.2459,-0.1201,-0.04,-0.0368,0.0523,0.1047,0.0982,0.077,0.0648,0.0648,0.0648,0.0648,0.0648,0.0864,0.0988,0.0988,0.0988,0.105,0.1143,0.1147,0.1187,-1.726,-1.6353,-1.5832,-1.9641,-2.082,-2.16,-2.3704,-2.427,-2.4434,-2.4725,-2.5172,-2.5638,-2.5904,-2.6225,-2.6473,-2.6573,-2.6745,-2.6719,-2.6389,-2.7094,-2.671,-2.4125,-2.4109,-2.2698,-1.8648,-2.1904,-2.5053,-2.6853,-2.7056,-2.7103,-2.7103,-2.7103,-2.7103,-2.7103,-2.7103,-2.7103,-2.7103,-2.7103,-2.7103,-2.7073,-2.7073,-2.7043,-2.7012,-2.6358,-2.4963,-2.2925,-2.1564,-2.0207,-1.882,-1.6796,-1.5964,-1.5899,-1.5183,-1.4889,-1.4861,-1.4653,-1.4446,-1.4145,-1.3291,-1.2983,-1.2856,-1.2059,-1.1812,-1.1812,-1.1774,-1.1774,-1.1774,-1.1774,-1.1774,-1.1774,-1.1774,-1.1614,-1.1189,-1.0037,-0.9624,-0.9145,-0.7916,-0.7428,-0.6846,-0.5502,-0.5582,-0.544,-0.412,-0.445,-0.4865,-0.4899,-0.4899,-0.5111,-0.5755,-0.4674,-0.3751,-0.3479,-0.225,-0.1409,-0.1267,-0.0458,-0.0061,-0.0332,0.049,0.0988,0.0988,0.0988,0.0988,0.0988,0.0988,0.0988,0.0988,0.0988,0.1173,0.1483,0.1472,0.1671,-1.6134,-1.7303,-1.904,-2.0662,-2.2101,-2.3386,-2.437,-2.4439,-2.4443,-2.5069,-2.4402,-2.3685,-2.3678,-2.3159,-2.3071,-2.4117,-2.3338,-2.3722,-2.6873,-2.4963,-2.4223,-2.6887,-2.4538,-2.3317,-2.4841,-2.4539,-2.3925,-2.3121,-2.5728,-2.7297,-2.7103,-2.7103,-2.7206,-2.7415,-2.7432,-2.7552,-2.784,-2.7552,-2.7432,-2.7415,-2.7223,-2.7103,-2.7103,-2.6891,-2.6371,-2.5576,-2.3124,-2.164,-2.0777,-1.8107,-1.6591,-1.5974,-1.5746,-1.5323,-1.4889,-1.4823,-1.4757,-1.4612,-1.4044,-1.3861,-1.3803,-1.3386,-1.3262,-1.3234,-1.3099,-1.3054,-1.3054,-1.3054,-1.3054,-1.3054,-1.3054,-1.3009,-1.2806,-1.2192,-1.1993,-1.1565,-1.007,-0.9682,-0.8965,-0.6774,-0.6475,-0.6137,-0.4801,-0.4763,-0.4902,-0.4902,-0.4902,-0.4995,-0.521,-0.5053,-0.4865,-0.4773,-0.3756,-0.3071,-0.3023,-0.2179,-0.1321,-0.052,-0.0369,0.0062,0.0957,0.1204,0.1327,0.1327,0.1544,0.1675,0.166,0.166,0.1732,0.1908,0.1904,0.1991,-1.7358,-1.9147,-2.1182,-2.2107,-2.3374,-2.4434,-2.4562,-2.4599,-2.4728,-2.5113,-2.4389,-2.3475,-2.2877,-2.2178,-2.2058,-2.3202,-2.2402,-2.3081,-2.7215,-2.528,-2.4504,-2.7446,-2.5014,-2.3968,-2.6079,-2.5442,-2.4159,-2.2467,-2.4827,-2.6295,-2.628,-2.6158,-2.6636,-2.7761,-2.7809,-2.7946,-2.8186,-2.7946,-2.7809,-2.7809,-2.7586,-2.7497,-2.7497,-2.733,-2.6557,-2.5289,-2.4024,-2.2591,-2.1005,-1.9162,-1.8022,-1.7378,-1.6645,-1.5909,-1.529,-1.529,-1.5127,-1.4851,-1.4512,-1.4421,-1.4361,-1.4153,-1.4118,-1.4081,-1.3863,-1.3807,-1.3788,-1.3712,-1.3693,-1.3663,-1.3534,-1.3504,-1.3444,-1.3114,-1.3024,-1.2754,-1.1692,-1.139,-1.0664,-0.8532,-0.8014,-0.7373,-0.5575,-0.4872,-0.4536,-0.4536,-0.4656,-0.4779,-0.4872,-0.5206,-0.536,-0.5237,-0.4742,-0.4419,-0.4395,-0.3467,-0.2304,-0.1039,-0.0768,-0.0031,0.1296,0.1552,0.1681,0.1681,0.1907,0.2022,0.205,0.205,0.2067,0.2129,0.2128,0.2153,-2.0606,-2.1644,-2.2175,-2.3815,-2.4507,-2.4709,-2.4349,-2.4801,-2.5223,-2.4743,-2.49,-2.4657,-2.3211,-2.2929,-2.3057,-2.3616,-2.3649,-2.4549,-2.731,-2.7549,-2.7,-2.5792,-2.5449,-2.462,-2.284,-2.4757,-2.5761,-2.491,-2.4593,-2.4601,-2.498,-2.4656,-2.5654,-2.8171,-2.822,-2.8237,-2.8254,-2.8237,-2.822,-2.8186,-2.8186,-2.8186,-2.8186,-2.7809,-2.5767,-2.2626,-2.4408,-2.3139,-1.9854,-2.0002,-2.0024,-1.9737,-1.7797,-1.6645,-1.6039,-1.6039,-1.5583,-1.4935,-1.4746,-1.4648,-1.4578,-1.437,-1.4326,-1.4288,-1.409,-1.4024,-1.3986,-1.3769,-1.3703,-1.3613,-1.3264,-1.3174,-1.3084,-1.2754,-1.2664,-1.2664,-1.2664,-1.2393,-1.1812,-1.0528,-0.9923,-0.88,-0.6333,-0.4776,-0.392,-0.392,-0.4198,-0.4536,-0.4841,-0.5176,-0.5268,-0.4964,-0.5237,-0.5388,-0.5339,-0.4279,-0.3126,-0.1991,-0.0766,0.0495,0.1829,0.1979,0.2026,0.2026,0.2085,0.2116,0.2114,0.2114,0.2129,0.2193,0.2191,0.2204,-2.0091,-2.1993,-2.4104,-2.4549,-2.4728,-2.4856,-2.504,-2.4808,-2.4186,-2.3076,-2.1909,-2.0473,-1.8454,-1.7722,-1.8203,-2.0613,-2.0199,-2.1081,-2.5427,-2.4121,-2.3638,-2.6067,-2.5729,-2.5931,-2.7581,-2.8516,-2.8389,-2.6817,-2.7474,-2.7744,-2.7346,-2.7252,-2.7628,-2.8614,-2.8663,-2.8751,-2.9025,-2.8768,-2.8509,-2.8186,-2.8186,-2.8186,-2.8186,-2.8083,-2.7537,-2.6632,-2.615,-2.4759,-2.2801,-2.1673,-2.0232,-1.8741,-1.8005,-1.7324,-1.6742,-1.6742,-1.6321,-1.5704,-1.5654,-1.5278,-1.4795,-1.4587,-1.4521,-1.4484,-1.4267,-1.4232,-1.4132,-1.368,-1.3554,-1.3435,-1.294,-1.2844,-1.2754,-1.2414,-1.2324,-1.2272,-1.207,-1.1949,-1.1518,-1.0172,-0.8282,-0.667,-0.6027,-0.4776,-0.3979,-0.4225,-0.4422,-0.4558,-0.4539,-0.5053,-0.536,-0.5268,-0.5579,-0.5755,-0.5762,-0.5497,-0.4849,-0.358,-0.2232,-0.0874,0.0453,0.1577,0.2153,0.2153,0.2161,0.2181,0.2177,0.2177,0.2192,0.2189,0.2253,0.2267,-2.1793,-2.3317,-2.4856,-2.5021,-2.5058,-2.4882,-2.4173,-2.3659,-2.2835,-2.1169,-2.006,-1.8814,-1.6961,-1.635,-1.7075,-1.9897,-1.9758,-2.0712,-2.4834,-2.3851,-2.3687,-2.629,-2.6181,-2.693,-2.9579,-3.0309,-3.0217,-2.9173,-2.8676,-2.8196,-2.7645,-2.7504,-2.7899,-2.8991,-2.9008,-2.9111,-2.9316,-2.9111,-2.8905,-2.8682,-2.8682,-2.8682,-2.8682,-2.8528,-2.7587,-2.6103,-2.6788,-2.5707,-2.3417,-2.2871,-2.1957,-2.0739,-1.9372,-1.8329,-1.7608,-1.7608,-1.712,-1.6429,-1.6429,-1.5974,-1.5303,-1.4864,-1.4729,-1.4691,-1.4484,-1.4323,-1.4118,-1.3728,-1.3518,-1.3305,-1.286,-1.2733,-1.2655,-1.2203,-1.2117,-1.204,-1.1853,-1.1806,-1.1587,-1.0823,-0.9099,-0.7598,-0.7136,-0.5998,-0.5091,-0.4809,-0.494,-0.5048,-0.4972,-0.5311,-0.553,-0.553,-0.5843,-0.6035,-0.6035,-0.608,-0.5534,-0.4227,-0.339,-0.2059,-0.0099,0.0801,0.1552,0.2174,0.2208,0.2189,0.2185,0.2207,0.2215,0.221,0.2228,0.2271,-2.4039,-2.4699,-2.4966,-2.5315,-2.5388,-2.4889,-2.2969,-2.2306,-2.1535,-1.9503,-1.8929,-1.8398,-1.7236,-1.7144,-1.8034,-2.0464,-2.0928,-2.185,-2.4373,-2.4861,-2.5313,-2.6253,-2.6542,-2.7648,-3.0086,-3.0717,-3.1113,-3.1477,-2.9444,-2.7937,-2.738,-2.7079,-2.7648,-2.9249,-2.9316,-2.9316,-2.9316,-2.9316,-2.9316,-2.9316,-2.9316,-2.9316,-2.9299,-2.8991,-2.7115,-2.4254,-2.7107,-2.6356,-2.3129,-2.3805,-2.384,-2.3285,-2.0846,-1.9371,-1.8588,-1.8588,-1.8002,-1.7185,-1.7185,-1.6709,-1.6006,-1.529,-1.4964,-1.4805,-1.4627,-1.4345,-1.4011,-1.378,-1.3496,-1.3173,-1.2817,-1.2714,-1.2618,-1.2132,-1.2038,-1.1997,-1.1882,-1.188,-1.1819,-1.1628,-1.0694,-0.9561,-0.8432,-0.7326,-0.6274,-0.5411,-0.5519,-0.5719,-0.5784,-0.5776,-0.5768,-0.5768,-0.6021,-0.6214,-0.6214,-0.6222,-0.5712,-0.455,-0.4309,-0.3132,-0.0661,-0.0201,0.0612,0.1894,0.2102,0.2185,0.221,0.2185,0.2185,0.221,0.221,0.221,-2.3191,-2.4153,-2.5315,-2.5388,-2.5388,-2.5234,-2.4506,-2.299,-2.121,-1.9454,-1.8004,-1.7048,-1.7146,-1.7591,-1.8619,-2.0783,-2.1557,-2.1715,-2.1253,-2.361,-2.5325,-2.5152,-2.5954,-2.7857,-3.1177,-3.0083,-3.0121,-3.2441,-3.2453,-3.1574,-2.9807,-2.9678,-2.952,-2.9299,-2.9316,-2.9316,-2.9316,-2.9316,-2.9316,-2.9316,-2.9316,-2.9316,-2.9316,-2.9248,-2.8867,-2.8291,-2.8848,-2.7392,-2.4594,-2.4547,-2.3079,-2.088,-2.0166,-1.979,-1.9642,-1.9642,-1.9,-1.8178,-1.8178,-1.7554,-1.671,-1.6039,-1.5225,-1.4464,-1.446,-1.419,-1.382,-1.3369,-1.3189,-1.3027,-1.2535,-1.2399,-1.2359,-1.2264,-1.2255,-1.2247,-1.2223,-1.2215,-1.187,-1.0692,-0.9697,-0.8568,-0.7169,-0.6134,-0.5508,-0.5608,-0.5696,-0.5871,-0.6165,-0.6162,-0.6118,-0.6118,-0.6182,-0.6214,-0.6214,-0.6251,-0.6194,-0.5966,-0.4891,-0.4077,-0.3575,-0.1208,0.0209,0.0454,0.1607,0.2205,0.221,0.2205,0.2205,0.221,0.221,0.221,-2.2987,-2.3865,-2.5131,-2.5352,-2.5242,-2.4572,-2.2586,-2.1176,-1.9573,-1.7017,-1.585,-1.536,-1.5545,-1.583,-1.7046,-2.0206,-2.0994,-2.1623,-2.2799,-2.4225,-2.541,-2.5984,-2.6705,-2.7891,-2.9753,-2.9354,-2.964,-3.1165,-3.1437,-3.1326,-3.0876,-3.018,-2.9626,-2.9316,-2.9316,-2.9316,-2.9316,-2.9316,-2.9316,-2.9316,-2.9316,-2.9316,-2.9316,-2.9316,-2.9316,-2.9316,-2.9316,-2.7736,-2.5189,-2.4919,-2.3203,-2.0701,-2.0435,-2.0241,-2.012,-2.012,-1.9716,-1.9146,-1.8936,-1.8247,-1.7391,-1.69,-1.5901,-1.4889,-1.4702,-1.4179,-1.3604,-1.3322,-1.3101,-1.2881,-1.2637,-1.2548,-1.2524,-1.2467,-1.2528,-1.2548,-1.2548,-1.2706,-1.2454,-1.0992,-1.0452,-0.9568,-0.7575,-0.6903,-0.6546,-0.6161,-0.613,-0.6224,-0.639,-0.6382,-0.6353,-0.6353,-0.6353,-0.6353,-0.6353,-0.6395,-0.639,-0.639,-0.5796,-0.5108,-0.4321,-0.2208,-0.0695,0.007,0.1497,0.2187,0.2187,0.2206,0.2199,0.2199,0.2214,0.2195,-2.3216,-2.3964,-2.4893,-2.5186,-2.504,-2.3978,-2.0815,-1.9571,-1.8256,-1.5247,-1.4345,-1.4254,-1.4686,-1.4732,-1.5965,-1.9862,-2.0137,-2.0998,-2.4351,-2.4557,-2.5124,-2.7073,-2.7517,-2.8019,-2.9014,-2.9165,-2.9513,-3.0302,-3.0302,-3.0592,-3.1359,-3.0213,-2.9447,-2.9316,-2.9316,-2.9316,-2.9316,-2.9316,-2.9316,-2.9316,-2.9316,-2.9316,-2.9316,-2.9316,-2.9316,-2.9316,-2.9316,-2.7638,-2.4916,-2.4997,-2.3278,-2.0626,-2.0688,-2.0579,-2.0398,-2.0295,-2.0093,-1.9798,-1.9417,-1.8774,-1.8039,-1.7686,-1.6592,-1.5346,-1.4931,-1.4179,-1.3465,-1.3334,-1.3038,-1.2807,-1.2807,-1.2807,-1.2767,-1.2653,-1.2796,-1.2919,-1.2919,-1.3236,-1.2974,-1.1214,-1.1059,-1.0404,-0.782,-0.7559,-0.7417,-0.6619,-0.6489,-0.6489,-0.6489,-0.6489,-0.6489,-0.6489,-0.6489,-0.6489,-0.6489,-0.6489,-0.6489,-0.6489,-0.6489,-0.5979,-0.4814,-0.3345,-0.1886,-0.0416,0.0997,0.1882,0.2191,0.2207,0.2201,0.2208,0.2206,0.2236,-2.4058,-2.4706,-2.4819,-2.4856,-2.4838,-2.422,-2.1931,-2.0219,-1.858,-1.675,-1.5154,-1.4686,-1.6558,-1.6771,-1.7624,-2.063,-1.9385,-1.9184,-2.2497,-2.2803,-2.3954,-2.7349,-2.7395,-2.8431,-3.1699,-3.0091,-2.9782,-3.199,-3.1881,-3.1611,-3.141,-3.0635,-2.9937,-2.9316,-2.9316,-2.9316,-2.9316,-2.9316,-2.9316,-2.9316,-2.9316,-2.9316,-2.9316,-2.9316,-2.9316,-2.9316,-2.9316,-2.7067,-2.3489,-2.4563,-2.2674,-1.9202,-2.0276,-2.0688,-2.0629,-2.0248,-1.9956,-1.9664,-1.9346,-1.897,-1.8664,-1.8273,-1.6915,-1.5346,-1.466,-1.417,-1.372,-1.303,-1.284,-1.2807,-1.2807,-1.2807,-1.2799,-1.2783,-1.3062,-1.3349,-1.3349,-1.3602,-1.3029,-1.0287,-1.0075,-0.9425,-0.6564,-0.6376,-0.6619,-0.6522,-0.6489,-0.6489,-0.6489,-0.6489,-0.6489,-0.6489,-0.6489,-0.6489,-0.6489,-0.6489,-0.6489,-0.6489,-0.6489,-0.6422,-0.6296,-0.4882,-0.34,-0.1921,-0.0505,0.0876,0.2193,0.2184,0.221,0.2202,0.2268,0.2298,-2.1465,-2.2913,-2.4434,-2.4434,-2.4434,-2.3635,-2.0611,-1.948,-1.8218,-1.5084,-1.4129,-1.4016,-1.4573,-1.4737,-1.5584,-1.7985,-1.7616,-1.8581,-2.3037,-2.3611,-2.4991,-2.8788,-2.9264,-2.944,-2.9882,-2.925,-2.9215,-3.0159,-3.0167,-3.0479,-3.1341,-3.112,-3.0635,-2.9937,-2.9905,-2.9709,-2.9316,-2.9316,-2.9316,-2.9316,-2.9316,-2.9316,-2.9283,-2.8411,-2.8031,-2.7998,-2.7086,-2.4492,-2.096,-2.2687,-2.1053,-1.7686,-1.9358,-2.0028,-2.004,-1.9866,-1.9727,-1.9577,-1.9231,-1.8889,-1.8619,-1.8256,-1.7543,-1.667,-1.581,-1.4846,-1.4,-1.3581,-1.3128,-1.2807,-1.2807,-1.2807,-1.2873,-1.3104,-1.3433,-1.3752,-1.3949,-1.4277,-1.3908,-1.1919,-1.0962,-0.9863,-0.7874,-0.6949,-0.6489,-0.6489,-0.6489,-0.6489,-0.6489,-0.6489,-0.6489,-0.6489,-0.6489,-0.6489,-0.6489,-0.6489,-0.6489,-0.6489,-0.6489,-0.6489,-0.6489,-0.5074,-0.4031,-0.3425,-0.2065,-0.0646,0.0885,0.087,0.1341,0.2274,0.2322,0.236,-1.9975,-2.2055,-2.4375,-2.4226,-2.3827,-2.2653,-1.9508,-1.8405,-1.7091,-1.3715,-1.3262,-1.3381,-1.3064,-1.3172,-1.4004,-1.6157,-1.6616,-1.8216,-2.2573,-2.3372,-2.4915,-2.866,-2.93,-2.938,-2.9235,-2.9433,-2.9626,-2.9722,-2.9742,-3.0357,-3.163,-3.1396,-3.0809,-2.9892,-2.986,-2.9535,-2.8851,-2.8851,-2.8902,-2.8988,-2.8988,-2.8656,-2.7981,-2.7223,-2.6511,-2.5812,-2.5006,-2.2697,-1.9637,-2.1395,-2.0086,-1.7127,-1.8901,-1.9611,-1.9576,-1.9471,-1.9401,-1.9367,-1.8947,-1.8709,-1.8497,-1.8266,-1.8078,-1.7782,-1.7042,-1.5946,-1.4831,-1.4252,-1.3576,-1.3062,-1.3112,-1.3128,-1.3194,-1.3498,-1.3785,-1.4104,-1.4342,-1.467,-1.4473,-1.3079,-1.1648,-1.026,-0.8839,-0.7417,-0.6489,-0.6489,-0.6489,-0.6489,-0.6489,-0.6489,-0.6489,-0.6489,-0.6489,-0.6489,-0.6489,-0.6489,-0.6489,-0.6489,-0.6489,-0.6501,-0.6526,-0.5545,-0.4809,-0.4386,-0.3465,-0.2004,0.0,0.0,0.0794,0.2331,0.2382,0.2421,-2.0698,-2.3008,-2.4794,-2.4325,-2.2954,-2.1212,-1.9256,-1.7122,-1.5063,-1.3348,-1.3005,-1.3005,-1.3005,-1.3067,-1.3853,-1.6134,-1.6894,-1.7989,-2.0321,-2.1212,-2.2865,-2.6146,-2.6533,-2.7817,-3.1048,-3.1377,-3.1506,-3.1846,-3.1878,-3.2038,-3.2358,-3.1373,-3.0185,-2.8879,-2.8815,-2.8461,-2.7734,-2.7701,-2.7932,-2.8296,-2.8296,-2.7131,-2.4963,-2.5764,-2.4893,-2.2804,-2.3582,-2.2411,-2.0078,-2.1241,-2.0145,-1.7901,-1.914,-1.9611,-1.9541,-1.9157,-1.9028,-1.8959,-1.8538,-1.8398,-1.8398,-1.8398,-1.8398,-1.8344,-1.8153,-1.7405,-1.637,-1.4889,-1.4077,-1.3653,-1.3829,-1.3875,-1.3875,-1.3875,-1.4137,-1.4408,-1.4408,-1.467,-1.4473,-1.3079,-1.1648,-1.026,-0.8839,-0.7417,-0.6489,-0.6489,-0.6489,-0.6489,-0.6489,-0.6489,-0.6489,-0.6489,-0.6489,-0.6489,-0.6489,-0.6489,-0.6489,-0.6489,-0.6489,-0.653,-0.6586,-0.659,-0.5935,-0.4614,-0.4579,-0.3063,0.0,0.0,0.0812,0.2385,0.2454,0.2484,-1.6938,-1.8796,-2.0634,-2.0212,-1.9709,-1.8725,-1.656,-1.5639,-1.465,-1.2652,-1.2539,-1.2737,-1.256,-1.2698,-1.3753,-1.6587,-1.6969,-1.8634,-2.3516,-2.3996,-2.5217,-2.8914,-2.9643,-3.0253,-3.1322,-2.9956,-2.9722,-3.1437,-3.0066,-2.9899,-3.163,-3.0706,-2.9917,-2.9502,-2.8763,-2.8054,-2.7387,-2.7355,-2.7404,-2.7568,-2.7767,-2.6729,-2.455,-2.4598,-2.3359,-2.1192,-2.1025,-2.002,-1.8586,-1.9496,-1.8889,-1.7495,-1.8413,-1.8784,-1.8749,-1.8643,-1.8749,-1.8993,-1.8854,-1.8982,-1.9227,-1.9227,-1.9192,-1.9146,-1.9137,-1.8084,-1.673,-1.589,-1.5692,-1.5625,-1.5188,-1.5069,-1.4977,-1.4708,-1.4642,-1.4684,-1.4907,-1.4927,-1.4768,-1.4301,-1.2314,-1.0551,-1.0128,-0.8079,-0.6489,-0.6489,-0.6489,-0.6489,-0.6489,-0.6542,-0.6579,-0.6579,-0.6602,-0.659,-0.6497,-0.6546,-0.6579,-0.6579,-0.6607,-0.6651,-0.6684,-0.6684,-0.6488,-0.6054,-0.6109,-0.4602,-0.1447,-0.1478,-0.0151,0.2446,0.2222,0.2074,-1.4648,-1.666,-1.8553,-1.8083,-1.7509,-1.6678,-1.5153,-1.4262,-1.3386,-1.2143,-1.2954,-1.3548,-1.2494,-1.3336,-1.448,-1.5404,-1.7205,-1.9512,-2.2404,-2.367,-2.5325,-2.8069,-2.9578,-3.0777,-3.168,-3.0438,-3.0189,-3.1662,-3.0438,-3.0175,-3.152,-3.0211,-2.9355,-2.9228,-2.8183,-2.7305,-2.6596,-2.6596,-2.6661,-2.6839,-2.7051,-2.5945,-2.3777,-2.344,-2.2057,-1.9865,-1.937,-1.8712,0.0,-1.8558,-1.832,-1.7705,-1.8384,-1.8643,-1.8643,-1.8819,-1.9028,-1.9227,-1.9227,-1.9401,-1.9611,-1.9611,-1.9576,-1.9541,-1.9576,-1.8628,-1.7451,-1.7234,-1.7059,-1.6892,-1.655,-1.6428,-1.6292,-1.5749,-1.5562,-1.5433,-1.5356,-1.4785,-1.4294,-1.4294,-1.1966,-0.9985,-0.9985,-0.8072,-0.6592,-0.6592,-0.6592,-0.6592,-0.6592,-0.6607,-0.6643,-0.6643,-0.6658,-0.668,-0.6566,-0.6611,-0.6643,-0.6643,-0.6662,-0.6706,-0.6774,-0.6774,-0.679,-0.6827,-0.688,-0.5643,-0.3042,-0.1879,-0.0077,0.2278,0.2003,0.1802,0.0,-1.5924,-1.7845,-1.7305,-1.6064,-1.4875,-1.4621,-1.2973,0.0,-1.2103,-1.4143,-1.5156,-1.3029,-1.4999,-1.6069,-1.3494,-1.7737,-2.06,-1.8403,-2.1325,-2.3875,-2.4528,-2.7246,-2.9882,-3.1944,-3.2307,-3.239,-3.239,-3.239,-3.2262,-3.1942,-3.0027,-2.8783,-2.8389,-2.731,-2.6379,-2.5564,-2.547,-2.5644,-2.6009,-2.5944,-2.4709,-2.25,-2.2274,-2.0922,-1.8752,-1.85,-1.8398,-1.8398,-1.8433,-1.8433,-1.8468,-1.8889,-1.9028,-1.9087,-1.9471,-1.9611,-1.9645,-1.9645,-1.9645,-1.968,-1.968,-1.968,-1.968,-1.968,-1.9157,-1.8578,-1.8739,-1.8284,-1.775,-1.7898,-1.7912,-1.7743,-1.6997,-1.6817,-1.656,-1.571,-1.4429,-1.3378,-1.3172,-1.0834,-0.8868,-0.8799,-0.7622,-0.669,-0.669,-0.669,-0.669,-0.669,-0.6698,-0.6702,-0.6702,-0.6706,-0.671,-0.671,-0.6702,-0.6702,-0.6702,-0.6706,-0.6782,-0.6895,-0.6899,-0.694,-0.6986,-0.6886,-0.6052,-0.4419,-0.1406,0.0697,0.1884,0.1843,0.1598,-1.0754,0.0,-1.3624,-1.3182,-1.2799,-1.2491,0.0,-1.1876,-1.2206,-1.4689,-1.5669,-1.6053,-1.5911,-1.8202,-1.939,-1.7109,-1.9672,-2.1958,-2.2059,-2.4985,-2.651,-2.4812,-2.872,-3.1057,-2.9768,-3.1304,-3.239,-3.239,-3.239,-3.2358,-3.2294,-3.1059,-2.9946,-2.9096,-2.8009,-2.6758,-2.523,-2.4341,-2.3904,-2.3886,-2.3454,-2.1965,-1.9682,-2.058,-1.9767,-1.7614,-1.8162,-1.8398,-1.8433,-1.8749,-1.8854,-1.8889,-1.9297,-1.9471,-1.9471,-1.9576,-1.9761,-1.997,-1.997,-2.0179,-2.0457,-2.0457,-2.0457,-2.0457,-2.0457,-2.0075,-1.9715,-1.9762,-1.9877,-1.9819,-1.9243,-1.9082,-1.8909,-1.8181,-1.7869,-1.7262,-1.5349,-1.4955,-1.4301,-1.1998,-1.0558,-0.9521,-0.8903,-0.7622,-0.669,-0.669,-0.669,-0.669,-0.669,-0.6782,-0.6858,-0.6858,-0.6884,-0.6929,-0.6929,-0.6899,-0.6858,-0.6858,-0.6888,-0.6937,-0.6958,-0.6994,-0.6966,-0.699,-0.5806,-0.4384,-0.2744,-0.1135,0.042,0.1898,0.1201,0.0851,-0.9821,-1.0726,-1.1821,-1.286,-1.2264,-1.1746,-1.2936,-1.2321,-1.2388,-1.5547,-1.6191,-1.6337,-1.6748,-1.8252,-1.9074,-1.7865,-1.931,-2.1383,-2.3718,-2.5688,-2.6504,-2.5518,-2.7773,-2.9401,-2.927,-3.1453,-3.2848,-3.2848,-3.2848,-3.2785,-3.2645,-3.1658,-3.0738,-3.0004,-2.8499,-2.7016,-2.5564,-2.4452,-2.3797,-2.3595,-2.2919,-2.1823,-2.0449,-2.0751,-2.0189,-1.9026,-1.872,-1.8714,-1.8936,-1.8922,-1.9059,-1.9297,-1.968,-1.9831,-1.9866,-2.004,-2.0214,-2.0388,-2.0388,-2.0527,-2.07,-2.07,-2.07,-2.07,-2.07,-2.0561,-2.0388,-2.0388,-2.0527,-2.0596,-2.0167,-2.0063,-1.9854,-1.9076,-1.8802,-1.8114,-1.5866,-1.505,-1.4067,-1.1734,-1.0118,-0.8995,-0.8571,-0.7549,-0.6847,-0.6847,-0.6847,-0.6847,-0.6847,-0.6888,-0.6953,-0.6953,-0.6962,-0.699,-0.699,-0.6981,-0.6953,-0.6953,-0.6962,-0.699,-0.699,-0.699,-0.699,-0.699,-0.6155,-0.4562,-0.2189,-0.1804,-0.0492,0.1619,0.092,0.0496,-0.9729,-1.0267,-1.1401,-1.4132,-1.2979,-1.1884,-1.4625,-1.3373,-1.2619,-1.6133,-1.6862,-1.6959,-1.7307,-1.8414,-1.8889,-1.7731,-1.8678,-2.0825,-2.4348,-2.5398,-2.5946,-2.6263,-2.6734,-2.7792,-2.9612,-3.1973,-3.3386,-3.3386,-3.3386,-3.3292,-3.2994,-3.2156,-3.1489,-3.0975,-2.9239,-2.7662,-2.6263,-2.4905,-2.4024,-2.3632,-2.2799,-2.2252,-2.2005,-2.127,-2.095,-2.0869,-1.9512,-1.9187,-1.9576,-1.9164,-1.9267,-1.9715,-2.0075,-2.0179,-2.0214,-2.0561,-2.07,-2.07,-2.07,-2.07,-2.07,-2.07,-2.07,-2.07,-2.07,-2.07,-2.07,-2.07,-2.07,-2.07,-2.07,-2.07,-2.0527,-1.9854,-1.9669,-1.9006,-1.6538,-1.5079,-1.365,-1.1635,-0.9729,-0.843,-0.8321,-0.7783,-0.7349,-0.7349,-0.724,-0.7167,-0.7167,-0.7063,-0.699,-0.699,-0.699,-0.699,-0.699,-0.699,-0.699,-0.699,-0.699,-0.699,-0.699,-0.699,-0.699,-0.699,-0.699,-0.5446,-0.2297,-0.2754,-0.1536,0.1189,0.0721,0.0338,-0.9495,-1.0237,-1.1566,-1.4152,-1.312,-1.2165,-1.4902,-1.3796,-1.3628,-1.8784,-1.9844,-2.0038,-2.0711,-2.4605,-2.572,-1.9562,-2.1186,-2.3623,-2.4814,-2.7142,-2.8147,-2.6518,-2.982,-3.162,-2.9954,-3.1973,-3.3386,-3.3386,-3.3386,-3.3386,-3.3323,-3.317,-3.2642,-3.1684,-3.1333,-2.982,-2.6973,-2.4362,-2.2535,-2.1451,-2.0564,-1.9995,-1.9775,-1.9839,-1.9866,-1.9831,-1.9577,-1.9507,-1.9611,-1.9819,-1.9935,-2.0075,-2.0457,-2.0596,-2.0631,-2.0665,-2.07,-2.07,-2.07,-2.07,-2.07,-2.07,-2.07,-2.07,-2.07,-2.07,-2.07,-2.07,-2.07,-2.07,-2.07,-2.07,-2.0665,-2.0561,-2.0527,-1.9529,-1.5945,-1.5486,-1.453,-1.0449,-0.9915,-0.9915,-0.923,-0.9013,-0.8941,-0.8941,-0.8357,-0.7923,-0.7923,-0.7385,-0.699,-0.699,-0.699,-0.699,-0.699,-0.699,-0.699,-0.699,-0.699,-0.699,-0.699,-0.699,-0.699,-0.699,-0.699,-0.561,-0.2791,-0.3196,-0.1988,0.0711,0.0299,0.0075,-0.9653,-1.0454,-1.2107,-1.6031,-1.4455,-1.3249,-1.8292,-1.5961,-1.4533,-2.0818,-1.9354,-1.7808,-2.0692,-2.2494,-2.3079,-2.1631,-2.519,-2.7937,-2.7318,-2.8514,-2.9155,-2.8291,-3.0032,-3.0882,-2.9905,-3.1973,-3.3386,-3.3386,-3.3386,-3.3386,-3.3386,-3.3386,-3.3163,-3.2686,-3.1369,-2.9673,-2.7668,-2.466,-2.2572,-2.1496,-2.0612,-2.0082,-1.9862,-2.0106,-2.0179,-2.019,-1.9885,-1.992,-2.019,-2.0056,-2.0172,-2.0422,-2.0631,-2.07,-2.07,-2.07,-2.07,-2.07,-2.07,-2.07,-2.07,-2.07,-2.07,-2.07,-2.07,-2.07,-2.07,-2.07,-2.07,-2.07,-2.07,-2.07,-2.07,-2.07,-2.07,-1.9773,-1.6333,-1.5839,-1.4893,-1.0737,-0.9879,-0.959,-0.8796,-0.8326,-0.8073,-0.8073,-0.7747,-0.7494,-0.7494,-0.7204,-0.699,-0.699,-0.699,-0.699,-0.699,-0.699,-0.699,-0.699,-0.699,-0.699,-0.699,-0.699,-0.699,-0.699,-0.699,-0.564,-0.2894,-0.3299,-0.2091,0.0595,0.0185,0.0,-0.9859,-1.0674,-1.247,-1.7022,-1.5269,-1.4207,-2.1169,-1.7792,-1.5189,-2.2207,-1.9413,-1.6967,-2.1199,-2.0693,-2.0736,-2.408,-2.8259,-3.0851,-3.0088,-3.0235,-3.0466,-3.0633,-3.0508,-3.0466,-3.0633,-3.2334,-3.3386,-3.3386,-3.3386,-3.3386,-3.3386,-3.3386,-3.326,-3.2924,-3.1061,-2.923,-2.7388,-2.4978,-2.3128,-2.1858,-2.1077,-2.0603,-2.041,-2.0616,-2.07,-2.0676,-2.0277,-2.0325,-2.0676,-2.0265,-2.0337,-2.07,-2.07,-2.07,-2.07,-2.07,-2.07,-2.07,-2.07,-2.07,-2.07,-2.07,-2.07,-2.07,-2.07,-2.07,-2.07,-2.07,-2.07,-2.07,-2.07,-2.07,-2.07,-2.07,-2.0422,-1.9425,-1.6695,-1.5813,-1.461,-1.1384,-1.0131,-0.9374,-0.8755,-0.8037,-0.7534,-0.7534,-0.7385,-0.724,-0.724,-0.7099,-0.699,-0.699,-0.699,-0.699,-0.699,-0.699,-0.699,-0.699,-0.699,-0.699,-0.699,-0.699,-0.699,-0.699,-0.6736,-0.5411,-0.303,-0.3074,-0.1868,0.0444,0.0147,0.0,-0.9973,-1.0762,-1.2289,-1.5279,-1.4345,-1.4467,-2.1322,-1.7995,-1.5481,-2.2586,-2.2381,-2.1824,-2.464,-2.4175,-2.4269,-2.7113,-2.8608,-3.0132,-3.2315,-3.2922,-3.31,-3.3138,-3.3119,-3.3151,-3.3138,-3.3304,-3.3386,-3.3386,-3.3386,-3.3386,-3.3386,-3.3386,-3.2797,-3.1483,-3.1286,-2.9277,-2.5267,-2.4983,-2.3868,-2.1812,-2.1057,-2.0688,-2.0676,-2.0688,-2.07,-2.07,-2.0664,-2.0664,-2.07,-2.0664,-2.0676,-2.07,-2.07,-2.07,-2.07,-2.07,-2.07,-2.07,-2.07,-2.07,-2.07,-2.07,-2.07,-2.07,-2.07,-2.07,-2.07,-2.07,-2.07,-2.07,-2.07,-2.07,-2.07,-2.07,-1.9611,-1.8121,-1.6449,-1.5008,-1.3567,-1.1864,-1.093,-1.0383,-1.0347,-0.9663,-0.9121,-0.9121,-0.8502,-0.8032,-0.8032,-0.7421,-0.699,-0.699,-0.699,-0.699,-0.699,-0.699,-0.699,-0.699,-0.699,-0.699,-0.699,-0.699,-0.699,-0.699,-0.5898,-0.4699,-0.3464,-0.2369,-0.1167,0.0037,0.0,0.0,-1.051,-1.1504,-1.326,-1.7143,-1.5963,-1.5492,-2.1671,-1.9452,-1.7943,-2.4648,-2.2841,-2.0424,-2.161,-2.4134,-2.6419,-2.7681,-2.9739,-3.1627,-3.3024,-3.3323,-3.3386,-3.3386,-3.3386,-3.3386,-3.3386,-3.3386,-3.3386,-3.3386,-3.3386,-3.3019,-3.2142,-3.211,-3.1451,-3.003,-2.9132,-2.7718,-2.5685,-2.4351,-2.3051,-2.1794,-2.1047,-2.07,-2.07,-2.07,-2.07,-2.07,-2.07,-2.07,-2.07,-2.07,-2.07,-2.07,-2.07,-2.07,-2.07,-2.07,-2.07,-2.07,-2.07,-2.07,-2.07,-2.07,-2.07,-2.07,-2.07,-2.07,-2.07,-2.07,-2.07,-2.07,-2.07,-2.07,-2.07,-2.07,-1.9506,-1.7981,-1.6413,-1.4937,-1.3309,-1.1283,-1.0671,-1.0167,-0.9188,-0.8755,-0.8398,-0.7928,-0.7602,-0.7421,-0.7421,-0.7172,-0.699,-0.699,-0.699,-0.699,-0.699,-0.699,-0.699,-0.699,-0.699,-0.699,-0.699,-0.699,-0.666,-0.5898,-0.5422,-0.426,-0.2368,-0.1932,-0.113,0.0,0.0,0.0,-1.1015,-1.1926,-1.358,-1.7176,-1.6144,-1.5754,-2.1578,-2.0266,-1.9535,-2.5506,-2.4561,-2.2528,-2.1984,-2.4984,-2.7631,-2.8006,-2.9928,-3.1847,-3.3202,-3.3386,-3.3386,-3.3386,-3.3386,-3.3386,-3.3386,-3.3386,-3.3228,-3.2765,-3.2734,-3.211,-3.071,-3.0646,-2.9997,-2.8592,-2.7618,-2.6437,-2.5109,-2.3631,-2.2413,-2.1462,-2.0943,-2.07,-2.07,-2.07,-2.07,-2.07,-2.07,-2.07,-2.07,-2.07,-2.07,-2.07,-2.07,-2.07,-2.07,-2.07,-2.07,-2.07,-2.07,-2.07,-2.07,-2.07,-2.07,-2.07,-2.07,-2.07,-2.07,-2.07,-2.07,-2.07,-2.07,-2.0353,-1.9982,-2.0017,-1.8509,-1.6761,-1.5739,-1.4316,-1.2784,-1.1204,-1.0703,-1.0161,-0.9044,-0.8646,-0.8218,-0.7457,-0.7349,-0.7276,-0.7027,-0.699,-0.699,-0.699,-0.699,-0.699,-0.699,-0.699,-0.699,-0.699,-0.699,-0.699,-0.699,-0.6624,-0.6043,-0.5204,-0.4478,-0.3314,-0.1713,-0.1349,-0.0766,0.0,0.0,0.0,-1.1387,-1.1954,-1.2913,-1.4617,-1.4279,-1.505,-2.0856,-2.0217,-1.9818,-2.4701,-2.8103,-2.9498,-2.7293,-2.7356,-2.7918,-2.8403,-2.8954,-3.0275,-3.2993,-3.3386,-3.3386,-3.3386,-3.3386,-3.3386,-3.3386,-3.3386,-3.2797,-3.1419,-3.129,-3.0678,-2.9248,-2.9182,-2.8575,-2.7235,-2.712,-2.5749,-2.2928,-2.2893,-2.2173,-2.07,-2.07,-2.07,-2.07,-2.07,-2.07,-2.07,-2.07,-2.07,-2.07,-2.07,-2.07,-2.07,-2.07,-2.07,-2.07,-2.07,-2.07,-2.07,-2.07,-2.07,-2.07,-2.07,-2.07,-2.07,-2.07,-2.07,-2.07,-2.07,-2.07,-2.07,-2.07,-1.9541,-1.843,-1.8539,-1.6299,-1.4124,-1.4256,-1.2993,-1.1793,-1.1793,-1.1092,-1.0491,-1.0491,-0.9849,-0.9049,-0.8213,-0.8104,-0.7856,-0.7099,-0.699,-0.699,-0.699,-0.699,-0.699,-0.699,-0.699,-0.699,-0.699,-0.699,-0.699,-0.699,-0.5822,-0.5204,-0.5168,-0.2877,-0.1713,-0.1677,-0.0547,0.0,0.0,0.0,0.0,-1.2601,-1.2915,-1.3402,-1.5994,-1.6067,-1.6306,-1.929,-2.0512,-2.2171,-2.6023,-2.7721,-2.7747,-2.5315,-2.8047,-3.0095,-2.843,-3.0017,-3.1774,-3.2594,-3.2708,-3.2804,-3.3007,-3.3038,-3.3133,-3.3386,-3.2492,-3.1739,-3.1322,-3.0387,-2.9215,-2.78,-2.7701,-2.712,-2.5779,-2.5712,-2.5037,-2.3679,-2.3679,-2.2928,-2.1462,-2.1462,-2.1185,-2.07,-2.07,-2.07,-2.07,-2.07,-2.07,-2.07,-2.07,-2.07,-2.07,-2.07,-2.07,-2.07,-2.07,-2.07,-2.07,-2.07,-2.07,-2.07,-2.07,-2.07,-2.07,-2.07,-2.07,-2.07,-2.07,-2.07,-2.07,-2.07,-1.8751,-1.7067,-1.8206,-1.6164,-1.401,-1.4115,-1.2919,-1.1827,-1.1972,-1.1811,-1.1445,-1.0891,-1.0595,-0.9931,-0.8521,-0.8328,-0.8007,-0.7107,-0.699,-0.699,-0.699,-0.699,-0.699,-0.699,-0.699,-0.699,-0.699,-0.699,-0.699,-0.699,-0.5822,-0.4841,-0.4005,-0.2477,-0.1312,-0.0511,-0.0182,0.0,0.0,0.0,0.0,-1.3558,-1.3758,-1.4278,-1.7092,-1.7007,-1.7054,-2.0128,-2.19,-2.384,-2.7171,-2.8574,-2.8758,-2.7202,-2.9541,-3.1235,-2.9775,-3.0579,-3.1603,-3.2294,-3.1923,-3.1841,-3.2594,-3.2339,-3.216,-3.2352,-3.1194,-3.0207,-2.9687,-2.8854,-2.7767,-2.6368,-2.6301,-2.5947,-2.5119,-2.5217,-2.4901,-2.4168,-2.4294,-2.3762,-2.2579,-2.2265,-2.188,-2.1424,-2.0936,-2.07,-2.07,-2.07,-2.07,-2.07,-2.07,-2.07,-2.07,-2.07,-2.07,-2.07,-2.07,-2.07,-2.07,-2.07,-2.07,-2.07,-2.07,-2.07,-2.07,-2.07,-2.07,-2.07,-2.07,-2.07,-2.0561,-1.9959,-1.7935,-1.6362,-1.7379,-1.5266,-1.3104,-1.3278,-1.2494,-1.1877,-1.207,-1.205,-1.1844,-1.1457,-1.1388,-1.0816,-0.9097,-0.8269,-0.7632,-0.7071,-0.699,-0.699,-0.699,-0.699,-0.699,-0.699,-0.699,-0.699,-0.699,-0.699,-0.699,-0.699,-0.5422,-0.4187,-0.3496,-0.1868,-0.0697,0.0,0.0,0.0,0.0,0.0,0.0,-1.4305,-1.453,-1.5287,-1.7702,-1.734,-1.7662,-2.2535,-2.4015,-2.5222,-2.8301,-3.0024,-3.1029,-3.1327,-3.1313,-3.1313,-3.1621,-3.0584,-3.0275,-3.1712,-3.0807,-3.0549,-3.1987,-3.118,-3.0581,-3.0743,-2.9672,-2.8427,-2.7153,-2.6986,-2.6401,-2.5153,-2.5115,-2.513,-2.513,-2.5403,-2.5218,-2.456,-2.4841,-2.4628,-2.3883,-2.3158,-2.2765,-2.2681,-2.1377,-2.0773,-2.0773,-2.0773,-2.0773,-2.0773,-2.0773,-2.0773,-2.0773,-2.0773,-2.0773,-2.0773,-2.0749,-2.0736,-2.0736,-2.0712,-2.07,-2.07,-2.07,-2.07,-2.07,-2.07,-2.07,-2.07,-2.07,-2.07,-2.0353,-1.8797,-1.7268,-1.6108,-1.6162,-1.3906,-1.1857,-1.2043,-1.1932,-1.1877,-1.207,-1.1959,-1.1918,-1.2098,-1.2132,-1.1525,-0.9778,-0.8075,-0.699,-0.699,-0.699,-0.699,-0.699,-0.699,-0.699,-0.699,-0.699,-0.699,-0.699,-0.699,-0.6954,-0.6845,-0.4696,-0.3496,-0.3496,-0.118,0.0,0.0,0.0,0.0,0.0,0.0,0.0,-1.5082,-1.51,-1.5027,-1.642,-1.8061,-2.0127,-2.3258,-2.5581,-2.7778,-3.0295,-2.8991,-2.8226,-3.0896,-3.0487,-2.9772,-2.9837,-2.9591,-2.9117,-2.8345,-2.7966,-2.8427,-3.016,-2.9132,-2.8838,-3.0272,-2.8443,-2.7037,-2.6737,-2.5965,-2.539,-2.5119,-2.5286,-2.5432,-2.5432,-2.574,-2.581,-2.567,-2.5728,-2.537,-2.4664,-2.4486,-2.4096,-2.3479,-2.1985,-2.1341,-2.1341,-2.1341,-2.1341,-2.1341,-2.1341,-2.1341,-2.1341,-2.1341,-2.1341,-2.1317,-2.1087,-2.1015,-2.0978,-2.0773,-2.07,-2.07,-2.07,-2.07,-2.07,-2.07,-2.07,-2.07,-2.07,-2.07,-2.0353,-1.8797,-1.7268,-1.5823,-1.4705,-1.3013,-1.1665,-1.1813,-1.182,-1.1877,-1.207,-1.2135,-1.2203,-1.2237,-1.2332,-1.1778,-0.9949,-0.8154,-0.699,-0.699,-0.699,-0.699,-0.699,-0.699,-0.699,-0.699,-0.699,-0.699,-0.699,-0.699,-0.6587,-0.5644,-0.426,-0.3496,-0.3496,-0.1206,0.0,0.0,0.0,0.0,0.0,0.0,0.0,-1.5066,-1.5347,-1.5633,-1.7154,-1.9312,-2.1678,-2.3996,-2.5559,-2.7231,-2.9862,-2.9506,-2.9267,-3.1061,-3.026,-2.9297,-2.9297,-2.869,-2.7982,-2.7221,-2.7105,-2.7437,-2.8411,-2.7387,-2.6955,-2.7916,-2.6404,-2.5427,-2.5581,-2.5105,-2.4883,-2.5086,-2.5359,-2.55,-2.55,-2.6003,-2.6252,-2.6252,-2.6413,-2.6307,-2.5898,-2.5503,-2.4733,-2.3575,-2.251,-2.1822,-2.151,-2.151,-2.151,-2.151,-2.151,-2.151,-2.151,-2.151,-2.151,-2.1498,-2.1353,-2.1293,-2.1281,-2.1135,-2.1087,-2.1087,-2.1087,-2.1002,-2.0894,-2.0894,-2.0809,-2.0561,-1.982,-2.0133,-1.9994,-1.7022,-1.6176,-1.5531,-1.3317,-1.2187,-1.1604,-1.1678,-1.1692,-1.1739,-1.1925,-1.2013,-1.2094,-1.2207,-1.1579,-1.0738,-0.9744,-0.8103,-0.699,-0.699,-0.699,-0.699,-0.699,-0.699,-0.699,-0.699,-0.699,-0.699,-0.699,-0.699,-0.6442,-0.5241,-0.4114,-0.3241,-0.2659,-0.0917,0.0,0.0,0.0,0.0,0.0,0.0,0.0,-1.4532,-1.5397,-1.6521,-1.844,-2.042,-2.2424,-2.4392,-2.519,-2.6154,-2.846,-2.9852,-3.0746,-3.0972,-2.9885,-2.8937,-2.8937,-2.7685,-2.6655,-2.6422,-2.6388,-2.6488,-2.6722,-2.5734,-2.5143,-2.5379,-2.4481,-2.402,-2.4292,-2.4428,-2.466,-2.5072,-2.5398,-2.5602,-2.5661,-2.6281,-2.6588,-2.6588,-2.6852,-2.6983,-2.6983,-2.6312,-2.5249,-2.3796,-2.3209,-2.245,-2.1655,-2.1655,-2.1655,-2.1655,-2.1655,-2.1655,-2.1655,-2.1655,-2.1655,-2.1643,-2.1595,-2.1583,-2.1583,-2.1534,-2.151,-2.151,-2.151,-2.1353,-2.1172,-2.1172,-2.1015,-2.0519,-1.8953,-1.9421,-1.941,-1.5069,-1.4855,-1.5096,-1.2302,-1.1617,-1.1611,-1.159,-1.1584,-1.1617,-1.1732,-1.178,-1.184,-1.207,-1.0638,-0.9487,-0.9487,-0.8071,-0.699,-0.699,-0.699,-0.699,-0.699,-0.699,-0.699,-0.699,-0.699,-0.7027,-0.7099,-0.7099,-0.6478,-0.5059,-0.4112,-0.2914,-0.1422,-0.0479,0.0,0.0,0.0,0.0,0.0,0.0,0.0,-1.3565,-1.521,-1.7116,-1.8597,-2.0296,-2.203,-2.3809,-2.5929,-2.75,-2.7391,-2.7552,-2.8048,-2.933,-2.8394,-2.7387,-2.7387,-2.6188,-2.4839,-2.3631,-2.3461,-2.389,-2.5143,-2.4074,-2.3734,-2.494,-2.4108,-2.3509,-2.3543,-2.4122,-2.4658,-2.5,-2.5609,-2.6076,-2.6369,-2.6735,-2.6925,-2.6925,-2.6969,-2.6983,-2.6983,-2.6874,-2.6363,-2.5456,-2.4676,-2.3545,-2.2199,-2.2199,-2.2199,-2.2199,-2.2199,-2.2199,-2.2199,-2.2199,-2.2199,-2.2163,-2.1933,-2.1861,-2.1825,-2.1595,-2.151,-2.151,-2.151,-2.1486,-2.1462,-2.1462,-2.1438,-2.1043,-1.9387,-1.9062,-1.8471,-1.5106,-1.4371,-1.4074,-1.2195,-1.1766,-1.1732,-1.1647,-1.1584,-1.1626,-1.1611,-1.1712,-1.184,-1.207,-1.0638,-0.9487,-0.9487,-0.8071,-0.699,-0.699,-0.699,-0.699,-0.699,-0.699,-0.699,-0.699,-0.699,-0.7135,-0.7494,-0.753,-0.6547,-0.4327,-0.4109,-0.2839,-0.0292,-0.0073,0.0,0.0,0.0,0.0,0.0,0.0,0.0,-1.434,-1.551,-1.6794,-1.9523,-2.018,-2.0841,-2.3743,-2.437,-2.4656,-2.5722,-2.5935,-2.6355,-2.7784,-2.6888,-2.5935,-2.5935,-2.5398,-2.4501,-2.3099,-2.3563,-2.4006,-2.3836,-2.327,-2.3133,-2.3768,-2.3406,-2.3201,-2.3406,-2.3713,-2.4126,-2.4642,-2.5353,-2.5846,-2.6164,-2.6714,-2.6983,-2.6983,-2.6983,-2.6983,-2.6983,-2.6765,-2.6129,-2.5125,-2.4536,-2.3772,-2.2893,-2.2483,-2.2296,-2.2296,-2.2296,-2.2296,-2.2296,-2.2296,-2.2296,-2.2284,-2.2163,-2.2127,-2.2115,-2.1994,-2.1958,-2.1958,-2.1958,-2.1861,-2.1728,-2.1728,-2.0966,-1.9776,-1.8191,-1.7716,-1.6948,-1.386,-1.3675,-1.3911,-1.2342,-1.1959,-1.1945,-1.1884,-1.1735,-1.1584,-1.1584,-1.1638,-1.1735,-1.1803,-1.048,-0.9383,-0.9383,-0.8033,-0.699,-0.699,-0.699,-0.699,-0.699,-0.699,-0.699,-0.699,-0.699,-0.7172,-0.7566,-0.7602,-0.6547,-0.4182,-0.4109,-0.2803,-0.0036,0.0,0.0,0.0,0.0,0.0,0.0,0.0,0.0,-1.4564,-1.5176,-1.5811,-1.9178,-1.9166,-1.9189,-2.2453,-2.2391,-2.2129,-2.3809,-2.4612,-2.5196,-2.5886,-2.5465,-2.5008,-2.5008,-2.4704,-2.4108,-2.3065,-2.3802,-2.4074,-2.303,-2.2893,-2.2893,-2.2893,-2.2893,-2.2996,-2.3236,-2.3338,-2.3674,-2.4338,-2.4996,-2.552,-2.5883,-2.6416,-2.6692,-2.6692,-2.6692,-2.6692,-2.6692,-2.6276,-2.5616,-2.472,-2.4105,-2.3674,-2.3364,-2.2632,-2.2296,-2.2296,-2.2296,-2.2296,-2.2296,-2.2296,-2.2296,-2.2296,-2.2184,-2.2147,-2.2109,-2.2035,-2.1997,-2.1997,-2.1997,-2.1866,-2.1711,-2.1711,-2.0379,-1.8586,-1.7064,-1.6323,-1.5403,-1.2726,-1.2951,-1.3566,-1.2421,-1.2159,-1.2145,-1.2111,-1.1857,-1.1638,-1.1638,-1.1611,-1.1584,-1.1584,-1.0317,-0.9302,-0.9302,-0.8,-0.699,-0.699,-0.699,-0.699,-0.699,-0.699,-0.699,-0.699,-0.699,-0.7172,-0.7566,-0.7602,-0.6507,-0.4037,-0.3964,-0.2621,0.0255,0.0292,0.0219,0.0,0.0,0.0,0.0,0.0,0.0073,-1.3183,-1.3662,-1.4181,-1.6227,-1.6652,-1.7016,-1.8878,-2.0635,-2.1857,-2.1792,-2.3502,-2.4602,-2.3359,-2.4142,-2.5008,-2.5008,-2.387,-2.2996,-2.2893,-2.2962,-2.2996,-2.2893,-2.2893,-2.2893,-2.2893,-2.2893,-2.2893,-2.2928,-2.3236,-2.3653,-2.4276,-2.4685,-2.5191,-2.5794,-2.5822,-2.5873,-2.5873,-2.5873,-2.5873,-2.5873,-2.5456,-2.5235,-2.5125,-2.3957,-2.3401,-2.3364,-2.2632,-2.2296,-2.2296,-2.2296,-2.2296,-2.2296,-2.2296,-2.2296,-2.2259,-2.1885,-2.1735,-2.166,-2.1297,-2.1146,-2.1146,-2.1146,-2.1135,-2.1124,-2.1124,-1.9951,-1.8298,-1.6666,-1.537,-1.403,-1.2358,-1.2243,-1.2556,-1.2349,-1.2277,-1.2237,-1.2132,-1.1932,-1.1786,-1.1786,-1.1671,-1.1584,-1.1584,-1.0317,-0.9302,-0.9302,-0.8,-0.699,-0.699,-0.699,-0.699,-0.699,-0.699,-0.699,-0.699,-0.699,-0.7172,-0.7566,-0.7602,-0.6362,-0.3635,-0.3526,-0.2074,0.1058,0.1131,0.0766,0.0,0.0,0.0,0.0,0.0,0.0219,-1.2991,-1.2905,-1.3067,-1.6419,-1.6279,-1.5949,-1.8398,-1.9927,-2.0696,-2.006,-2.2308,-2.3837,-2.2058,-2.2775,-2.3631,-2.3631,-2.3236,-2.2893,-2.2893,-2.2893,-2.2893,-2.2893,-2.2893,-2.2893,-2.2893,-2.3099,-2.3133,-2.2928,-2.2855,-2.3166,-2.3927,-2.3955,-2.4391,-2.5382,-2.591,-2.6312,-2.6582,-2.6056,-2.6056,-2.6546,-2.591,-2.5309,-2.4794,-2.4105,-2.3414,-2.2669,-2.2408,-2.2296,-2.2296,-2.2296,-2.2296,-2.2296,-2.2296,-2.2147,-2.1885,-2.1735,-2.1548,-2.1297,-2.1146,-2.1109,-2.1146,-2.1409,-2.1473,-2.1522,-2.1773,-1.9973,-1.7721,-1.7112,-1.5135,-1.2997,-1.2424,-1.2385,-1.2488,-1.244,-1.2427,-1.2413,-1.2359,-1.2149,-1.1979,-1.1979,-1.1857,-1.1719,-1.1719,-1.0806,-0.9879,-0.9374,-0.8398,-0.753,-0.7063,-0.699,-0.699,-0.699,-0.699,-0.699,-0.699,-0.699,-0.7172,-0.7566,-0.7602,-0.6362,-0.3599,-0.349,-0.2001,0.1131,0.1204,0.1058,0.0766,0.0766,0.0766,0.0766,0.0766,0.0839,-1.2286,-1.1972,-1.1976,-1.5101,-1.4923,-1.4617,-1.6961,-1.8725,-1.9745,-1.9407,-2.1815,-2.3601,-2.2296,-2.2741,-2.3201,-2.2928,-2.2893,-2.2893,-2.2893,-2.2996,-2.3065,-2.3065,-2.3201,-2.327,-2.327,-2.3475,-2.3509,-2.327,-2.3093,-2.3338,-2.414,-2.3991,-2.4356,-2.5382,-2.591,-2.6312,-2.6582,-2.6056,-2.6056,-2.6582,-2.591,-2.5309,-2.4794,-2.4105,-2.3414,-2.2669,-2.2408,-2.2296,-2.2296,-2.2296,-2.2221,-2.2109,-2.2259,-2.2035,-2.1698,-2.1698,-2.1522,-2.1297,-2.1146,-2.1109,-2.1146,-2.1409,-2.1522,-2.1435,-2.1161,-1.917,-1.6884,-1.6312,-1.4291,-1.2308,-1.2308,-1.2385,-1.2501,-1.2501,-1.2501,-1.2501,-1.2501,-1.2311,-1.2179,-1.2179,-1.2013,-1.1911,-1.1911,-1.1201,-1.0359,-0.9482,-0.8707,-0.7892,-0.7103,-0.699,-0.699,-0.699,-0.699,-0.699,-0.699,-0.699,-0.7099,-0.7385,-0.7385,-0.6108,-0.3201,-0.3092,-0.1637,0.1495,0.1568,0.1568,0.1568,0.1314,0.1204,0.1204,0.1204,0.1277,0.0,0.0,0.0,-1.2035,-1.2465,-1.2969,-1.4361,-1.6884,-1.9125,-1.978,-2.2066,-2.3964,-2.3944,-2.3972,-2.3782,-2.303,-2.2928,-2.2928,-2.2928,-2.3201,-2.3406,-2.3406,-2.3747,-2.4,-2.4,-2.4,-2.4,-2.4,-2.3986,-2.4252,-2.4883,-2.4939,-2.5219,-2.5808,-2.58,-2.58,-2.5836,-2.58,-2.58,-2.5836,-2.5419,-2.5235,-2.5162,-2.3994,-2.3401,-2.3364,-2.2632,-2.2296,-2.2296,-2.2296,-2.2072,-2.1773,-2.2147,-2.2035,-2.1698,-2.1698,-2.1698,-2.1623,-2.1259,-2.1109,-2.1109,-2.1109,-2.1109,-2.0797,-1.9153,-1.7502,-1.5901,-1.4222,-1.2842,-1.1921,-1.1921,-1.2192,-1.2501,-1.2501,-1.2501,-1.2501,-1.2501,-1.2393,-1.2298,-1.2298,-1.2213,-1.2104,-1.2104,-1.1463,-1.0598,-0.9656,-0.8897,-0.8085,-0.7116,-0.6994,-0.6994,-0.6994,-0.699,-0.699,-0.699,-0.699,-0.699,-0.699,-0.699,-0.5604,-0.2438,-0.2293,-0.0837,0.2261,0.2299,0.2299,0.2299,0.1569,0.1241,0.1241,0.1241,0.146,-1.0773,0.0,0.0,0.0,0.0,0.0,-1.403,-1.5928,-1.759,-1.7968,-2.0581,-2.2758,-2.2697,-2.3604,-2.4224,-2.3782,-2.3679,-2.3679,-2.3679,-2.3782,-2.3816,-2.3816,-2.3918,-2.4,-2.4,-2.4224,-2.4272,-2.402,-2.3823,-2.4062,-2.4869,-2.5296,-2.5763,-2.6239,-2.5946,-2.6093,-2.6655,-2.6093,-2.6093,-2.6655,-2.6239,-2.591,-2.5616,-2.4683,-2.3944,-2.3364,-2.2632,-2.2296,-2.2296,-2.2296,-2.2221,-2.2147,-2.2259,-2.2035,-2.1698,-2.1698,-2.151,-2.1259,-2.1146,-2.1109,-2.1146,-2.1447,-2.1522,-2.1285,-1.9898,-1.8337,-1.6732,-1.5059,-1.3491,-1.2347,-1.2347,-1.2424,-1.2501,-1.2501,-1.2501,-1.2501,-1.2501,-1.2474,-1.244,-1.244,-1.2325,-1.223,-1.223,-1.1985,-1.1264,-0.9878,-0.9457,-0.8813,-0.7414,-0.7129,-0.7088,-0.7088,-0.7031,-0.699,-0.699,-0.699,-0.699,-0.699,-0.699,-0.5604,-0.2438,-0.2314,-0.0812,0.2328,0.2387,0.2361,0.2361,0.2134,0.2006,0.2006,0.2061,0.2118,-1.0819,-1.0794,-1.0967,-1.2042,0.0,0.0,-1.3482,-1.5655,-1.7583,-1.7849,-2.0762,-2.3019,-2.2202,-2.2928,-2.3544,-2.3346,-2.3328,-2.3497,-2.395,-2.4122,-2.4204,-2.4204,-2.4374,-2.4476,-2.4476,-2.4645,-2.4679,-2.4476,-2.4304,-2.4562,-2.5327,-2.5969,-2.6399,-2.6655,-2.6422,-2.6546,-2.6983,-2.6546,-2.6546,-2.6983,-2.6765,-2.6546,-2.6276,-2.5456,-2.483,-2.4327,-2.3228,-2.2781,-2.2744,-2.2446,-2.2184,-2.2072,-2.2221,-2.2035,-2.1735,-2.1885,-2.181,-2.1585,-2.1585,-2.1585,-2.1623,-2.1885,-2.1461,-2.0624,-1.9245,-1.7645,-1.6007,-1.4368,-1.3228,-1.2501,-1.2501,-1.2501,-1.2501,-1.2501,-1.2501,-1.2501,-1.2501,-1.2501,-1.2501,-1.2501,-1.2433,-1.2379,-1.2379,-1.2038,-1.1315,-0.9969,-0.9467,-0.8771,-0.7457,-0.7215,-0.7182,-0.7182,-0.7137,-0.7142,-0.7142,-0.7142,-0.7142,-0.7142,-0.7142,-0.5692,-0.2476,-0.2346,-0.086,0.2322,0.2414,0.2386,0.2386,0.2351,0.2334,0.2334,0.2388,0.2406,-1.1013,-1.0943,-1.0978,-1.1749,-1.1912,0.0,-1.2905,-1.5465,-1.7834,-1.8359,-2.1194,-2.3206,-2.1838,-2.1848,-2.206,-2.21,-2.2097,-2.2532,-2.3655,-2.424,-2.4486,-2.4276,-2.4762,-2.5086,-2.5086,-2.5086,-2.5086,-2.5086,-2.5159,-2.5452,-2.5988,-2.6632,-2.6983,-2.6983,-2.6983,-2.6983,-2.6983,-2.6983,-2.6983,-2.6983,-2.6983,-2.6983,-2.6947,-2.6166,-2.58,-2.5726,-2.4105,-2.3401,-2.3327,-2.2595,-2.2072,-2.181,-2.2147,-2.2072,-2.181,-2.2184,-2.2296,-2.2296,-2.2296,-2.2184,-2.2035,-2.2035,-2.0887,-1.9245,-1.7607,-1.6083,-1.456,-1.2958,-1.2501,-1.2501,-1.2501,-1.2501,-1.2501,-1.2501,-1.2501,-1.2501,-1.2501,-1.2501,-1.2501,-1.2501,-1.2501,-1.2501,-1.2501,-1.1843,-1.0987,-1.0064,-0.9172,-0.8296,-0.7414,-0.7322,-0.7314,-0.7314,-0.7306,-0.7302,-0.7302,-0.7302,-0.7302,-0.7302,-0.7302,-0.582,-0.253,-0.2382,-0.0871,0.2352,0.2394,0.2395,0.2395,0.2389,0.2387,0.2428,0.2352,0.2355,-1.1625,-1.1504,-1.1496,-1.2075,-1.2224,0.0,-1.2891,-1.3421,-1.429,-1.6095,-1.6946,-1.7844,-1.9356,-1.9693,-1.9822,-2.01,-2.0321,-2.0994,-2.249,-2.4031,-2.4438,-2.2979,-2.4159,-2.5086,-2.5086,-2.5086,-2.5086,-2.5086,-2.5535,-2.5886,-2.5968,-2.6632,-2.6983,-2.6983,-2.6983,-2.6983,-2.6983,-2.6983,-2.6983,-2.6983,-2.6983,-2.6983,-2.6947,-2.6166,-2.58,-2.5726,-2.4105,-2.3401,-2.3327,-2.2595,-2.2259,-2.2184,-2.2259,-2.2259,-2.2184,-2.2259,-2.2296,-2.2296,-2.2296,-2.1412,-2.0312,-2.0312,-1.9208,-1.7569,-1.5892,-1.5174,-1.456,-1.2958,-1.2501,-1.2501,-1.2501,-1.2501,-1.2501,-1.2501,-1.2501,-1.2501,-1.2501,-1.2501,-1.2501,-1.2501,-1.2501,-1.2501,-1.2501,-1.1843,-1.0985,-1.0103,-0.9289,-0.843,-0.7554,-0.7411,-0.7366,-0.7366,-0.7343,-0.7302,-0.7302,-0.7302,-0.7302,-0.7302,-0.7302,-0.582,-0.253,-0.2402,-0.0844,0.2421,0.2484,0.2496,0.2496,0.2409,0.2436,0.2461,0.2075,0.2125,-1.133,-1.1425,-1.1798,-1.2195,-1.2277,0.0,0.0,-1.3404,-1.4251,-1.5326,-1.5952,-1.6566,-1.7446,-1.7325,-1.7304,-1.7942,-1.8279,-1.8699,-1.9409,-2.2064,-2.3901,-2.3775,-2.4557,-2.5086,-2.5086,-2.5086,-2.5086,-2.5086,-2.5505,-2.5807,-2.5968,-2.6486,-2.6822,-2.6983,-2.6983,-2.6983,-2.6983,-2.6983,-2.6983,-2.6983,-2.6983,-2.6983,-2.6983,-2.6582,-2.6399,-2.6312,-2.5139,-2.4586,-2.4512,-2.3327,-2.2856,-2.2819,-2.2446,-2.2296,-2.2296,-2.2296,-2.1761,-2.1037,-2.1037,-1.9962,-1.8592,-1.8592,-1.7493,-1.6007,-1.5127,-1.433,-1.3529,-1.2733,-1.2501,-1.2501,-1.2501,-1.2501,-1.2501,-1.2501,-1.2501,-1.2501,-1.2501,-1.2501,-1.2501,-1.2501,-1.2501,-1.2501,-1.2501,-1.1456,-1.0486,-1.0058,-0.8929,-0.7994,-0.7564,-0.7484,-0.7456,-0.7456,-0.7419,-0.7395,-0.7395,-0.7395,-0.7395,-0.7395,-0.7395,-0.6274,-0.3807,-0.2903,-0.0893,0.2453,0.2507,0.2514,0.2514,0.2251,0.2166,0.2179,0.1946,0.1874,-1.0895,-1.1096,-1.1691,-1.191,-1.1899,-1.1883,0.0,0.0,0.0,-1.4141,-1.4898,-1.5416,-1.4975,-1.4448,-1.4352,-1.5076,-1.574,-1.6137,-1.6112,-1.946,-2.2306,-2.34,-2.3876,-2.4159,-2.4231,-2.4471,-2.4761,-2.5071,-2.5286,-2.5573,-2.6003,-2.6325,-2.6647,-2.6983,-2.6983,-2.6983,-2.6983,-2.6983,-2.6983,-2.6983,-2.6983,-2.6983,-2.6983,-2.6983,-2.6983,-2.6947,-2.6166,-2.58,-2.569,-2.4068,-2.3401,-2.334,-2.2595,-2.2296,-2.2296,-2.2296,-2.1225,-1.9811,-1.9811,-1.8555,-1.6922,-1.6922,-1.5778,-1.4445,-1.4445,-1.3529,-1.2501,-1.2501,-1.2501,-1.2501,-1.2501,-1.2501,-1.2501,-1.2501,-1.2501,-1.2501,-1.2501,-1.2501,-1.2501,-1.2501,-1.2501,-1.2501,-1.2501,-1.1107,-0.998,-0.998,-0.8593,-0.755,-0.755,-0.755,-0.755,-0.755,-0.7498,-0.7486,-0.7486,-0.7486,-0.7486,-0.7486,-0.7486,-0.674,-0.5053,-0.3094,-0.0588,0.2435,0.2514,0.2475,0.2396,0.2043,0.1886,0.1886,0.1728,0.1532,-1.1119,-1.075,-1.0694,-1.0758,-1.065,-1.0514,-1.0469,0.0,-1.0183,-1.0305,0.0,-1.0333,-1.0554,0.0,0.0,-1.0547,-1.2177,-1.3669,-1.4296,-1.6872,-1.8508,-1.7978,-1.9564,-2.0742,-2.0999,-2.2195,-2.3575,-2.4993,-2.513,-2.5408,-2.5988,-2.6325,-2.6647,-2.6983,-2.6983,-2.6983,-2.6983,-2.6983,-2.6983,-2.6983,-2.6983,-2.6983,-2.6983,-2.6983,-2.6983,-2.6947,-2.6166,-2.58,-2.569,-2.4068,-2.3401,-2.334,-2.2595,-2.2296,-2.2296,-2.2296,-2.1225,-1.9811,-1.9811,-1.7759,-1.5165,-1.5165,-1.4099,-1.2765,-1.2765,-1.2656,-1.2501,-1.2501,-1.2501,-1.2501,-1.2501,-1.2501,-1.2501,-1.2501,-1.2501,-1.2501,-1.2501,-1.2501,-1.2501,-1.2501,-1.2501,-1.2501,-1.2501,-1.1107,-0.998,-0.998,-0.8658,-0.7687,-0.7687,-0.7687,-0.7687,-0.7687,-0.7574,-0.7486,-0.7486,-0.7486,-0.7486,-0.7486,-0.7486,-0.674,-0.5053,-0.1959,0.0588,0.2475,0.2514,0.2318,0.1964,0.1925,0.1886,0.1886,0.1099,0.0942,-1.2281,-1.2674,-1.2995,-1.3018,-1.2939,-1.2848,-1.2825,-1.138,-1.0104,-1.015,0.0,0.0,0.0,0.0,0.0,0.0,-1.0814,-1.1551,-1.1758,-1.2911,-1.4869,-1.7966,-1.9394,-2.0506,-2.1488,-2.1933,-2.2369,-2.297,-2.3771,-2.4127,-2.3919,-2.5384,-2.6457,-2.6969,-2.6983,-2.6983,-2.6983,-2.6983,-2.6983,-2.6983,-2.6983,-2.6983,-2.6998,-2.7188,-2.7004,-2.6524,-2.6359,-2.6032,-2.5469,-2.4338,-2.3846,-2.3808,-2.306,-2.2562,-2.2184,-2.1225,-1.9811,-1.8252,-1.7303,-1.5509,-1.3652,-1.3747,-1.3351,-1.2805,-1.2805,-1.2805,-1.2805,-1.2805,-1.2805,-1.2745,-1.2657,-1.263,-1.261,-1.2522,-1.2501,-1.2501,-1.2501,-1.2501,-1.2501,-1.2501,-1.2501,-1.2501,-1.2501,-1.1107,-0.998,-0.998,-0.8616,-0.7582,-0.7582,-0.7582,-0.7582,-0.7582,-0.755,-0.7486,-0.7486,-0.7486,-0.7486,-0.7486,-0.7486,-0.6307,-0.3642,-0.2194,-0.0196,0.2435,0.2514,0.2318,0.1886,0.165,0.1414,0.1139,0.0785,0.0589,-1.4247,-1.4894,-1.5235,-1.4427,-1.4131,-1.3848,-1.3086,-1.1323,-0.9843,-0.9843,-0.9371,0.0,0.0,0.0,-0.8901,-0.9111,0.0,-0.9909,-0.9473,-1.0166,-1.2281,-1.6447,-1.8158,-1.9303,-2.0163,-2.0659,-2.0764,-2.0406,-2.1884,-2.2711,-2.2414,-2.468,-2.631,-2.6969,-2.6983,-2.6983,-2.6983,-2.6983,-2.6983,-2.6983,-2.6983,-2.7042,-2.713,-2.7401,-2.7176,-2.6664,-2.6687,-2.633,-2.5695,-2.4611,-2.4188,-2.4073,-2.2838,-2.2112,-2.1633,-2.0396,-1.8622,-1.6673,-1.5477,-1.4055,-1.2813,-1.2962,-1.3003,-1.3003,-1.3003,-1.3003,-1.3003,-1.3003,-1.3003,-1.2975,-1.282,-1.2793,-1.2766,-1.2651,-1.263,-1.263,-1.263,-1.2596,-1.2562,-1.2562,-1.2528,-1.2501,-1.2501,-1.1107,-0.998,-0.998,-0.8602,-0.7562,-0.7562,-0.7562,-0.7562,-0.7562,-0.7542,-0.7486,-0.7486,-0.7486,-0.7486,-0.7486,-0.7486,-0.5994,-0.2624,-0.2507,-0.0941,0.2435,0.2396,0.2121,0.1728,0.1296,0.0864,0.0432,0.0432,0.0275,-1.722,-1.7017,-1.6335,-1.3467,-1.2573,-1.1688,-0.9019,-0.8281,-0.8178,-0.8178,-0.8306,-0.8389,-0.8291,-0.8094,-0.7743,0.0,-0.8263,0.0,0.0,-0.9748,-1.1195,-1.1007,-1.4034,-1.5758,-1.4841,-1.7324,-1.8577,-1.7623,-1.9608,-2.133,-2.2366,-2.468,-2.631,-2.6969,-2.6983,-2.6983,-2.6983,-2.6983,-2.6983,-2.6983,-2.6983,-2.7159,-2.7503,-2.7518,-2.7642,-2.7784,-2.7027,-2.6672,-2.652,-2.4879,-2.4188,-2.3957,-2.1457,-2.0472,-2.0461,-2.0383,-1.8298,-1.5472,-1.5392,-1.4333,-1.2996,-1.3003,-1.3003,-1.3003,-1.3003,-1.3003,-1.3003,-1.3003,-1.3003,-1.3003,-1.2996,-1.2996,-1.2989,-1.2989,-1.2989,-1.2989,-1.2989,-1.2827,-1.2686,-1.2686,-1.2603,-1.2501,-1.2501,-1.1107,-0.998,-0.998,-0.8663,-0.77,-0.77,-0.77,-0.77,-0.77,-0.7578,-0.7486,-0.7486,-0.7486,-0.7486,-0.7486,-0.7486,-0.5994,-0.2624,-0.2507,-0.0941,0.2435,0.2121,0.1728,0.1336,0.0864,0.0432,0.0,0.0,0.0,-1.9266,-1.9606,-1.9373,-1.838,-1.6693,-1.5083,-1.4266,-1.1228,-0.8556,-0.8556,-0.8713,-0.8721,-0.8274,-0.8336,-0.823,0.0,0.0,-0.8204,0.0,-0.8511,-0.8966,-0.874,-1.1338,-1.343,-1.4165,-1.4991,-1.5334,-1.5089,-1.6732,-1.7641,-1.7368,-2.1331,-2.3828,-2.4269,-2.6047,-2.6983,-2.6983,-2.6983,-2.6983,-2.6998,-2.7203,-2.7378,-2.7495,-2.792,-2.7864,-2.7391,-2.6776,-2.6157,-2.5557,-2.4392,-2.393,-2.3721,-2.1714,-2.0225,-1.9023,-1.7591,-1.6352,-1.5265,-1.4267,-1.3584,-1.3159,-1.322,-1.3254,-1.3254,-1.3254,-1.3254,-1.3254,-1.3254,-1.3254,-1.3227,-1.3166,-1.3139,-1.3118,-1.3023,-1.3003,-1.3003,-1.3003,-1.2962,-1.2881,-1.2881,-1.284,-1.2846,-1.2846,-1.1813,-1.0778,-1.0108,-0.912,-0.8203,-0.7649,-0.757,-0.757,-0.757,-0.7546,-0.7486,-0.7486,-0.7486,-0.7486,-0.7486,-0.7486,-0.5994,-0.2624,-0.2507,-0.1058,0.2043,0.1964,0.1532,0.0825,0.0668,0.0393,0.0,0.0,0.0,-2.1969,-2.239,-2.2155,-2.1135,-1.9578,-1.8042,-1.7187,-1.4261,-1.1761,-1.1761,-1.1887,-1.1626,-1.0415,-1.0193,-0.9769,0.0,0.0,-0.7897,0.0,-0.7788,-0.7819,-0.7895,-1.0259,-1.192,-1.2041,-1.2879,-1.3145,-1.242,-1.417,-1.5132,-1.4742,-1.9611,-2.2547,-2.2879,-2.5572,-2.6983,-2.6983,-2.6983,-2.7042,-2.7159,-2.7415,-2.7598,-2.7832,-2.8204,-2.8183,-2.7781,-2.7118,-2.6347,-2.5502,-2.4627,-2.3708,-2.2694,-2.098,-1.9227,-1.7488,-1.6119,-1.524,-1.4529,-1.3588,-1.3254,-1.3309,-1.337,-1.3403,-1.3403,-1.3403,-1.3403,-1.3403,-1.3403,-1.3403,-1.3376,-1.3281,-1.3254,-1.3227,-1.318,-1.3159,-1.3159,-1.3159,-1.3118,-1.3077,-1.3077,-1.3037,-1.3003,-1.3003,-1.2483,-1.1573,-1.0258,-0.9349,-0.8505,-0.7603,-0.7486,-0.7486,-0.7486,-0.7486,-0.7486,-0.7486,-0.7486,-0.7486,-0.7486,-0.7486,-0.5994,-0.2624,-0.2624,-0.1254,0.1846,0.1611,0.1178,0.0589,0.0471,0.0236,0.0,0.0,0.0]},{"header":{"parameterUnit":"m.s-1","parameterCategory":1,"la1":30.6,"la2":29.2853,"lo1":-89.7004,"lo2":-87.6739,"dy":0.0162,"dx":0.0183,"nx":112,"ny":82,"refTime":"2023-09-30T12:00:00:Z","depth":0,"parameterNumber":3,"parameterNumberName":"V-component_of_WINDS"},"data":[0.0,0.0,0.0,0.0,0.0,0.0,0.0,0.0,0.0,0.0,0.0,0.0,0.0,0.0,0.0,0.0,0.0,0.0,0.0,0.0,0.0,0.0,0.0,0.0,0.0,0.0,0.0,0.0,0.0,0.0,0.0,0.0,0.0,0.0,0.0,0.0,0.0,0.0,0.0,0.0,0.0,0.0,0.0,0.0,0.0,0.0,0.0,0.0,0.0,0.0,0.0,0.0,0.0,0.0,0.0,0.0,0.0,0.0,0.0,0.0,0.0,0.0,0.0,0.0,0.0,0.0,0.0,0.0,0.0,0.0,0.0,0.0,0.0,0.0,0.0,0.0,0.0,0.0,0.0,0.0,0.0,0.0,0.0,0.0,0.0,0.0,0.0,0.0,0.0,0.0,2.9506,3.187,3.2119,3.1771,3.1022,3.0907,3.0622,2.9922,0.0,0.0,0.0,0.0,0.0,0.0,0.0,0.0,0.0,0.0,0.0,0.0,0.0,0.0,0.0,0.0,0.0,0.0,0.0,0.0,0.0,0.0,0.0,0.0,0.0,0.0,0.0,0.0,0.0,0.0,0.0,0.0,0.0,0.0,0.0,0.0,0.0,0.0,0.0,0.0,0.0,0.0,0.0,0.0,0.0,0.0,0.0,0.0,0.0,0.0,0.0,0.0,0.0,0.0,0.0,0.0,0.0,0.0,0.0,0.0,0.0,0.0,0.0,0.0,0.0,0.0,0.0,0.0,0.0,0.0,0.0,0.0,0.0,0.0,0.0,0.0,0.0,0.0,0.0,0.0,0.0,0.0,0.0,0.0,0.0,0.0,0.0,0.0,0.0,0.0,0.0,0.0,0.0,0.0,0.0,0.0,0.0,0.0,0.0,0.0,0.0,0.0,0.0,0.0,3.1006,3.2954,3.2545,3.2315,3.2921,3.1704,3.1356,3.2352,0.0,0.0,0.0,0.0,0.0,0.0,0.0,0.0,0.0,0.0,0.0,0.0,0.0,0.0,0.0,0.0,0.0,0.0,0.0,0.0,0.0,0.0,0.0,0.0,0.0,0.0,0.0,0.0,0.0,0.0,0.0,0.0,0.0,0.0,0.0,0.0,0.0,0.0,0.0,0.0,0.0,0.0,0.0,0.0,0.0,0.0,0.0,0.0,0.0,0.0,0.0,0.0,0.0,0.0,0.0,0.0,0.0,0.0,0.0,0.0,0.0,0.0,0.0,0.0,0.0,0.0,0.0,0.0,0.0,0.0,0.0,0.0,0.0,0.0,0.0,0.0,0.0,0.0,0.0,0.0,0.0,0.0,0.0,0.0,0.0,0.0,0.0,0.0,0.0,0.0,0.0,0.0,0.0,0.0,0.0,0.0,0.0,0.0,0.0,0.0,0.0,0.0,0.0,3.1011,3.2257,3.3275,3.3419,3.3456,3.3414,3.225,3.1778,3.2332,3.0824,0.0,0.0,0.0,0.0,0.0,0.0,0.0,0.0,0.0,0.0,0.0,0.0,0.0,0.0,0.0,0.0,0.0,0.0,0.0,0.0,0.0,0.0,0.0,0.0,0.0,0.0,0.0,0.0,0.0,0.0,0.0,0.0,0.0,0.0,0.0,0.0,0.0,0.0,0.0,0.0,0.0,0.0,0.0,0.0,0.0,0.0,0.0,0.0,0.0,0.0,0.0,0.0,0.0,0.0,0.0,0.0,0.0,0.0,0.0,0.0,0.0,0.0,0.0,0.0,0.0,0.0,0.0,0.0,0.0,0.0,0.0,0.0,0.0,0.0,0.0,0.0,0.0,0.0,0.0,0.0,0.0,0.0,0.0,0.0,0.0,0.0,0.0,0.0,0.0,0.0,0.0,0.0,0.0,0.0,0.0,0.0,0.0,0.0,0.0,0.0,0.0,0.0,3.2035,3.3013,3.388,3.4545,3.4658,3.4052,3.3193,3.2612,3.2381,3.1567,0.0,0.0,0.0,0.0,0.0,0.0,0.0,0.0,0.0,0.0,0.0,0.0,0.0,0.0,0.0,0.0,0.0,0.0,0.0,0.0,0.0,0.0,0.0,0.0,0.0,0.0,0.0,0.0,0.0,0.0,0.0,0.0,0.0,0.0,0.0,0.0,0.0,0.0,0.0,0.0,0.0,0.0,0.0,0.0,0.0,0.0,0.0,0.0,0.0,0.0,0.0,0.0,0.0,0.0,0.0,0.0,0.0,0.0,0.0,0.0,0.0,0.0,0.0,0.0,0.0,0.0,0.0,0.0,0.0,0.0,0.0,0.0,0.0,0.0,0.0,0.0,0.0,0.0,0.0,0.0,0.0,0.0,0.0,0.0,0.0,0.0,0.0,0.0,0.0,0.0,0.0,0.0,0.0,0.0,0.0,0.0,0.0,0.0,0.0,0.0,0.0,0.0,3.232,3.2916,3.5467,3.5784,3.5784,3.5747,3.4921,3.4302,3.4054,3.3275,0.0,0.0,0.0,0.0,0.0,0.0,0.0,0.0,0.0,0.0,0.0,0.0,0.0,0.0,0.0,0.0,0.0,0.0,0.0,0.0,0.0,0.0,0.0,0.0,0.0,0.0,0.0,0.0,0.0,0.0,0.0,0.0,0.0,0.0,0.0,0.0,0.0,0.0,0.0,0.0,0.0,0.0,0.0,0.0,0.0,0.0,0.0,0.0,0.0,0.0,0.0,0.0,0.0,0.0,0.0,0.0,0.0,0.0,0.0,0.0,0.0,0.0,0.0,0.0,0.0,0.0,0.0,0.0,0.0,0.0,0.0,0.0,0.0,0.0,0.0,0.0,0.0,0.0,0.0,0.0,0.0,0.0,0.0,0.0,0.0,0.0,0.0,0.0,0.0,0.0,0.0,0.0,0.0,0.0,0.0,0.0,0.0,0.0,0.0,0.0,0.0,0.0,3.4077,3.4699,3.5941,3.6544,3.6852,3.6852,3.5567,3.4872,3.5042,0.0,0.0,0.0,0.0,0.0,0.0,0.0,0.0,0.0,0.0,0.0,0.0,0.0,0.0,0.0,0.0,0.0,0.0,0.0,0.0,0.0,0.0,0.0,0.0,0.0,0.0,0.0,0.0,0.0,0.0,0.0,0.0,0.0,0.0,0.0,0.0,0.0,0.0,0.0,0.0,0.0,0.0,0.0,0.0,0.0,0.0,0.0,0.0,0.0,0.0,0.0,0.0,0.0,0.0,0.0,0.0,0.0,0.0,0.0,0.0,0.0,0.0,0.0,0.0,0.0,0.0,0.0,0.0,0.0,0.0,0.0,0.0,0.0,0.0,0.0,0.0,0.0,0.0,0.0,0.0,0.0,0.0,0.0,0.0,0.0,0.0,0.0,0.0,0.0,0.0,0.0,0.0,0.0,0.0,0.0,0.0,0.0,0.0,0.0,0.0,0.0,0.0,3.4608,3.5373,3.6109,3.6902,3.7462,3.7814,3.7814,3.6747,3.5854,3.5247,0.0,0.0,0.0,0.0,0.0,0.0,0.0,0.0,0.0,0.0,0.0,0.0,0.0,0.0,0.0,0.0,0.0,0.0,0.0,0.0,0.0,0.0,0.0,0.0,0.0,0.0,0.0,0.0,0.0,0.0,0.0,0.0,0.0,0.0,0.0,0.0,0.0,0.0,0.0,0.0,0.0,0.0,0.0,0.0,0.0,0.0,0.0,0.0,0.0,0.0,0.0,0.0,0.0,0.0,0.0,0.0,0.0,0.0,0.0,0.0,0.0,0.0,0.0,0.0,0.0,0.0,0.0,0.0,0.0,0.0,0.0,0.0,0.0,0.0,0.0,0.0,0.0,0.0,0.0,0.0,0.0,0.0,0.0,0.0,0.0,0.0,0.0,0.0,0.0,0.0,0.0,0.0,0.0,0.0,0.0,0.0,0.0,0.0,0.0,0.0,0.0,0.0,3.5416,3.5932,3.6851,3.8524,3.8714,3.8714,3.8714,3.8714,3.7494,0.0,0.0,0.0,0.0,0.0,0.0,0.0,0.0,0.0,0.0,0.0,0.0,0.0,0.0,0.0,0.0,0.0,0.0,0.0,0.0,0.0,0.0,0.0,0.0,0.0,0.0,0.0,0.0,0.0,0.0,0.0,0.0,0.0,0.0,0.0,0.0,0.0,0.0,0.0,0.0,0.0,0.0,0.0,0.0,0.0,0.0,0.0,0.0,0.0,0.0,0.0,0.0,0.0,0.0,0.0,0.0,0.0,0.0,0.0,0.0,0.0,0.0,0.0,0.0,0.0,0.0,0.0,0.0,0.0,0.0,0.0,0.0,0.0,0.0,0.0,0.0,0.0,0.0,0.0,0.0,0.0,0.0,0.0,0.0,0.0,0.0,0.0,0.0,0.0,0.0,0.0,0.0,0.0,0.0,0.0,0.0,0.0,0.0,0.0,0.0,0.0,0.0,0.0,3.5598,3.7009,3.8196,3.8833,3.9457,3.9838,3.9838,3.9266,3.7912,3.5528,0.0,0.0,0.0,0.0,0.0,0.0,0.0,0.0,0.0,0.0,0.0,0.0,0.0,0.0,0.0,0.0,0.0,0.0,0.0,0.0,0.0,0.0,0.0,0.0,0.0,0.0,0.0,0.0,0.0,0.0,0.0,0.0,0.0,0.0,0.0,0.0,0.0,0.0,0.0,0.0,0.0,0.0,0.0,0.0,0.0,0.0,0.0,0.0,0.0,0.0,0.0,0.0,0.0,0.0,0.0,0.0,0.0,0.0,0.0,0.0,0.0,0.0,0.0,0.0,0.0,0.0,0.0,0.0,0.0,0.0,0.0,0.0,0.0,0.0,0.0,0.0,0.0,0.0,0.0,0.0,0.0,0.0,0.0,0.0,0.0,0.0,0.0,0.0,0.0,0.0,0.0,0.0,0.0,0.0,0.0,0.0,0.0,0.0,0.0,0.0,0.0,0.0,3.6088,3.7705,3.8994,3.9456,4.0,4.0306,4.0306,3.9809,3.8628,3.6577,0.0,0.0,0.0,0.0,0.0,0.0,0.0,0.0,0.0,0.0,0.0,0.0,0.0,0.0,0.0,0.0,0.0,0.0,0.0,0.0,0.0,0.0,0.0,0.0,0.0,0.0,0.0,0.0,0.0,0.0,0.0,0.0,0.0,0.0,0.0,0.0,0.0,0.0,0.0,0.0,0.0,0.0,0.0,0.0,0.0,0.0,0.0,0.0,0.0,0.0,0.0,0.0,0.0,0.0,0.0,0.0,0.0,0.0,0.0,0.0,0.0,0.0,0.0,0.0,0.0,0.0,0.0,0.0,0.0,0.0,0.0,0.0,0.0,0.0,0.0,0.0,0.0,0.0,0.0,0.0,0.0,0.0,0.0,0.0,0.0,0.0,0.0,0.0,0.0,0.0,0.0,0.0,0.0,0.0,0.0,0.0,0.0,0.0,0.0,0.0,0.0,0.0,3.66,3.8102,3.9418,4.0225,4.0306,4.0306,4.0306,4.0306,3.9471,3.7513,0.0,0.0,0.0,0.0,0.0,0.0,0.0,0.0,0.0,0.0,0.0,0.0,0.0,0.0,0.0,0.0,0.0,0.0,0.0,0.0,0.0,0.0,0.0,0.0,0.0,0.0,0.0,0.0,0.0,0.0,0.0,0.0,0.0,0.0,0.0,0.0,0.0,0.0,0.0,0.0,0.0,0.0,0.0,0.0,0.0,0.0,0.0,0.0,0.0,0.0,0.0,0.0,0.0,0.0,0.0,0.0,0.0,0.0,0.0,0.0,3.0465,2.7641,0.0,0.0,0.0,0.0,0.0,0.0,0.0,0.0,0.0,0.0,0.0,0.0,0.0,0.0,0.0,0.0,0.0,0.0,0.0,0.0,0.0,0.0,0.0,0.0,0.0,0.0,0.0,0.0,0.0,0.0,0.0,0.0,0.0,0.0,0.0,0.0,0.0,0.0,0.0,0.0,3.5832,3.8196,3.9986,4.0258,4.0306,4.0306,4.0306,4.0306,3.9471,3.7513,3.7007,0.0,0.0,0.0,0.0,0.0,0.0,0.0,0.0,0.0,0.0,0.0,0.0,0.0,0.0,0.0,0.0,0.0,0.0,0.0,0.0,0.0,0.0,0.0,0.0,0.0,0.0,0.0,0.0,0.0,0.0,0.0,0.0,0.0,0.0,0.0,0.0,0.0,0.0,0.0,0.0,0.0,0.0,0.0,0.0,0.0,0.0,0.0,0.0,0.0,0.0,0.0,0.0,0.0,0.0,0.0,0.0,0.0,0.0,0.0,3.2093,3.1274,0.0,0.0,0.0,0.0,0.0,0.0,0.0,0.0,0.0,0.0,0.0,0.0,0.0,0.0,0.0,0.0,0.0,0.0,0.0,0.0,0.0,0.0,0.0,0.0,0.0,0.0,0.0,0.0,0.0,0.0,0.0,0.0,0.0,0.0,0.0,0.0,0.0,0.0,0.0,0.0,3.5754,3.8355,4.0206,4.0296,4.0306,4.0306,4.0306,4.0306,3.9886,3.8847,3.7927,0.0,0.0,0.0,0.0,0.0,0.0,0.0,0.0,0.0,0.0,0.0,0.0,0.0,0.0,0.0,0.0,0.0,0.0,0.0,0.0,0.0,0.0,0.0,0.0,0.0,0.0,0.0,0.0,0.0,0.0,0.0,0.0,0.0,0.0,0.0,0.0,0.0,0.0,0.0,0.0,0.0,0.0,0.0,0.0,0.0,0.0,0.0,0.0,0.0,0.0,0.0,0.0,0.0,3.4254,3.4409,3.429,3.4413,3.4101,3.3553,3.4957,3.6288,3.7336,3.5272,0.0,0.0,0.0,0.0,0.0,0.0,0.0,0.0,0.0,0.0,0.0,0.0,0.0,0.0,0.0,0.0,0.0,0.0,0.0,0.0,0.0,0.0,3.5786,3.7891,3.6944,3.6043,3.776,0.0,0.0,0.0,0.0,0.0,0.0,0.0,0.0,0.0,0.0,0.0,3.601,3.8818,4.0768,4.0731,4.0726,4.0726,4.0726,4.0726,4.0688,4.0535,3.8999,3.794,0.0,0.0,0.0,0.0,0.0,0.0,0.0,0.0,0.0,0.0,0.0,0.0,0.0,0.0,0.0,0.0,0.0,0.0,0.0,0.0,0.0,0.0,0.0,0.0,0.0,0.0,0.0,0.0,0.0,0.0,0.0,0.0,3.1522,3.4315,0.0,0.0,0.0,0.0,0.0,0.0,0.0,0.0,0.0,0.0,0.0,0.0,0.0,3.6366,3.7069,3.8062,3.8879,3.946,4.1034,4.1774,4.1777,4.1776,4.1791,4.1616,3.9695,0.0,3.5018,3.5341,0.0,0.0,0.0,0.0,0.0,0.0,0.0,0.0,0.0,0.0,0.0,0.0,0.0,0.0,0.0,0.0,0.0,0.0,0.0,0.0,0.0,0.0,4.1356,4.2428,4.0684,3.9498,4.2014,3.7701,3.4305,3.7566,3.632,3.5088,0.0,0.0,0.0,0.0,0.0,0.0,3.6202,3.9915,4.2616,4.247,4.2488,4.2488,4.2488,4.2488,4.2144,4.1385,4.1098,4.021,3.8583,3.905,0.0,0.0,0.0,0.0,0.0,0.0,0.0,0.0,0.0,0.0,0.0,0.0,0.0,0.0,0.0,0.0,0.0,0.0,0.0,0.0,0.0,0.0,0.0,0.0,0.0,0.0,0.0,0.0,0.0,3.1364,3.2735,3.4188,3.4353,3.3909,0.0,0.0,0.0,0.0,0.0,0.0,0.0,0.0,0.0,3.799,3.8948,3.9914,4.0806,4.2177,4.3016,4.3385,4.4203,4.4583,4.4567,4.4603,4.4619,4.4597,4.3507,4.2194,4.0705,3.8689,3.8318,3.8915,0.0,0.0,0.0,0.0,3.5496,3.6687,3.5581,3.7249,3.9666,3.8735,0.0,0.0,0.0,0.0,0.0,0.0,0.0,3.9539,4.0059,4.1145,4.2301,4.3247,4.2512,4.1958,4.316,3.9944,3.7411,3.9483,3.8084,3.6462,3.6103,3.6481,0.0,0.0,0.0,3.8958,3.8666,4.1246,4.3065,4.2919,4.2896,4.2885,4.2804,4.2794,4.2641,4.2259,4.2221,4.1843,4.1038,4.1141,4.0373,0.0,0.0,0.0,0.0,0.0,0.0,0.0,0.0,0.0,0.0,0.0,0.0,0.0,0.0,0.0,0.0,0.0,0.0,0.0,0.0,0.0,0.0,0.0,0.0,0.0,0.0,0.0,0.0,3.3042,3.4074,3.5198,3.5557,3.5335,0.0,0.0,0.0,0.0,0.0,0.0,3.8862,3.9425,4.0145,4.1051,4.25,4.3613,4.4323,4.5565,4.6208,4.6244,4.627,4.6309,4.6244,4.6305,4.6291,4.6338,4.6376,4.638,4.6122,4.2358,4.1175,4.1677,4.0974,3.9922,3.8823,3.8638,3.9134,3.9787,3.8828,4.0281,4.2379,4.1135,4.1242,4.1652,4.0448,0.0,0.0,0.0,0.0,4.1142,4.1838,4.238,4.3001,4.3937,4.4142,4.4185,4.4386,4.254,4.1014,4.1648,4.0126,3.8414,3.7523,3.8357,0.0,3.6619,3.9048,4.1055,4.0986,4.2682,4.3847,4.3725,4.3665,4.3615,4.3503,4.3478,4.3329,4.3133,4.3095,4.3023,4.2794,4.2607,4.189,4.0588,0.0,0.0,0.0,0.0,0.0,0.0,0.0,0.0,0.0,0.0,0.0,0.0,0.0,0.0,0.0,0.0,0.0,0.0,0.0,0.0,0.0,0.0,0.0,0.0,0.0,0.0,0.0,0.0,0.0,3.8928,4.0409,0.0,0.0,0.0,0.0,3.8508,3.9296,4.0466,4.1998,4.3928,4.536,4.6127,4.7035,4.7536,4.7678,4.7739,4.7861,4.7966,4.7971,4.7971,4.7966,4.7971,4.7975,4.7975,4.798,4.8012,4.7893,4.5437,4.4451,4.4235,4.1671,4.1094,4.1288,3.8047,3.8977,4.1649,4.0152,4.1363,4.3617,4.354,4.2346,4.0613,3.8715,3.8658,0.0,0.0,3.9994,4.2057,4.2084,4.3465,4.5077,4.5934,4.6112,4.629,4.7139,4.5779,4.4489,4.4567,4.2463,4.1142,4.2731,0.0,4.2227,3.9592,4.1507,4.2928,4.2044,4.4239,4.5792,4.5578,4.546,4.5355,4.5346,4.5246,4.4819,4.4006,4.393,4.3591,4.2832,4.2784,4.2611,4.2284,4.1454,0.0,0.0,0.0,0.0,0.0,0.0,0.0,0.0,0.0,0.0,0.0,0.0,0.0,0.0,0.0,0.0,0.0,0.0,0.0,0.0,0.0,0.0,0.0,0.0,0.0,0.0,0.0,0.0,3.9569,4.0327,0.0,4.0644,4.1255,4.1543,4.1358,4.3089,4.439,4.4925,4.5717,4.6644,4.7694,4.8087,4.8635,4.9461,4.9383,4.9488,4.9637,4.9637,4.9677,4.9784,4.9784,4.9784,4.9784,4.9784,4.9793,4.9706,4.8358,4.744,4.6865,4.5885,4.5763,4.5946,4.469,4.5066,4.6108,4.549,4.6002,4.6944,4.7031,4.6562,4.5858,4.5152,4.5181,4.5365,4.5026,4.5695,4.6479,4.6481,4.6992,4.7571,4.7834,4.7905,4.7978,4.8252,4.7791,4.7336,4.738,4.5605,4.4281,4.4913,4.6019,4.608,4.3901,4.5419,4.67,4.6367,4.7162,4.768,4.7517,4.7477,4.7341,4.7149,4.7093,4.6891,4.6462,4.6451,4.6074,4.5239,4.5201,4.463,4.3444,4.3128,4.2164,0.0,0.0,0.0,0.0,0.0,0.0,0.0,0.0,0.0,0.0,0.0,0.0,0.0,0.0,0.0,0.0,0.0,0.0,0.0,0.0,0.0,0.0,0.0,0.0,0.0,3.6132,3.8423,4.0936,4.1577,4.2113,4.2733,4.3398,4.3915,4.4274,4.6059,4.7211,4.7459,4.7905,4.8536,4.9333,4.9386,4.9813,5.0678,5.0637,5.0759,5.1067,5.1067,5.1199,5.1397,5.1397,5.1306,5.1135,5.1375,5.1202,5.0706,5.0388,4.9765,4.8938,4.8442,4.8273,4.8373,4.8364,4.8407,4.8466,4.8445,4.854,4.8703,4.8808,4.8817,4.8819,4.8815,4.8861,4.8905,4.8861,4.8861,4.8903,4.8903,4.8898,4.8851,4.8801,4.8798,4.8873,4.9171,4.8955,4.8931,4.9555,4.8163,4.6666,4.6053,4.6995,4.7285,4.5706,4.6305,4.6999,4.7271,4.7597,4.7777,4.766,4.8153,4.8389,4.818,4.7867,4.7838,4.828,4.7734,4.7395,4.7379,4.6822,4.603,4.4916,4.4052,4.3005,4.169,0.0,0.0,0.0,0.0,0.0,0.0,0.0,0.0,0.0,0.0,0.0,0.0,0.0,0.0,0.0,0.0,0.0,0.0,0.0,0.0,0.0,0.0,0.0,3.4871,3.8383,4.1584,4.3296,4.4602,4.5562,4.611,4.5713,4.5981,4.7279,4.7968,4.8719,4.9551,5.0592,5.1166,5.1175,5.1175,5.1237,5.1384,5.1396,5.1648,5.2165,5.2172,5.2379,5.2761,5.278,5.2483,5.1962,5.2691,5.2182,5.0932,5.1587,5.1359,5.0417,4.896,4.8388,4.8384,4.8381,4.8411,4.846,4.8504,4.8633,4.8764,4.8752,4.8866,4.8973,4.8973,4.8974,4.8975,4.8974,4.8975,4.8976,4.8976,4.8928,4.8876,4.8876,4.8861,4.9116,4.9973,4.9397,4.9214,5.104,5.0055,4.832,4.6574,4.6276,4.5922,4.4946,4.4142,0.0,4.4715,4.5587,4.6165,4.6165,4.7544,4.8471,4.8587,4.753,4.7582,4.9259,4.7696,4.7454,4.905,4.7559,4.6661,4.6656,4.4288,4.3446,4.4197,0.0,0.0,0.0,0.0,0.0,0.0,0.0,0.0,0.0,0.0,0.0,0.0,0.0,0.0,0.0,0.0,0.0,0.0,0.0,0.0,0.0,3.7618,3.9442,3.91,4.0533,4.2585,4.5198,4.6339,4.7149,4.7797,4.8302,4.8761,4.9039,4.9401,4.9661,4.9825,5.0139,5.04,5.062,5.0681,5.0809,5.1054,5.1166,5.1372,5.1615,5.1902,5.2001,5.1941,5.2525,5.2545,5.2151,5.2633,5.2679,5.241,5.2532,5.2527,5.2209,5.0556,4.9937,4.9966,4.9957,4.999,4.9959,4.9526,4.9715,5.0167,5.0322,5.0407,5.0412,5.0435,5.0472,5.0573,5.0551,5.0623,5.0728,5.0728,5.0681,5.0672,5.0672,5.0707,5.0742,5.0976,5.0832,5.0799,5.1291,5.1025,5.0535,5.0039,4.991,4.9794,4.9483,4.9233,4.9123,4.9353,4.9601,4.9768,4.9768,4.958,4.965,5.0255,4.9393,4.9268,5.0262,4.9849,4.9536,4.9409,4.8856,4.8222,4.7477,4.6863,4.6369,0.0,0.0,0.0,0.0,0.0,0.0,0.0,0.0,0.0,0.0,0.0,0.0,0.0,0.0,0.0,0.0,0.0,0.0,0.0,0.0,0.0,0.0,4.0131,4.2486,4.3023,4.3654,4.4805,4.6906,4.7914,4.862,4.9041,4.9532,4.982,4.9798,5.0202,5.0595,5.0918,5.1291,5.1537,5.1656,5.2096,5.222,5.1949,5.2484,5.287,5.3131,5.2995,5.2983,5.2999,5.3115,5.299,5.2734,5.3297,5.3315,5.3009,5.3295,5.3239,5.2843,0.0,0.0,0.0,0.0,5.0658,5.0596,5.0227,5.0424,5.0789,5.091,5.0978,5.1002,5.0984,5.1081,5.1185,5.1206,5.1024,5.0935,5.1321,5.1121,5.0959,5.13,5.1414,5.1414,5.1414,5.1078,5.0928,5.1301,5.1079,0.0,5.1314,5.0742,5.0059,4.9648,4.9237,4.9116,4.9465,4.9828,5.0082,5.0082,5.0243,5.058,5.104,5.022,0.0,0.0,0.0,5.0039,4.961,4.9525,0.0,0.0,0.0,4.6998,4.6843,4.7281,0.0,0.0,4.5265,4.423,0.0,0.0,0.0,0.0,0.0,0.0,0.0,0.0,0.0,0.0,0.0,0.0,0.0,0.0,0.0,0.0,4.2341,4.458,4.64,4.7051,4.7593,4.8303,4.9183,4.9802,4.9917,4.9993,5.0042,5.0182,5.082,5.1622,5.2521,5.317,0.0,0.0,0.0,5.4349,5.3497,5.438,5.505,5.5426,5.4759,5.4607,5.4862,5.4287,5.3902,5.3736,5.4511,5.4296,5.3448,5.4083,5.3805,5.2875,5.2182,5.1912,5.1851,5.1097,5.0842,5.0818,5.0741,0.0,0.0,5.0886,5.0939,5.0959,5.0959,5.1062,5.1175,5.1175,5.0684,5.0391,5.1168,5.0814,5.042,5.1225,5.1416,5.1416,5.1416,5.0738,5.0391,5.1228,5.0738,5.043,5.1266,5.0074,4.8703,4.7794,4.7097,4.6914,4.7714,4.8555,4.9093,4.9078,5.0437,0.0,5.1483,5.0625,5.0775,5.2281,5.0937,5.0106,5.0133,5.014,4.9098,4.6801,4.6836,4.7139,4.7632,4.8519,5.003,5.1977,4.7532,4.5862,0.0,0.0,0.0,0.0,0.0,0.0,0.0,0.0,0.0,0.0,0.0,0.0,0.0,0.0,0.0,4.3332,4.5352,4.7011,4.8113,4.8882,4.9245,4.8982,4.9573,5.0083,5.0219,5.1233,5.1902,5.1928,5.2753,5.333,5.3525,5.3619,5.3681,5.3645,5.3813,5.398,5.4043,5.4343,5.4663,5.5014,5.5178,0.0,5.4936,5.5746,5.5939,5.5622,5.6476,5.6436,5.5756,5.5836,5.5057,5.3684,5.2953,5.2734,5.2659,5.1931,5.1624,5.1485,5.0919,5.0709,5.073,5.073,5.0753,5.0747,5.0747,5.0851,0.0,5.0959,5.0906,5.0897,5.1151,5.1096,5.1076,5.1342,5.1387,5.1387,5.1387,5.1271,5.1191,5.1377,5.1266,5.1191,5.1377,5.1127,5.082,5.0622,5.0993,5.1339,5.1466,5.2228,5.2738,5.2717,5.2374,5.2477,5.3216,5.2485,5.2419,5.3495,5.327,5.3034,5.2933,5.2929,5.2638,5.2036,5.2684,5.2754,5.2232,5.3034,5.3379,5.3177,5.2049,5.1597,0.0,0.0,0.0,0.0,0.0,0.0,0.0,0.0,0.0,0.0,0.0,3.8781,4.0361,0.0,4.3654,4.4804,4.6964,4.8623,4.889,4.9798,5.0206,4.9649,5.0581,5.1276,5.1341,5.2352,5.2984,5.2984,5.3441,5.3899,5.4393,5.4356,5.4332,5.428,5.4788,5.4907,5.4554,5.5124,5.5548,5.5866,5.5644,5.5523,5.5474,5.5695,5.5787,5.5839,5.6482,5.6668,5.6568,5.6785,5.6184,5.5113,5.4769,5.3881,5.2841,5.2508,5.2382,5.2291,5.1982,5.1847,5.1856,5.1882,5.1624,5.1254,5.1347,5.1155,5.091,5.093,5.0667,5.0535,5.1059,5.0873,5.0693,5.1235,5.1358,5.1364,5.138,5.1418,5.1414,5.1414,5.1414,5.1414,5.1414,5.139,5.1398,5.1398,5.1758,5.1981,5.1962,5.2668,5.3208,5.3163,5.3142,5.3332,5.382,5.3437,5.3387,5.386,5.3886,5.3895,5.3848,5.3867,5.3816,5.3713,5.4097,5.41,5.3636,5.4444,5.4657,5.4274,5.4597,5.4254,0.0,0.0,0.0,0.0,0.0,0.0,0.0,3.7692,3.8366,3.9812,4.041,4.1134,4.2611,4.4111,4.5337,4.602,4.8045,4.948,4.9522,5.0402,5.0914,5.0535,5.1573,5.2408,5.2576,5.3305,5.3729,5.3729,5.3857,5.4301,5.505,5.5099,5.5084,5.5013,5.5793,5.5864,5.5106,5.5894,5.6451,5.6697,5.6087,5.588,5.6061,5.5595,5.5593,5.5911,5.631,5.6706,5.7105,5.7303,5.7043,5.6497,5.6497,5.5344,5.3671,5.3416,5.3229,5.3133,5.3215,5.3134,5.3004,5.3108,5.263,5.2075,5.2204,5.1828,5.1357,5.1425,5.0965,5.0624,5.1416,5.0979,5.0523,5.134,5.139,5.1288,5.1371,5.1415,5.1414,5.1414,5.1527,5.1641,5.1641,5.1753,5.1791,5.1679,5.1783,5.195,5.2108,5.2805,5.3323,5.334,5.3945,5.4396,5.4428,5.4431,5.4413,5.4409,5.4424,5.4439,5.4489,5.4492,5.449,5.4434,5.4434,5.4375,5.4314,5.4973,5.5272,5.5251,5.5953,5.5526,3.3572,3.2739,3.3157,3.4727,3.6917,3.8698,0.0,4.0882,4.2842,4.2626,4.4034,4.5488,4.63,4.714,4.7954,4.8735,4.8976,4.9422,5.0463,5.113,5.1647,5.1942,5.2001,5.2361,5.3203,5.3831,5.4216,5.4216,5.4884,5.5341,5.5426,5.5426,5.5428,5.5432,5.5528,5.5658,5.5792,5.5893,5.6134,5.6437,5.6366,5.6344,5.6362,5.696,5.7231,5.7313,5.762,5.8052,5.8435,5.7709,5.7354,5.7286,5.7286,5.7111,5.6732,5.5365,5.4426,5.3881,5.4006,5.3592,5.3009,5.3156,5.3115,5.3038,5.3049,5.3007,5.2921,5.2964,5.2878,5.2861,5.3088,5.2492,5.1926,5.228,5.1775,5.1253,5.1381,5.1381,5.1414,5.1414,5.1982,5.247,5.247,5.3065,5.3288,5.2582,5.3139,5.3894,5.4581,5.5407,5.5896,5.5907,5.6031,5.6151,5.6287,5.6296,5.6303,5.6305,5.6319,5.6286,5.6326,5.6328,5.6328,5.6289,5.6289,5.6243,5.6208,5.6286,5.6251,5.6162,5.6239,5.6207,3.6212,3.6807,3.7604,3.9301,4.0566,4.1549,4.2064,4.3127,4.4292,4.5157,4.5993,4.6782,4.753,4.8192,4.8755,4.8959,4.9415,5.004,5.0871,5.1294,5.1931,5.3011,5.3083,5.3043,5.3043,5.4254,5.4753,5.4177,5.4973,5.5493,5.5493,5.5493,5.5493,5.5493,5.5493,5.5552,5.5663,5.5663,5.5807,5.612,5.612,5.6217,5.6396,5.6724,5.6989,5.7231,5.7769,5.8291,5.8743,5.8787,5.8549,5.815,5.815,5.7846,5.7286,5.6184,5.5603,5.5296,5.4865,5.4498,5.4238,5.4331,5.4055,5.3678,5.371,5.3387,5.3048,5.3042,5.3015,5.3037,5.3087,5.2858,5.2588,5.2771,5.251,5.2301,5.2558,5.262,5.2667,5.2756,5.3065,5.3288,5.3288,5.3584,5.3842,5.4031,5.3935,5.3956,5.4286,5.5088,5.5786,5.6287,5.6406,5.6482,5.6557,5.6588,5.6581,5.6581,5.6595,5.6599,5.6599,5.66,5.6601,5.6601,5.6599,5.6595,5.6545,5.6545,5.6535,5.6471,5.6471,5.6748,3.8508,3.9741,4.0558,4.2509,4.3173,4.3568,4.4533,4.4884,4.5369,4.6621,4.7229,4.7694,4.8195,4.8881,4.9296,4.9138,4.9716,5.0369,5.1092,5.1488,5.2242,5.3672,5.3812,5.356,5.3039,5.4443,5.5136,5.4469,5.51,5.5493,5.5493,5.5493,5.5493,5.5493,5.5493,5.5493,5.5493,5.5493,5.561,5.5793,5.5793,5.5922,5.6134,5.6217,5.6519,5.7057,5.7661,5.8232,5.8786,5.9463,5.945,5.8949,5.9006,5.8642,5.8006,5.7226,5.6793,5.6504,5.5731,5.5462,5.5438,5.526,5.4828,5.4384,5.4434,5.4,5.3547,5.3563,5.3575,5.3575,5.3575,5.3383,5.3238,5.3336,5.3146,5.3085,5.3366,5.3423,5.3511,5.3675,5.3925,5.4122,5.4152,5.4342,5.4711,5.5377,5.4935,5.4523,5.4507,5.5032,5.5662,5.6313,5.6471,5.6405,5.6171,5.6404,5.6475,5.6241,5.6479,5.6598,5.6598,5.6598,5.6598,5.6598,5.6595,5.6593,5.6593,5.6593,5.6592,5.6629,5.6824,5.7253,3.888,3.9058,3.9062,4.2001,4.3345,4.4226,4.5174,4.6068,4.6688,4.6623,4.7845,4.8924,4.8783,4.9453,4.9985,4.9976,4.984,5.0119,5.1306,5.1909,5.2634,5.3868,5.3832,5.3637,5.34,5.4472,5.5292,5.544,5.5472,5.5493,5.5493,5.5493,5.5493,5.5493,5.5493,5.5493,5.5493,5.5493,5.5493,5.5507,5.5507,5.5522,5.5537,5.5807,5.6317,5.7009,5.7579,5.8069,5.8574,5.9308,5.9578,5.9595,5.9782,5.9856,5.9742,5.8908,5.8074,5.7263,5.6585,5.6376,5.6245,5.5542,5.5275,5.5275,5.5244,5.5244,5.5244,5.5244,5.5244,5.5244,5.5244,5.4639,5.4089,5.4156,5.3556,5.3046,5.3164,5.3274,5.3351,5.3468,5.4245,5.4926,5.5041,5.576,5.6314,5.635,5.635,5.6292,5.623,5.6251,5.6281,5.6377,5.6479,5.6154,5.5298,5.6014,5.6133,5.5311,5.6091,5.6593,5.6593,5.6593,5.6593,5.6593,5.6593,5.6593,5.6593,5.6593,5.6589,5.6621,5.7403,5.7788,3.9192,4.0395,4.172,4.3809,4.4632,4.5164,4.6015,4.6023,4.6153,4.7148,4.7189,4.7247,4.7818,4.8418,4.8849,4.9039,4.9414,5.0227,5.176,5.1538,5.202,5.4075,5.3767,5.3626,5.4273,5.4238,5.4213,5.4306,5.4938,5.5354,5.5493,5.5493,5.5703,5.621,5.6245,5.649,5.7002,5.649,5.6245,5.621,5.5738,5.5493,5.5493,5.5596,5.5758,5.6041,5.7054,5.7592,5.7867,5.888,5.9447,5.9616,5.9676,5.9786,5.9856,5.959,5.9325,5.8878,5.7529,5.7051,5.6945,5.6161,5.591,5.5796,5.5225,5.5035,5.5035,5.5035,5.5035,5.5035,5.5035,5.4845,5.4652,5.4713,5.4517,5.4409,5.4666,5.4736,5.4858,5.5171,5.5483,5.5757,5.5927,5.6205,5.6389,5.6389,5.6389,5.6381,5.6361,5.6336,5.6314,5.6321,5.6359,5.6244,5.5934,5.6247,5.6313,5.6091,5.6366,5.6562,5.6593,5.6589,5.6586,5.6586,5.6619,5.685,5.7398,5.7398,5.7708,5.8289,5.9149,5.981,4.0584,4.2015,4.343,4.4891,4.5566,4.5893,4.6134,4.6203,4.6445,4.7169,4.6976,4.6828,4.7297,4.7629,4.7985,4.8441,4.8945,4.9923,5.1934,5.1688,5.2103,5.4231,5.3719,5.3596,5.4599,5.4252,5.4024,5.4157,5.4794,5.5362,5.5801,5.5858,5.6237,5.6997,5.7017,5.7298,5.779,5.7298,5.7017,5.7017,5.6561,5.63,5.63,5.6034,5.5756,5.5571,5.6512,5.6805,5.6745,5.8216,5.8947,5.914,5.9391,5.9633,5.9795,5.9795,5.9836,5.9704,5.8339,5.7839,5.7733,5.6899,5.6626,5.6474,5.5602,5.5375,5.5299,5.4996,5.492,5.4928,5.4919,5.4927,5.4941,5.5021,5.5042,5.5106,5.5301,5.5364,5.5508,5.5836,5.5913,5.6001,5.6287,5.6391,5.6459,5.6459,5.641,5.6399,5.6391,5.6322,5.6308,5.6319,5.6324,5.6154,5.5843,5.6182,5.6281,5.6006,5.6323,5.6523,5.6587,5.6893,5.7045,5.7045,5.7312,5.7894,5.8714,5.8714,5.9183,6.004,6.0939,6.1642,4.2841,4.3769,4.4115,4.5204,4.6031,4.641,4.5673,4.6583,4.7376,4.6658,4.7016,4.7365,4.7003,4.7011,4.734,4.8153,4.8355,4.9305,5.184,5.2155,5.2705,5.4303,5.3731,5.3558,5.4467,5.4482,5.462,5.5057,5.5156,5.558,5.6437,5.6537,5.6949,5.784,5.786,5.7895,5.793,5.7895,5.786,5.779,5.779,5.779,5.779,5.7017,5.6297,5.5739,5.6219,5.6035,5.5584,5.7478,5.8256,5.8354,5.9015,5.9391,5.9598,5.9598,5.9719,5.9763,5.9006,5.8748,5.8605,5.7771,5.746,5.7308,5.6512,5.6247,5.6095,5.5223,5.4958,5.498,5.4985,5.5007,5.5028,5.5106,5.5127,5.5127,5.5127,5.5188,5.5275,5.5455,5.5566,5.5755,5.6128,5.636,5.6505,5.6505,5.6485,5.6459,5.6394,5.6325,5.6317,5.6383,5.6319,5.5952,5.5133,5.593,5.6124,5.5277,5.6167,5.6716,5.6806,5.7583,5.8011,5.8011,5.8791,5.965,6.0549,6.0549,6.0978,6.1836,6.2735,6.3125,4.3085,4.4598,4.5935,4.623,4.6445,4.6686,4.7031,4.6535,4.5848,4.5411,4.4857,4.4156,4.3344,4.4491,4.5771,4.6366,4.795,4.974,5.1703,5.1507,5.1945,5.4042,5.3641,5.376,5.5169,5.522,5.5417,5.6065,5.6485,5.6962,5.7414,5.7458,5.7842,5.8667,5.8687,5.8948,5.951,5.8983,5.8371,5.779,5.779,5.779,5.779,5.7579,5.7409,5.7275,5.7797,5.8152,5.8444,5.8747,5.9176,5.9665,5.9238,5.9197,5.9364,5.9364,5.9481,5.9647,5.9458,5.9475,5.9476,5.8642,5.8377,5.8226,5.7354,5.7081,5.6944,5.6171,5.592,5.5828,5.5223,5.5085,5.5106,5.5143,5.5163,5.5215,5.53,5.5326,5.5377,5.5561,5.5834,5.6089,5.6162,5.636,5.6461,5.6443,5.6977,5.7123,5.6497,5.6336,5.6308,5.6317,5.6326,5.623,5.5993,5.6766,5.7217,5.6997,5.8434,5.9329,5.9373,6.0214,6.0704,6.0704,6.0938,6.1485,6.2345,6.2345,6.2774,6.3673,6.4531,6.4921,4.4436,4.5639,4.6686,4.6996,4.7065,4.6982,4.656,4.5814,4.4876,4.3827,4.3142,4.2507,4.185,4.3013,4.4409,4.5487,4.7119,4.9091,5.1557,5.1589,5.2051,5.3977,5.4203,5.4533,5.5412,5.604,5.6532,5.6947,5.6892,5.7176,5.7877,5.7988,5.8492,5.944,5.9475,5.9685,6.0107,5.9685,5.9264,5.8808,5.8808,5.8808,5.8808,5.8492,5.8164,5.7861,5.8107,5.8251,5.8326,5.9003,5.9516,5.991,5.9956,5.9834,5.9683,5.9683,5.9581,5.9492,5.9492,5.9616,5.9711,5.9338,5.9211,5.9059,5.8226,5.7984,5.7833,5.7043,5.6852,5.6782,5.6404,5.6273,5.621,5.591,5.5809,5.5746,5.5466,5.5396,5.5403,5.5517,5.6063,5.6523,5.6583,5.7068,5.747,5.7494,5.7915,5.8062,5.7559,5.745,5.743,5.743,5.7399,5.7418,5.7418,5.7845,5.8136,5.8167,5.9122,5.9886,6.0273,6.1166,6.1855,6.2267,6.2265,6.2696,6.3556,6.3204,6.3438,6.4298,6.4805,6.5038,4.6057,4.6637,4.6893,4.7548,4.7686,4.7243,4.5508,4.4923,4.4214,4.2367,4.1899,4.1751,4.1611,4.2366,4.3605,4.5363,4.6525,4.8295,5.1388,5.1977,5.2627,5.4125,5.5027,5.5529,5.5627,5.6796,5.7603,5.7672,5.6939,5.7042,5.8219,5.8403,5.8956,6.0052,6.0107,6.0107,6.0107,6.0107,6.0107,6.0107,6.0107,6.0107,6.0072,5.944,5.8816,5.8195,5.8131,5.7832,5.7516,5.9012,5.9756,5.9974,6.0865,6.0858,6.0326,6.0326,5.9933,5.9441,5.9441,5.9495,5.9607,5.9795,5.9877,5.9796,5.9075,5.8903,5.8783,5.7954,5.774,5.7775,5.7815,5.7798,5.7659,5.6925,5.6785,5.6594,5.5899,5.574,5.5753,5.5753,5.6497,5.7135,5.7273,5.8094,5.8767,5.8892,5.9,5.906,5.9053,5.8975,5.8898,5.8898,5.8833,5.8813,5.8813,5.8891,5.8982,5.9044,5.9297,5.9762,6.0582,6.1484,6.2341,6.3135,6.3168,6.3556,6.4298,6.3556,6.3556,6.4298,6.4298,6.4298,4.6009,4.6834,4.7548,4.7686,4.7686,4.7458,4.6518,4.506,4.3547,4.226,4.1284,4.0842,4.1394,4.2732,4.4335,4.6205,4.7784,4.9424,5.1151,5.1657,5.2578,5.4559,5.5264,5.5948,5.6901,5.7178,5.7555,5.8077,5.7801,5.8153,5.9297,5.9362,5.9615,6.0072,6.0107,6.0107,6.0107,6.0107,6.0107,6.0107,6.0107,6.0107,6.0107,5.9966,5.9847,5.9732,5.9726,6.0193,6.0968,6.0566,6.1015,6.1843,6.1381,6.1134,6.1018,6.1018,6.0607,6.0043,6.0043,5.974,5.9373,5.9598,5.9811,5.996,5.98,5.9824,5.9711,5.8932,5.8733,5.8609,5.8037,5.7866,5.7835,5.7695,5.7657,5.7619,5.7504,5.7466,5.7538,5.7689,5.7944,5.8201,5.8389,5.8664,5.8883,5.8913,5.9493,5.9947,5.9918,5.9251,5.8823,5.8823,5.8817,5.8813,5.8813,5.9477,5.9876,5.9899,6.1289,6.221,6.2358,6.327,6.3828,6.3983,6.4042,6.4142,6.4298,6.4142,6.4142,6.4298,6.4298,6.4298,4.598,4.6587,4.7203,4.7617,4.741,4.6704,4.5176,4.378,4.2335,4.0644,3.9854,3.9627,3.9974,4.1037,4.2658,4.5051,4.6538,4.8354,5.1208,5.1803,5.2754,5.4861,5.5598,5.6324,5.7307,5.7688,5.7936,5.8152,5.805,5.8376,5.9233,5.9634,5.9911,6.0107,6.0107,6.0107,6.0107,6.0107,6.0107,6.0107,6.0107,6.0107,6.0107,6.0107,6.0107,6.0107,6.0107,6.0164,6.0344,6.1005,6.1344,6.1533,6.2198,6.2179,6.1808,6.1808,6.1363,6.0725,6.075,6.0389,5.9909,6.005,5.9999,5.9856,5.9942,6.0068,6.0121,5.9783,5.9712,5.964,5.9293,5.9192,5.9078,5.8651,5.8158,5.7794,5.7794,5.7759,5.7814,5.807,5.8527,5.8955,5.9284,5.9719,6.0074,6.0193,6.055,6.0815,6.0798,6.0406,6.0134,6.0134,6.0134,6.0134,6.0134,6.0522,6.0798,6.0798,6.1603,6.2291,6.2781,6.3243,6.3707,6.4179,6.381,6.3634,6.3634,6.3164,6.2969,6.2969,6.3399,6.3868,4.5997,4.6404,4.6755,4.7307,4.7031,4.6001,4.3824,4.2637,4.1429,3.9462,3.8884,3.8834,3.9215,3.9865,4.132,4.4349,4.5296,4.7093,5.1269,5.1776,5.2674,5.5203,5.6029,5.674,5.7641,5.8177,5.8395,5.821,5.821,5.8455,5.8978,5.9617,6.0043,6.0107,6.0107,6.0107,6.0107,6.0107,6.0107,6.0107,6.0107,6.0107,6.0107,6.0107,6.0107,6.0107,6.0107,5.9694,5.9146,6.11,6.1441,6.0981,6.2855,6.3219,6.2662,6.2695,6.2186,6.1501,6.1582,6.1168,6.0656,6.08,6.0338,5.974,5.9885,6.0068,6.0272,6.0301,6.0366,6.0415,6.0415,6.0415,6.0224,5.9529,5.8779,5.8273,5.8273,5.8201,5.822,5.8545,5.9131,5.9765,6.0158,6.0742,6.1232,6.1363,6.1416,6.1416,6.1416,6.1416,6.1416,6.1416,6.1416,6.1416,6.1416,6.1416,6.1416,6.1416,6.1416,6.1742,6.2471,6.2528,6.2862,6.3592,6.3,6.2706,6.2735,6.2226,6.207,6.2265,6.3164,6.4023,4.6091,4.6589,4.6617,4.6686,4.6652,4.6095,4.4106,4.2809,4.167,4.0501,3.9414,3.9215,4.0917,4.1379,4.2549,4.5931,4.5877,4.6892,5.1129,5.0993,5.1886,5.5764,5.648,5.7102,5.8307,5.8583,5.8609,5.846,5.8564,5.8755,5.8995,5.9401,5.98,6.0107,6.0107,6.0107,6.0107,6.0107,6.0107,6.0107,6.0107,6.0107,6.0107,6.0107,6.0107,6.0107,6.0107,5.9912,5.9727,6.1276,6.1667,6.1485,6.2989,6.3553,6.349,6.3613,6.3173,6.2487,6.2545,6.2048,6.1406,6.1564,6.0735,5.974,5.9912,6.003,6.0174,6.0328,6.0408,6.0415,6.0415,6.0415,6.0377,6.03,6.0161,6.0058,6.0058,5.9961,6.0008,6.0459,6.0614,6.0797,6.1172,6.131,6.1363,6.1412,6.1416,6.1416,6.1416,6.1416,6.1416,6.1416,6.1416,6.1416,6.1416,6.1416,6.1416,6.1416,6.1416,6.1423,6.1514,6.1604,6.1664,6.1767,6.1756,6.1751,6.1836,6.254,6.3282,6.4064,6.496,6.5819,4.4378,4.5274,4.5893,4.5893,4.5893,4.5342,4.3272,4.2378,4.1403,3.9231,3.8755,3.8837,3.9174,3.9613,4.0797,4.3287,4.3397,4.4859,4.9685,5.0063,5.1525,5.6046,5.6592,5.7161,5.8646,5.8746,5.8676,5.8636,5.8104,5.8162,5.8944,5.9149,5.9401,5.98,5.9816,5.9914,6.0107,6.0107,6.0107,6.0107,6.0107,6.0107,6.0123,6.0497,6.063,6.0646,6.1016,6.0335,5.9088,6.1495,6.1579,6.0434,6.2827,6.3764,6.3802,6.3856,6.3654,6.3414,6.352,6.3011,6.2358,6.2506,6.1817,6.0884,6.0588,6.0671,6.0791,6.0326,6.0306,6.0415,6.0415,6.0415,6.0401,6.0352,6.0279,6.0167,6.0122,6.0045,6.0091,6.0437,6.0618,6.0767,6.1096,6.1287,6.1416,6.1416,6.1416,6.1416,6.1416,6.1416,6.1416,6.1416,6.1416,6.1416,6.1416,6.1416,6.1416,6.1416,6.1416,6.1416,6.1416,6.147,6.1509,6.1506,6.2036,6.234,6.2415,6.3822,6.4713,6.5116,6.6483,6.7576,4.2837,4.4175,4.5304,4.5384,4.5109,4.4399,4.2622,4.1705,4.057,3.8198,3.811,3.8317,3.7806,3.8389,3.9547,4.1413,4.2114,4.391,4.8134,4.9139,5.1084,5.5497,5.5913,5.6664,5.8797,5.8873,5.8776,5.8727,5.8059,5.8005,5.8789,5.8737,5.8871,5.9385,5.9402,5.9564,5.9898,5.9898,6.0004,6.0266,6.0266,6.0078,5.9835,6.0698,6.097,6.0718,6.1602,6.0908,5.9335,6.1915,6.1819,6.0351,6.2926,6.3894,6.3905,6.3937,6.3958,6.3968,6.4094,6.3798,6.3331,6.3438,6.3045,6.2398,6.1713,6.1521,6.1479,6.0974,6.0767,6.064,6.039,6.0306,6.0292,6.0264,6.0159,6.0045,6.0029,5.995,5.9998,6.0237,6.045,6.0701,6.0964,6.1232,6.1416,6.1416,6.1416,6.1416,6.1416,6.1416,6.1416,6.1416,6.1416,6.1416,6.1416,6.1416,6.1416,6.1416,6.1416,6.1532,6.1765,6.1822,6.1962,6.2228,6.2834,6.3328,6.3672,6.5156,6.6167,6.6756,6.82,6.9333,4.1971,4.3731,4.5076,4.5331,4.4508,4.3372,4.2437,4.0769,3.9114,3.7956,3.7703,3.7703,3.7703,3.8425,3.96,4.1422,4.3096,4.4805,4.6666,4.828,5.0537,5.383,5.425,5.5488,5.8701,5.9012,5.8944,5.8806,5.8788,5.8701,5.8525,5.8084,5.8139,5.8885,5.8917,5.9089,5.939,5.9406,5.9815,6.0594,6.0594,6.0054,5.9168,6.0696,6.0847,5.9992,6.1534,6.1679,6.0999,6.2463,6.258,6.1917,6.3343,6.3894,6.3915,6.4031,6.4111,6.4131,6.4254,6.4294,6.4294,6.4294,6.4294,6.4106,6.3308,6.2626,6.2178,6.2469,6.2056,6.127,6.035,6.0099,6.0099,6.0099,6.0038,6.0013,6.0013,5.995,5.9998,6.0237,6.045,6.0701,6.0964,6.1232,6.1416,6.1416,6.1416,6.1416,6.1416,6.1416,6.1416,6.1416,6.1416,6.1416,6.1416,6.1416,6.1416,6.1416,6.1416,6.1804,6.2663,6.2701,6.3081,6.3974,6.3977,6.4497,6.5469,6.6367,6.7651,6.9373,7.027,7.1128,3.8211,3.9852,4.1217,4.1383,4.1148,4.0618,3.9734,3.9013,3.8226,3.7204,3.7407,3.7794,3.7812,3.8507,3.98,4.2041,4.2941,4.471,4.855,4.9749,5.1632,5.5322,5.6792,5.7883,5.8909,5.8477,5.8333,5.8892,5.8376,5.8286,5.8789,5.844,5.8321,5.8532,5.8246,5.8244,5.8647,5.8662,5.8768,5.9036,5.9547,5.925,5.8367,6.0883,6.1452,6.058,6.2496,6.2661,6.1633,6.3153,6.3011,6.2033,6.3558,6.4183,6.4193,6.4224,6.4193,6.4121,6.4162,6.4083,6.4011,6.4011,6.4021,6.3994,6.3711,6.3328,6.285,6.2423,6.2071,6.1805,6.1633,6.1581,6.1644,6.1709,6.1283,6.0871,6.0777,6.0289,5.9926,5.9999,6.0358,6.0612,6.0724,6.1109,6.1416,6.1416,6.1416,6.1416,6.1416,6.1921,6.227,6.227,6.2818,6.2701,6.1494,6.196,6.227,6.227,6.2857,6.3284,6.3595,6.3595,6.3733,6.3972,6.4555,6.5307,6.6312,6.7757,6.9375,7.1169,7.145,7.1728,3.5917,3.7864,3.9449,3.9623,3.9325,3.8878,3.8408,3.7705,3.703,3.6757,3.7555,3.8258,3.7958,3.9076,4.0331,4.1199,4.3057,4.5143,4.7436,4.9905,5.2578,5.5536,5.7661,5.8887,5.8806,5.8315,5.8225,5.8772,5.8315,5.8276,5.8892,5.8345,5.8081,5.8145,5.7704,5.765,5.8023,5.8023,5.8165,5.847,5.8932,5.8616,5.7758,6.0668,6.1434,6.0576,6.2987,6.3552,0.0,6.3801,6.3626,6.2907,6.3851,6.4224,6.4224,6.4172,6.4111,6.4011,6.4011,6.3958,6.3894,6.3894,6.3905,6.3915,6.3905,6.3781,6.3465,6.2674,6.2438,6.2362,6.2171,6.2122,6.2158,6.2298,6.1982,6.1612,6.1591,6.1289,6.1004,6.1004,6.1383,6.1737,6.1737,6.2095,6.2387,6.2387,6.2387,6.2387,6.2387,6.2857,6.3206,6.3206,6.3676,6.3556,6.2468,6.2896,6.3206,6.3206,6.3715,6.4142,6.445,6.445,6.4605,6.4955,6.546,6.6166,6.7158,6.888,7.0508,7.1995,7.2003,7.1813,0.0,3.7119,3.9045,3.933,3.8544,3.7762,3.8028,3.6762,0.0,3.677,3.8208,3.9036,3.8314,4.0183,4.1321,3.9682,4.3558,4.6201,4.4636,4.9339,5.3466,5.4929,5.7202,5.8646,5.853,5.8509,5.8508,5.8508,5.8508,5.8578,5.8753,5.7913,5.7494,5.7646,5.7258,5.722,5.7503,5.763,5.7938,5.8502,5.8788,5.83,5.7303,6.0274,6.1087,6.0275,6.3085,6.4294,6.4294,6.4284,6.4284,6.4274,6.4152,6.4111,6.4052,6.3937,6.3894,6.3883,6.3883,6.3883,6.3873,6.3873,6.3873,6.3873,6.3873,6.4031,6.3998,6.3137,6.2986,6.2935,6.2162,6.1955,6.2003,6.2212,6.222,6.2209,6.2429,6.2657,6.277,6.2813,6.3258,6.3603,6.3613,6.3804,6.3987,6.3987,6.3987,6.3987,6.3987,6.4065,6.4104,6.4104,6.4142,6.4181,6.4181,6.4104,6.4104,6.4104,6.4142,6.4527,6.5262,6.53,6.5689,6.647,6.6559,6.7071,6.7981,6.9673,7.0973,7.1928,7.189,7.1466,3.1455,0.0,3.5147,3.5315,3.5165,3.5151,0.0,3.5817,3.6283,3.8964,3.9842,4.0236,4.0586,4.2687,4.4003,4.2885,4.5925,4.8675,4.94,5.2827,5.5735,5.6895,5.7919,5.8564,5.866,5.8565,5.8508,5.8508,5.8508,5.8525,5.8561,5.8031,5.7603,5.7336,5.6875,5.6655,5.6668,5.7693,5.7621,5.6528,5.9447,5.9638,5.7465,6.1285,6.2454,6.1553,6.3468,6.4294,6.4284,6.4193,6.4162,6.4152,6.399,6.3937,6.3937,6.3905,6.3888,6.3823,6.3823,6.3758,6.3669,6.3669,6.3669,6.3669,6.3669,6.3791,6.3862,6.3643,6.3525,6.3461,6.3435,6.3402,6.3453,6.3666,6.3226,6.2909,6.3323,6.2895,6.2566,6.3008,6.3305,6.3469,6.3598,6.3804,6.3987,6.3987,6.3987,6.3987,6.3987,6.4527,6.4912,6.4912,6.5498,6.5926,6.5926,6.53,6.4912,6.4912,6.5537,6.6003,6.6198,6.6194,6.6275,6.6508,6.721,6.8023,6.8891,6.9366,7.0077,7.099,7.1005,7.0893,3.0283,3.2,3.3731,3.4976,3.4693,3.4542,3.6278,3.6038,3.6428,3.9722,4.0391,4.0627,4.1388,4.326,4.4396,4.3464,4.612,4.9399,5.2423,5.4698,5.6516,5.7823,5.7902,5.8014,5.8387,5.8307,5.8207,5.8207,5.8207,5.8243,5.8366,5.7929,5.7583,5.7484,5.685,5.6403,5.6175,5.7518,5.7539,5.6269,5.932,5.9857,5.815,6.1351,6.2483,6.199,6.2694,6.343,6.4056,6.3246,6.3327,6.399,6.3873,6.3867,6.3856,6.3802,6.3747,6.3691,6.3691,6.3647,6.359,6.359,6.359,6.359,6.359,6.3635,6.3691,6.3691,6.3647,6.3624,6.372,6.3753,6.3819,6.4015,6.3729,6.3563,6.4081,6.3916,6.378,6.4289,6.4563,6.4769,6.4826,6.4993,6.5149,6.5149,6.5149,6.5149,6.5149,6.5537,6.5805,6.5805,6.6237,6.6508,6.6508,6.6077,6.5805,6.5805,6.6237,6.6508,6.6508,6.6508,6.6508,6.6508,6.6983,6.7894,6.9184,6.8882,6.9373,7.0684,7.0306,6.992,2.9943,3.1658,3.3586,3.6165,3.5598,3.5072,3.7608,3.6993,3.6844,4.0246,4.0962,4.126,4.2173,4.3913,4.4772,4.3476,4.6085,4.9891,5.4367,5.565,5.6688,5.8132,5.7658,5.7459,5.8038,5.7979,5.79,5.79,5.79,5.7954,5.8169,5.7788,5.7621,5.7722,5.7,5.648,5.624,5.7621,5.791,5.7142,5.9492,6.0115,5.9249,6.1338,6.2273,6.2259,6.2002,6.2635,6.3782,6.2438,6.2651,6.3862,6.3791,6.3758,6.3747,6.3635,6.359,6.359,6.359,6.359,6.359,6.359,6.359,6.359,6.359,6.359,6.359,6.359,6.359,6.359,6.359,6.359,6.3647,6.3819,6.3835,6.4036,6.4677,6.4992,6.5267,6.5776,6.6084,6.6263,6.6276,6.6381,6.6431,6.6431,6.6442,6.645,6.645,6.6501,6.6508,6.6508,6.6508,6.6508,6.6508,6.6508,6.6508,6.6508,6.6508,6.6508,6.6508,6.6508,6.6508,6.6508,6.6508,6.7319,6.9024,6.8186,6.8655,7.0302,6.9566,6.8866,2.9116,3.1216,3.353,3.6157,3.6046,3.5967,3.8506,3.8294,3.8685,4.2691,4.3543,4.397,4.538,4.8095,4.9145,4.6226,4.9016,5.2594,5.5571,5.6429,5.7156,5.8188,5.7976,5.7861,5.8082,5.7979,5.79,5.79,5.79,5.79,5.7936,5.7889,5.7695,5.738,5.7261,5.736,5.7762,5.8996,5.9383,5.9036,6.1908,6.2464,6.0975,6.28,6.3611,6.3621,6.3537,6.3681,6.3894,6.3584,6.3589,6.3791,6.3669,6.3624,6.3613,6.3602,6.359,6.359,6.359,6.359,6.359,6.359,6.359,6.359,6.359,6.359,6.359,6.359,6.359,6.359,6.359,6.359,6.3602,6.3635,6.3647,6.3878,6.4705,6.4816,6.5037,6.5974,6.6096,6.6096,6.6195,6.6225,6.6235,6.6235,6.6272,6.6325,6.6325,6.6427,6.6508,6.6508,6.6508,6.6508,6.6508,6.6508,6.6508,6.6508,6.6508,6.6508,6.6508,6.6508,6.6508,6.6508,6.6508,6.707,6.8185,6.7307,6.7471,6.859,6.8437,6.832,2.8693,3.102,3.3837,3.788,3.7841,3.7742,4.1328,4.065,4.0478,4.4772,4.4445,4.4077,4.6203,4.8171,4.9493,4.9674,5.2296,5.4683,5.5779,5.6493,5.7219,5.8086,5.769,5.755,5.8064,5.7979,5.79,5.79,5.79,5.79,5.79,5.79,5.7803,5.7625,5.7775,5.8314,5.9335,6.0183,6.0371,5.9975,6.2509,6.3092,6.1932,6.3166,6.3758,6.3672,6.2827,6.2938,6.3672,6.2772,6.2899,6.368,6.3613,6.359,6.359,6.359,6.359,6.359,6.359,6.359,6.359,6.359,6.359,6.359,6.359,6.359,6.359,6.359,6.359,6.359,6.359,6.359,6.359,6.359,6.359,6.3803,6.4608,6.4731,6.4995,6.5928,6.6102,6.6144,6.6254,6.6315,6.6346,6.6346,6.6385,6.6414,6.6414,6.6446,6.6508,6.6508,6.6508,6.6508,6.6508,6.6508,6.6508,6.6508,6.6508,6.6508,6.6508,6.6508,6.6508,6.6508,6.6508,6.6989,6.7985,6.7145,6.7233,6.82,6.7734,6.75,2.8582,3.111,3.4204,3.8857,3.895,3.91,4.3827,4.2691,4.1944,4.6362,4.5526,4.4784,4.7474,4.8675,5.0139,5.2687,5.4869,5.6234,5.6291,5.6789,5.7374,5.7993,5.7528,5.7374,5.7993,5.7958,5.79,5.79,5.79,5.79,5.79,5.79,5.7972,5.8119,5.834,5.9192,6.071,6.115,6.1247,6.109,6.2766,6.3293,6.2699,6.333,6.359,6.3516,6.229,6.2439,6.3516,6.2253,6.2476,6.359,6.359,6.359,6.359,6.359,6.359,6.359,6.359,6.359,6.359,6.359,6.359,6.359,6.359,6.359,6.359,6.359,6.359,6.359,6.359,6.359,6.359,6.359,6.368,6.391,6.4556,6.4777,6.5059,6.582,6.6063,6.6175,6.622,6.6351,6.6449,6.6449,6.6427,6.6442,6.6442,6.6497,6.6508,6.6508,6.6508,6.6508,6.6508,6.6508,6.6508,6.6508,6.6508,6.6508,6.6508,6.6508,6.6508,6.6508,6.6535,6.6891,6.7706,6.7039,6.7122,6.7889,6.7226,6.6914,2.8708,3.1534,3.4643,3.7347,3.7925,3.9213,4.4577,4.3579,4.2752,4.722,4.7792,4.8307,5.087,5.2515,5.3718,5.453,5.5919,5.7197,5.7924,5.7895,5.7839,5.7907,5.7873,5.7855,5.7907,5.7902,5.79,5.79,5.79,5.79,5.79,5.79,5.8191,5.8823,5.884,5.9778,6.1665,6.1738,6.2178,6.3011,6.3391,6.3553,6.3516,6.3553,6.359,6.359,6.3479,6.3479,6.359,6.3479,6.3516,6.359,6.359,6.359,6.359,6.359,6.359,6.359,6.359,6.359,6.359,6.359,6.359,6.359,6.359,6.359,6.359,6.359,6.359,6.359,6.359,6.359,6.359,6.359,6.3894,6.4251,6.4619,6.5009,6.5404,6.5814,6.5976,6.6024,6.603,6.6134,6.621,6.621,6.6253,6.6312,6.6312,6.6422,6.6508,6.6508,6.6508,6.6508,6.6508,6.6508,6.6508,6.6508,6.6508,6.6508,6.6508,6.6508,6.6508,6.6508,6.6575,6.667,6.6785,6.6794,6.6865,6.6992,6.6914,6.6914,2.9886,3.26,3.5703,4.0082,4.0524,4.0957,4.4929,4.4871,4.5118,4.9168,4.9689,4.9845,5.1298,5.3264,5.4696,5.4769,5.6079,5.7278,5.7927,5.7936,5.79,5.79,5.79,5.79,5.79,5.79,5.79,5.79,5.79,5.8065,5.8511,5.8528,5.8841,5.9578,5.9979,6.0646,6.1534,6.2116,6.2693,6.3183,6.3477,6.359,6.359,6.359,6.359,6.359,6.359,6.359,6.359,6.359,6.359,6.359,6.359,6.359,6.359,6.359,6.359,6.359,6.359,6.359,6.359,6.359,6.359,6.359,6.359,6.359,6.359,6.359,6.359,6.359,6.359,6.359,6.359,6.359,6.3926,6.4291,6.4628,6.5025,6.5417,6.5877,6.5978,6.6058,6.6162,6.622,6.6306,6.6364,6.6402,6.6422,6.6422,6.6489,6.6508,6.6508,6.6508,6.6508,6.6508,6.6508,6.6508,6.6508,6.6508,6.6508,6.6508,6.6508,6.6503,6.6575,6.6576,6.6661,6.6755,6.6808,6.6826,6.6914,6.6914,6.6914,3.0784,3.3445,3.6626,4.1339,4.1921,4.2277,4.6012,4.6263,4.6873,5.0879,5.2077,5.2436,5.2666,5.4508,5.5799,5.5262,5.6509,5.7602,5.7871,5.79,5.79,5.79,5.79,5.79,5.79,5.79,5.7991,5.8209,5.8226,5.8528,5.923,5.9264,5.9595,6.0282,6.0777,6.1257,6.1856,6.2477,6.2966,6.3338,6.3511,6.359,6.359,6.359,6.359,6.359,6.359,6.359,6.359,6.359,6.359,6.359,6.359,6.359,6.359,6.359,6.359,6.359,6.359,6.359,6.359,6.359,6.359,6.359,6.359,6.359,6.359,6.359,6.359,6.359,6.359,6.3702,6.3861,6.4095,6.4547,6.5103,6.5559,6.5764,6.596,6.6286,6.6171,6.6019,6.6182,6.6235,6.6329,6.6418,6.6431,6.6439,6.6505,6.6508,6.6508,6.6508,6.6508,6.6508,6.6508,6.6508,6.6508,6.6508,6.6508,6.6508,6.6508,6.6507,6.6562,6.6594,6.6646,6.6714,6.6814,6.6822,6.687,6.6914,6.6914,6.6914,3.1231,3.3933,3.7239,4.0365,4.1395,4.2947,4.7966,4.7773,4.7771,5.2226,5.5081,5.6515,5.5574,5.6716,5.7399,5.6199,5.7365,5.8312,5.7945,5.79,5.79,5.79,5.79,5.79,5.79,5.79,5.8191,5.8858,5.8926,5.9247,5.9966,5.9998,6.0333,6.0992,6.1001,6.1592,6.278,6.2793,6.3051,6.359,6.359,6.359,6.359,6.359,6.359,6.359,6.359,6.359,6.359,6.359,6.359,6.359,6.359,6.359,6.359,6.359,6.359,6.359,6.359,6.359,6.359,6.359,6.359,6.359,6.359,6.359,6.359,6.359,6.359,6.359,6.359,6.3915,6.4407,6.5188,6.5985,6.6804,6.7615,6.7431,6.7096,6.7096,6.6503,6.6007,6.6007,6.6146,6.622,6.629,6.6303,6.6373,6.6497,6.6508,6.6508,6.6508,6.6508,6.6508,6.6508,6.6508,6.6508,6.6508,6.6508,6.6508,6.6508,6.6543,6.6594,6.6596,6.6735,6.6814,6.6815,6.6873,6.6914,6.6914,6.6914,6.6914,3.5278,3.6534,3.7522,4.2145,4.3994,4.5652,4.9206,4.9597,5.0461,5.4712,5.6059,5.6265,5.5388,5.7031,5.7966,5.6404,5.7433,5.8444,5.835,5.833,5.8277,5.8117,5.8099,5.8045,5.79,5.8317,5.8685,5.8909,5.9397,5.9982,6.0651,6.0696,6.1001,6.1664,6.1692,6.1969,6.25,6.25,6.278,6.3338,6.3338,6.3431,6.359,6.359,6.359,6.359,6.359,6.359,6.359,6.359,6.359,6.359,6.359,6.359,6.359,6.359,6.359,6.359,6.359,6.359,6.359,6.359,6.359,6.359,6.359,6.359,6.359,6.359,6.359,6.359,6.359,6.407,6.4539,6.4552,6.5133,6.591,6.6766,6.7048,6.7289,6.7898,6.7847,6.7711,6.7803,6.785,6.7713,6.7275,6.722,6.7023,6.6575,6.6508,6.6508,6.6508,6.6508,6.6508,6.6508,6.6508,6.6508,6.6508,6.6508,6.6508,6.6508,6.6543,6.6621,6.6677,6.6751,6.6823,6.6873,6.6875,6.6914,6.6914,6.6914,6.6914,3.8088,3.9054,4.0113,4.5488,4.6728,4.75,5.1016,5.2066,5.3311,5.6805,5.7468,5.7288,5.679,5.7899,5.8513,5.7427,5.8198,5.8892,5.8561,5.8719,5.8719,5.835,5.8491,5.8545,5.8439,5.8977,5.9445,5.9706,6.0156,6.0666,6.1372,6.1401,6.1594,6.1978,6.2317,6.2613,6.2857,6.3186,6.3555,6.3984,6.4094,6.4227,6.438,6.3842,6.359,6.359,6.359,6.359,6.359,6.359,6.359,6.359,6.359,6.359,6.359,6.359,6.359,6.359,6.359,6.359,6.359,6.359,6.359,6.359,6.359,6.359,6.359,6.359,6.359,6.3635,6.3786,6.4263,6.4721,6.486,6.547,6.6255,6.7137,6.7208,6.7359,6.8237,6.8122,6.8039,6.8462,6.8513,6.8289,6.7672,6.7346,6.6988,6.6579,6.6508,6.6508,6.6508,6.6508,6.6508,6.6508,6.6508,6.6508,6.6508,6.6508,6.6508,6.6508,6.6576,6.6665,6.6705,6.7122,6.7223,6.6914,6.7265,6.7226,6.6914,6.6914,6.6914,3.9979,4.1391,4.3775,4.9135,4.9222,4.9108,5.3494,5.4984,5.6073,5.8429,5.8925,5.8976,5.8995,5.9047,5.9047,5.8927,5.9383,5.9498,5.8789,5.918,5.9314,5.8684,5.9029,5.9297,5.9214,5.9757,6.0359,6.0986,6.106,6.1358,6.1964,6.2064,6.21,6.21,6.2875,6.3411,6.3669,6.4398,6.4898,6.5176,6.5396,6.5533,6.5521,6.4355,6.3813,6.3813,6.3813,6.3813,6.3813,6.3813,6.3813,6.3813,6.3813,6.3813,6.3813,6.3739,6.3702,6.3702,6.3628,6.359,6.359,6.359,6.359,6.359,6.359,6.359,6.359,6.359,6.359,6.3702,6.4098,6.4445,6.4906,6.5738,6.6491,6.7244,6.8084,6.7667,6.7359,6.8237,6.7821,6.759,6.8391,6.8584,6.8411,6.7696,6.6976,6.6508,6.6508,6.6508,6.6508,6.6508,6.6508,6.6508,6.6508,6.6508,6.6508,6.6508,6.6508,6.6512,6.6524,6.6631,6.6705,6.6705,6.7607,6.7695,6.6914,6.7695,6.7656,6.6914,6.6914,6.6914,4.165,4.264,4.341,4.7185,4.9877,5.2777,5.7295,5.7709,5.751,5.8742,5.8787,5.8682,5.8957,5.9433,5.9795,5.9762,5.9841,6.003,6.0355,6.0489,6.0273,5.9513,5.9979,6.0121,5.9412,6.0309,6.0995,6.1127,6.1544,6.1868,6.1978,6.2585,6.2947,6.2947,6.3708,6.4184,6.4241,6.4386,6.4612,6.4885,6.4952,6.5097,6.5281,6.547,6.5559,6.5559,6.5559,6.5559,6.5559,6.5559,6.5559,6.5559,6.5559,6.5559,6.5485,6.4779,6.4556,6.4445,6.3813,6.359,6.359,6.359,6.359,6.359,6.359,6.359,6.359,6.359,6.359,6.3702,6.4098,6.4445,6.4815,6.5318,6.5796,6.6365,6.7212,6.725,6.7359,6.8237,6.8821,6.9206,6.9398,6.9937,6.9913,6.8618,6.732,6.6508,6.6508,6.6508,6.6508,6.6508,6.6508,6.6508,6.6508,6.6508,6.6508,6.6508,6.6508,6.651,6.6597,6.6661,6.6705,6.6705,6.702,6.7109,6.6914,6.7109,6.707,6.6914,6.6914,6.6914,4.1323,4.2966,4.4688,4.9122,5.333,5.6658,5.7752,5.887,5.9666,5.9488,5.9098,5.8781,5.8959,5.9549,5.9985,5.9985,6.0235,6.0524,6.087,6.0879,6.073,6.0324,6.0796,6.0989,6.0555,6.1272,6.1768,6.1662,6.1942,6.2073,6.1992,6.2766,6.3214,6.3214,6.4359,6.4975,6.4975,6.5374,6.5627,6.5747,6.5901,6.6152,6.6574,6.6075,6.5936,6.6079,6.6079,6.6079,6.6079,6.6079,6.6079,6.6079,6.6079,6.6079,6.6042,6.5596,6.5411,6.5373,6.4928,6.4779,6.4779,6.4779,6.4519,6.4185,6.4185,6.3925,6.3635,6.383,6.3731,6.3775,6.4511,6.4728,6.4846,6.5456,6.5755,6.6019,6.6442,6.6519,6.6789,6.7628,6.8129,6.859,6.9007,6.9194,6.9013,6.8253,6.7208,6.6508,6.6508,6.6508,6.6508,6.6508,6.6508,6.6508,6.6508,6.6508,6.6508,6.6508,6.6508,6.6525,6.6591,6.667,6.6718,6.6744,6.7259,6.7305,6.6914,6.7305,6.7305,6.6914,6.6914,6.6914,4.0063,4.3031,4.6736,5.1982,5.6294,5.8799,5.7204,5.8987,6.0784,6.0258,5.9711,5.93,5.9182,5.9695,6.016,6.016,6.0661,6.112,6.1221,6.1236,6.1193,6.1091,6.1556,6.1842,6.1745,6.2149,6.237,6.2265,6.2212,6.2204,6.225,6.2961,6.3468,6.3613,6.5048,6.5808,6.5808,6.646,6.6786,6.6786,6.7011,6.7419,6.7904,6.6578,6.6137,6.6525,6.6525,6.6525,6.6525,6.6525,6.6525,6.6525,6.6525,6.6525,6.6488,6.6339,6.6302,6.6302,6.6153,6.6079,6.6079,6.6079,6.5596,6.5039,6.5039,6.4556,6.4101,6.45,6.4401,6.4364,6.5436,6.5484,6.5389,6.5972,6.6096,6.6058,6.5942,6.5904,6.6096,6.675,6.7019,6.7366,6.8237,6.7882,6.7501,6.7501,6.6937,6.6508,6.6508,6.6508,6.6508,6.6508,6.6508,6.6508,6.6508,6.6508,6.6505,6.6497,6.6497,6.6521,6.6605,6.6631,6.6733,6.6821,6.7576,6.7617,6.6914,6.7617,6.7617,6.6914,6.6914,6.6914,3.8708,4.3553,4.8928,5.2424,5.3924,5.5305,5.8378,5.8067,5.7817,6.0279,6.0721,6.0494,5.9969,6.0375,6.0796,6.0796,6.1322,6.1965,6.2477,6.2541,6.2337,6.1842,6.2308,6.2438,6.1924,6.2295,6.2565,6.2552,6.2331,6.2499,6.3162,6.3886,6.4541,6.5265,6.617,6.6641,6.6641,6.675,6.6786,6.6786,6.683,6.7033,6.73,6.734,6.7661,6.8196,6.8196,6.8196,6.8196,6.8196,6.8196,6.8196,6.8196,6.8196,6.8085,6.7379,6.7156,6.7045,6.6339,6.6079,6.6079,6.6079,6.6005,6.5931,6.5931,6.5856,6.5861,6.6245,6.6339,6.6465,6.727,6.7431,6.7294,6.7024,6.6942,6.675,6.6051,6.5904,6.5936,6.6058,6.6635,6.7366,6.8237,6.7882,6.7501,6.7501,6.6937,6.6508,6.6508,6.6508,6.6508,6.6508,6.6508,6.6508,6.6508,6.6508,6.6493,6.6414,6.641,6.6475,6.6578,6.6592,6.6697,6.6874,6.6992,6.7031,6.6914,6.7031,6.6992,6.6914,6.6914,6.6914,4.0008,4.3572,4.7178,5.292,5.3884,5.4469,5.849,5.8654,5.8619,6.0968,6.1472,6.125,6.0615,6.1018,6.1472,6.1472,6.1696,6.2099,6.2717,6.2503,6.2334,6.2399,6.2654,6.2705,6.2425,6.2603,6.2679,6.2603,6.2488,6.2748,6.347,6.4157,6.4885,6.5684,6.6431,6.6786,6.6786,6.6786,6.6786,6.6786,6.6874,6.7083,6.7424,6.764,6.7954,6.8296,6.8432,6.8493,6.8493,6.8493,6.8493,6.8493,6.8493,6.8493,6.8456,6.8085,6.7973,6.7936,6.7565,6.7453,6.7453,6.7453,6.7156,6.6748,6.6748,6.6622,6.6496,6.6867,6.6994,6.7192,6.7936,6.7974,6.7806,6.7831,6.7821,6.7744,6.7398,6.6551,6.5904,6.5904,6.6211,6.6551,6.6936,6.6879,6.6766,6.6766,6.6627,6.6508,6.6508,6.6508,6.6508,6.6508,6.6508,6.6508,6.6508,6.6508,6.6489,6.6406,6.6402,6.6475,6.6587,6.6592,6.6699,6.6914,6.6914,6.6914,6.6914,6.6914,6.6914,6.6914,6.6914,6.6914,4.0425,4.2488,4.4418,5.1465,5.2302,5.2543,5.6818,5.7765,5.8409,6.0734,6.1593,6.1778,6.145,6.1668,6.1897,6.1897,6.2019,6.2295,6.273,6.2412,6.2308,6.2743,6.2793,6.2793,6.2793,6.2793,6.2755,6.2667,6.2629,6.3004,6.3922,6.438,6.5098,6.6131,6.6634,6.6903,6.6903,6.6903,6.6903,6.6903,6.7026,6.728,6.7573,6.7836,6.803,6.8095,6.8383,6.8493,6.8493,6.8493,6.8493,6.8493,6.8493,6.8493,6.8493,6.853,6.8542,6.8554,6.8578,6.859,6.859,6.859,6.8181,6.7697,6.7697,6.758,6.7447,6.7808,6.799,6.8244,6.8873,6.8831,6.8593,6.869,6.8737,6.866,6.8468,6.7244,6.6211,6.6211,6.6058,6.5904,6.5904,6.6074,6.6185,6.6185,6.6355,6.6508,6.6508,6.6508,6.6508,6.6508,6.6508,6.6508,6.6508,6.6508,6.6489,6.6406,6.6402,6.644,6.6596,6.6601,6.6706,6.6913,6.6913,6.6914,6.6914,6.6914,6.6914,6.6914,6.6914,6.6914,3.822,3.9749,4.1553,4.6549,4.7104,4.7638,5.249,5.367,5.4785,5.8578,6.0728,6.2059,6.2579,6.2281,6.1897,6.1897,6.2386,6.2755,6.2793,6.2768,6.2755,6.2793,6.2793,6.2793,6.2793,6.2793,6.2793,6.278,6.2667,6.3262,6.4822,6.4835,6.5519,6.7087,6.716,6.7182,6.7182,6.7182,6.7182,6.7182,6.73,6.7383,6.7424,6.7889,6.8083,6.8095,6.8383,6.8493,6.8493,6.8493,6.8493,6.8493,6.8493,6.8493,6.8506,6.8626,6.8674,6.8697,6.8852,6.8898,6.8898,6.8898,6.8861,6.8823,6.8823,6.901,6.9345,6.9755,7.0052,7.0333,7.0765,7.0785,7.0532,6.9814,6.9629,6.9398,6.8584,6.7667,6.7058,6.7058,6.6404,6.5904,6.5904,6.6074,6.6185,6.6185,6.6355,6.6508,6.6508,6.6508,6.6508,6.6508,6.6508,6.6508,6.6508,6.6508,6.6489,6.6406,6.6402,6.6454,6.658,6.6586,6.6686,6.6906,6.6904,6.691,6.6914,6.6914,6.6914,6.6914,6.6914,6.6914,3.7005,3.7613,3.8631,4.4655,4.4956,4.5115,5.0378,5.2769,5.4357,5.5967,5.9469,6.1897,6.081,6.163,6.2477,6.2477,6.2667,6.2793,6.2793,6.2793,6.2793,6.2793,6.2793,6.2793,6.2793,6.2717,6.2705,6.278,6.2266,6.2901,6.5076,6.4608,6.5238,6.7327,6.7168,6.7011,6.6947,6.7111,6.7111,6.6961,6.7168,6.7355,6.7546,6.7836,6.812,6.8371,6.8457,6.8493,6.8493,6.8493,6.8493,6.8493,6.8493,6.8542,6.8626,6.8674,6.8733,6.8852,6.8898,6.891,6.8898,6.8817,6.8756,6.8782,6.8662,6.9085,6.9616,6.9768,7.0263,7.0769,7.0912,7.0919,7.0821,7.0552,7.0475,7.0398,7.009,6.8898,6.7936,6.7936,6.7244,6.6673,6.6673,6.6352,6.6102,6.6175,6.6306,6.641,6.6501,6.6508,6.6508,6.6508,6.6508,6.6508,6.6508,6.6508,6.6489,6.6406,6.6402,6.6454,6.6582,6.6588,6.6689,6.6904,6.6903,6.6906,6.691,6.691,6.691,6.691,6.691,6.6909,3.5182,3.5331,3.5989,4.156,4.1707,4.1857,4.716,5.0758,5.3254,5.4333,5.8736,6.1987,6.064,6.1642,6.2679,6.278,6.2793,6.2793,6.2793,6.2755,6.273,6.273,6.2679,6.2654,6.2654,6.2578,6.2565,6.2654,6.2178,6.2837,6.4998,6.4595,6.5251,6.7327,6.7168,6.7011,6.6947,6.7111,6.7111,6.6947,6.7168,6.7355,6.7546,6.7836,6.812,6.8371,6.8457,6.8493,6.8493,6.8493,6.8518,6.8554,6.8506,6.8578,6.8685,6.8685,6.8782,6.8852,6.8898,6.891,6.8898,6.8817,6.8782,6.8768,6.8812,6.9271,6.9823,6.9959,7.044,7.0932,7.0932,7.0919,7.0898,7.0898,7.0898,7.0898,7.0898,6.9821,6.8853,6.8853,6.8129,6.7552,6.7552,6.7158,6.6819,6.6673,6.67,6.6683,6.6536,6.6508,6.6508,6.6508,6.6508,6.6508,6.6508,6.6508,6.6497,6.6427,6.6427,6.6478,6.6642,6.6647,6.6698,6.6858,6.6856,6.6856,6.6856,6.6901,6.6903,6.6903,6.6903,6.6902,0.0,0.0,0.0,3.7039,3.7185,3.7798,4.2688,4.7187,5.1067,5.3616,5.8433,6.2225,6.2274,6.2347,6.2462,6.2743,6.278,6.278,6.278,6.2679,6.2603,6.2603,6.2475,6.242,6.242,6.242,6.242,6.242,6.2384,6.3076,6.4717,6.4863,6.5592,6.7123,6.721,6.721,6.7196,6.721,6.721,6.7196,6.7314,6.7383,6.741,6.7876,6.8083,6.8095,6.8383,6.8493,6.8493,6.8493,6.8566,6.8662,6.8542,6.8578,6.8685,6.8685,6.8685,6.8709,6.8863,6.891,6.891,6.891,6.891,6.8964,6.9357,6.9711,7.0094,7.0494,7.0798,7.0998,7.0998,7.0952,7.0898,7.0898,7.0898,7.0898,7.0898,7.0283,6.9744,6.9744,6.9045,6.843,6.843,6.85,6.8363,6.7634,6.7581,6.7368,6.6652,6.6547,6.6547,6.6547,6.6508,6.6508,6.6508,6.6508,6.6508,6.6508,6.6508,6.6561,6.6674,6.6718,6.6752,6.6837,6.6874,6.6874,6.6874,6.6896,6.6902,6.6902,6.6902,6.6898,3.1737,0.0,0.0,0.0,0.0,0.0,4.0531,4.421,4.7679,4.962,5.4234,5.8335,5.9614,6.1191,6.2291,6.2462,6.25,6.25,6.25,6.2462,6.2449,6.2449,6.241,6.242,6.242,6.2291,6.2315,6.237,6.186,6.248,6.4681,6.5897,6.668,6.704,6.7154,6.7097,6.6918,6.7097,6.7097,6.6918,6.704,6.7168,6.728,6.7587,6.7852,6.8095,6.8383,6.8493,6.8493,6.8493,6.8518,6.8542,6.8506,6.8578,6.8685,6.8685,6.8744,6.8863,6.8898,6.891,6.8898,6.8805,6.8782,6.8814,6.9106,6.9496,6.986,7.028,7.0637,7.0925,7.0925,7.0912,7.0898,7.0898,7.0898,7.0898,7.0898,7.0744,7.0552,7.0552,6.9898,6.936,6.936,6.8847,6.8454,6.8392,6.8372,6.838,6.8388,6.7829,6.7441,6.7441,6.6897,6.6508,6.6508,6.6508,6.6508,6.6508,6.6508,6.6561,6.6674,6.7304,6.7651,6.7733,6.8357,6.867,6.867,6.7427,6.6845,6.6845,6.7468,6.8092,3.1928,3.2554,3.3566,3.5926,0.0,0.0,3.9645,4.3603,4.7265,4.8957,5.3998,5.8065,5.7838,5.9149,6.0251,6.0327,6.0377,6.0814,6.2188,6.2331,6.2341,6.2341,6.2275,6.2235,6.2235,6.2168,6.2154,6.2235,6.1799,6.2453,6.4503,6.6139,6.7019,6.6918,6.6968,6.6961,6.6786,6.6961,6.6961,6.6786,6.6874,6.6961,6.7026,6.73,6.7533,6.7757,6.8183,6.8334,6.8346,6.8445,6.853,6.8566,6.8518,6.8578,6.8674,6.8626,6.865,6.8721,6.8721,6.8721,6.8709,6.8626,6.8719,6.8934,6.925,6.9635,7.003,7.0424,7.0727,7.0898,7.0898,7.0898,7.0898,7.0898,7.0898,7.0898,7.0898,7.0898,7.0898,7.0898,7.0514,7.0206,7.0206,6.9829,6.9475,6.9286,6.9278,6.9251,6.913,6.8645,6.8334,6.8334,6.7907,6.7592,6.7592,6.7592,6.7592,6.7592,6.7592,6.7612,6.7728,6.8241,6.8549,6.8632,6.9137,6.9412,6.9412,6.8397,6.7889,6.7889,6.8396,6.8903,3.2975,3.3245,3.385,3.6228,3.6257,0.0,3.9426,4.3671,4.7463,4.9268,5.45,5.8074,5.5885,5.609,5.6636,5.6831,5.6915,5.8129,6.1423,6.2033,6.2063,6.1726,6.1869,6.1992,6.1992,6.1992,6.1992,6.1992,6.2173,6.2897,6.4323,6.5917,6.6786,6.6786,6.6786,6.6786,6.6786,6.6786,6.6786,6.6786,6.6786,6.6786,6.6801,6.7069,6.721,6.7238,6.7836,6.8083,6.8108,6.8396,6.8566,6.865,6.8542,6.8566,6.865,6.853,6.8493,6.8493,6.8493,6.853,6.8578,6.8578,6.8855,6.925,6.9645,7.0012,7.0385,7.0777,7.0898,7.0898,7.0898,7.0898,7.0898,7.0898,7.0898,7.0898,7.0898,7.0898,7.0898,7.0898,7.0898,7.0898,7.0898,7.1011,7.0872,7.022,7.0263,7.0097,6.9449,6.9302,6.9224,6.9224,6.9146,6.9107,6.9107,6.9107,6.9107,6.9107,6.9107,6.913,6.9211,6.9295,6.9408,6.953,6.9646,6.9685,6.9685,6.949,6.9451,6.9528,6.953,6.9608,3.4871,3.4952,3.5448,3.7231,3.7553,0.0,3.8113,3.9047,4.0564,4.3192,4.4876,4.6791,4.9934,5.0641,5.122,5.262,5.3372,5.4871,5.802,6.0521,6.1157,5.871,6.0554,6.1992,6.1992,6.1992,6.1992,6.1992,6.32,6.407,6.4374,6.5917,6.6786,6.6786,6.6786,6.6786,6.6786,6.6786,6.6786,6.6786,6.6786,6.6786,6.6801,6.7069,6.721,6.7238,6.7836,6.8083,6.8108,6.8396,6.8506,6.853,6.8506,6.8506,6.853,6.8506,6.8493,6.8493,6.8493,6.8693,6.8986,6.8986,6.9261,6.9654,7.0056,7.0255,7.0385,7.0777,7.0898,7.0898,7.0898,7.0898,7.0898,7.0898,7.0898,7.0898,7.0898,7.0898,7.0898,7.0898,7.0898,7.0898,7.0898,7.1011,7.111,7.1043,7.1154,7.1221,7.1123,7.051,7.0083,7.0083,6.9496,6.9107,6.9107,6.9107,6.9107,6.9107,6.9107,6.913,6.9211,6.988,7.0307,7.0427,7.1128,7.148,7.148,7.0076,6.9762,7.0465,7.0438,7.0827,3.628,3.6168,3.6377,3.7603,3.7576,0.0,0.0,3.8929,4.0454,4.1894,4.4202,4.614,4.6816,4.736,4.795,4.8715,4.9548,5.0601,5.2171,5.7012,6.0194,5.9782,6.1068,6.1992,6.1992,6.1992,6.1992,6.1992,6.3128,6.3975,6.4374,6.5555,6.6388,6.6786,6.6786,6.6786,6.6786,6.6786,6.6786,6.6786,6.6786,6.6786,6.6786,6.6947,6.7019,6.7011,6.746,6.7664,6.7691,6.8108,6.8309,6.8321,6.8445,6.8493,6.8493,6.8493,6.8624,6.8809,6.8809,6.9047,6.9388,6.9388,6.9673,7.003,7.0225,7.0432,7.063,7.0857,7.0898,7.0898,7.0898,7.0898,7.0898,7.0898,7.0898,7.0898,7.0898,7.0898,7.0898,7.0898,7.0898,7.0898,7.0898,7.1075,7.1224,7.1286,7.1436,7.1547,7.1594,7.1209,7.0937,7.0937,7.0588,7.0354,7.0354,7.0354,7.0354,7.0354,7.0354,7.0385,7.0444,7.0917,7.1205,7.1364,7.1792,7.1987,7.1987,7.1136,7.0904,7.1334,7.134,7.1577,3.7919,3.7535,3.7436,3.8063,3.7739,3.7334,0.0,0.0,0.0,4.136,4.4527,4.6495,4.38,4.3976,4.4418,4.4096,4.523,4.6209,4.6383,5.2485,5.7547,5.9216,6.0036,6.0554,6.0735,6.1144,6.1575,6.1955,6.2585,6.3396,6.4359,6.5156,6.5953,6.6786,6.6786,6.6786,6.6786,6.6786,6.6786,6.6786,6.6786,6.6786,6.6786,6.6786,6.6786,6.6801,6.7069,6.721,6.7252,6.785,6.8083,6.8145,6.8396,6.8493,6.8493,6.8493,6.8751,6.9091,6.9091,6.9398,6.9814,6.9814,7.0082,7.0408,7.0408,7.063,7.0898,7.0898,7.0898,7.0898,7.0898,7.0898,7.0898,7.0898,7.0898,7.0898,7.0898,7.0898,7.0898,7.0898,7.0898,7.0898,7.0898,7.113,7.1297,7.1297,7.1595,7.1831,7.1831,7.1831,7.1831,7.1831,7.1718,7.1602,7.1602,7.1602,7.1602,7.1602,7.1602,7.1637,7.1697,7.1769,7.1872,7.199,7.1987,7.1989,7.1991,7.2002,7.2006,7.2006,7.201,7.2015,4.0696,3.9946,3.9395,3.9458,3.9487,3.9241,3.8484,0.0,3.8763,3.7962,0.0,3.8561,3.8056,0.0,0.0,3.7165,3.9984,4.2463,4.3039,4.7399,5.0421,5.0073,5.303,5.5384,5.6164,5.8008,5.9945,6.186,6.21,6.2788,6.4323,6.5156,6.5953,6.6786,6.6786,6.6786,6.6786,6.6786,6.6786,6.6786,6.6786,6.6786,6.6786,6.6786,6.6786,6.6801,6.7069,6.721,6.7252,6.785,6.8083,6.8145,6.8396,6.8493,6.8493,6.8493,6.8751,6.9091,6.9091,6.9606,7.0217,7.0217,7.0478,7.0812,7.0812,7.0871,7.0898,7.0898,7.0898,7.0898,7.0898,7.0898,7.0898,7.0898,7.0898,7.0898,7.0898,7.0898,7.0898,7.0898,7.0898,7.0898,7.0898,7.113,7.1297,7.1297,7.2138,7.2759,7.2759,7.2759,7.2759,7.2759,7.2064,7.1602,7.1602,7.1602,7.1602,7.1602,7.1602,7.1637,7.1697,7.1809,7.1911,7.1989,7.1987,7.1994,7.2004,7.2005,7.2006,7.2006,7.1984,7.1986,4.3454,4.3219,4.2838,4.2831,4.2487,4.2025,4.1624,3.9933,3.838,3.7963,0.0,0.0,0.0,0.0,0.0,0.0,3.9159,4.0616,4.0922,4.3067,4.6017,4.9953,5.2218,5.4304,5.6438,5.7606,5.9237,6.164,6.1126,6.1742,6.408,6.4648,6.5482,6.675,6.6786,6.6786,6.6786,6.6786,6.6786,6.6786,6.6786,6.6786,6.6822,6.7293,6.7578,6.7768,6.8334,6.871,6.8921,6.9329,6.9499,6.9512,6.9805,6.9311,6.853,6.8751,6.9091,6.9478,6.9721,7.0502,7.1481,7.198,7.2253,7.2392,7.2392,7.2392,7.2392,7.2392,7.2392,7.2283,7.1783,7.1629,7.1514,7.1014,7.0898,7.0898,7.0898,7.0898,7.0898,7.0898,7.0898,7.0898,7.0898,7.113,7.1297,7.1297,7.1789,7.2142,7.2142,7.2142,7.2142,7.2142,7.1831,7.1602,7.1602,7.1602,7.1602,7.1602,7.1602,7.1637,7.1743,7.1802,7.1875,7.199,7.1987,7.1994,7.2006,7.2012,7.2017,7.1983,7.1988,7.199,4.7152,4.7239,4.6801,4.5584,4.4817,4.4087,4.3055,4.1004,3.9294,3.9294,4.0091,0.0,0.0,0.0,3.9638,3.8226,0.0,3.9196,3.8621,3.9937,4.3007,4.8539,5.0922,5.3125,5.568,5.6955,5.8535,6.0767,6.0126,6.0945,6.396,6.4293,6.512,6.675,6.6786,6.6786,6.6786,6.6786,6.6786,6.6786,6.6786,6.6931,6.7148,6.7713,6.8224,6.8677,6.9296,6.9725,7.0003,7.0351,7.0497,7.0536,7.0946,7.0398,6.9402,6.9694,7.0108,7.0637,7.0909,7.1682,7.2668,7.3276,7.3507,7.3507,7.3507,7.3507,7.3507,7.3507,7.3507,7.3353,7.2706,7.2552,7.2399,7.1745,7.1629,7.1629,7.1629,7.1437,7.1245,7.1245,7.1052,7.0898,7.0898,7.113,7.1297,7.1297,7.1673,7.1947,7.1947,7.1947,7.1947,7.1947,7.1753,7.1602,7.1602,7.1602,7.1602,7.1602,7.1602,7.1664,7.1788,7.1792,7.1869,7.199,7.1991,7.2,7.201,7.2019,7.1987,7.1991,7.1991,7.1991,5.2317,5.2178,5.1126,4.6772,4.5725,4.4789,4.1212,4.1048,4.1586,4.1586,4.2238,4.254,4.1683,4.0926,3.9602,0.0,3.7859,0.0,0.0,3.8472,4.1242,4.2464,4.7094,5.0652,5.1864,5.5156,5.7709,5.8904,5.9139,6.0655,6.3935,6.4293,6.512,6.675,6.6786,6.6786,6.6786,6.6786,6.6786,6.6786,6.6786,6.7221,6.7966,6.8002,6.8416,6.9201,6.95,6.9595,6.9653,7.0256,7.0497,7.0576,7.1294,7.1542,7.1505,7.1527,7.2049,7.2788,7.2805,7.31,7.3469,7.3507,7.3507,7.3507,7.3507,7.3507,7.3507,7.3507,7.3507,7.3507,7.3469,7.3469,7.343,7.343,7.343,7.343,7.343,7.2745,7.2175,7.2175,7.1475,7.0898,7.0898,7.113,7.1297,7.1297,7.2177,7.2875,7.2875,7.2875,7.2875,7.2875,7.2103,7.1602,7.1602,7.1602,7.1602,7.1602,7.1602,7.1664,7.1788,7.1792,7.1869,7.199,7.2,7.201,7.2019,7.1987,7.1991,7.1992,7.1992,7.1992,5.488,5.5175,5.4801,5.3286,5.1092,4.9144,4.8451,4.4826,4.159,4.159,4.2236,4.2393,4.101,4.1435,4.1377,0.0,0.0,3.9549,0.0,3.9723,4.0864,4.1791,4.5161,4.8325,5.0756,5.2714,5.5174,5.8475,5.8473,5.9674,6.2758,6.3752,6.4697,6.5783,6.6444,6.6786,6.6786,6.6786,6.6786,6.6822,6.7329,6.7764,6.8054,6.9104,6.9842,7.0322,7.1143,7.1623,7.1798,7.2243,7.2438,7.2466,7.3011,7.3397,7.3556,7.2747,7.2635,7.2991,7.3829,7.4196,7.4392,7.4976,7.5168,7.5168,7.5168,7.5168,7.5168,7.5168,7.5168,7.5014,7.443,7.4276,7.4161,7.3623,7.3507,7.3507,7.3507,7.3276,7.3053,7.3053,7.2822,7.2622,7.2622,7.2283,7.1852,7.1358,7.1688,7.1995,7.2017,7.2025,7.2025,7.2025,7.1792,7.1602,7.1602,7.1602,7.1602,7.1602,7.1602,7.1664,7.1788,7.1792,7.1867,7.2002,7.2004,7.2015,7.1987,7.1989,7.1991,7.1992,7.1992,7.1992,5.8178,5.8519,5.819,5.6905,5.4811,5.2865,5.2122,4.8534,4.5375,4.5375,4.6069,4.6095,4.434,4.4151,4.3727,0.0,0.0,3.993,0.0,3.9951,4.0462,4.1959,4.4657,4.7149,4.9092,5.1298,5.3848,5.6902,5.7498,5.8908,6.1701,6.3281,6.4451,6.5287,6.6293,6.6786,6.6786,6.6786,6.6931,6.7221,6.7749,6.8307,6.8887,6.9916,7.064,7.1093,7.1933,7.251,7.277,7.3071,7.3374,7.3653,7.4079,7.4512,7.4819,7.4047,7.3874,7.4097,7.491,7.5168,7.5238,7.5822,7.6015,7.6015,7.6015,7.6015,7.6015,7.6015,7.6015,7.5861,7.5322,7.5168,7.5014,7.4507,7.4392,7.4392,7.4392,7.4161,7.393,7.393,7.3699,7.3507,7.3507,7.3122,7.2559,7.1849,7.1619,7.1527,7.1589,7.1602,7.1602,7.1602,7.1602,7.1602,7.1602,7.1602,7.1602,7.1602,7.1602,7.1664,7.1788,7.1788,7.1864,7.2007,7.2013,7.1982,7.199,7.199,7.1992,7.1992,7.1992,7.1992]}]]